GFSSE_500_spd_000.txt.gz
Wind_Speed
28 23 20 17 16 30 31 34 29 32 29 33 27 31 32 32 35 33 35 34 34 36 37 50 42 57 52 40 41 38 39 38 38 35 33 31 29 34 25 24 25 26 28
29 22 14 15 23 23 27 23 22 22 30 32 27 27 25 27 29 31 32 35 33 36 40 44 39 32 48 47 44 43 43 41 41 37 37 33 32 31 26 27 27 29 24
20 16 14 18 22 25 24 21 22 26 27 30 30 30 27 34 34 32 33 36 30 32 35 34 33 30 26 33 44 47 49 46 41 41 40 38 35 32 29 28 28 25 25
29 19 19 19 20 26 28 26 29 30 30 34 35 37 40 38 37 31 32 30 33 30 30 30 28 28 31 39 23 45 53 49 42 42 39 39 38 34 31 30 28 27 25
21 17 17 18 23 25 30 31 32 34 35 39 41 42 42 42 40 33 32 28 31 34 33 31 31 29 29 29 31 29 24 54 43 41 43 40 40 37 34 33 30 28 28
26 28 28 25 26 30 33 36 39 40 44 43 43 36 35 34 34 33 31 31 34 37 33 31 32 28 28 22 24 24 27 19 44 42 43 42 41 39 35 33 31 32 31
27 26 27 29 32 35 37 40 40 40 41 39 33 33 32 30 28 28 28 30 30 31 30 27 31 30 30 26 21 18 17 28 22 48 42 40 41 38 36 34 35 33 34
21 21 25 27 29 32 33 34 33 32 31 29 30 32 32 30 27 26 25 23 22 25 25 24 27 28 27 28 24 25 24 21 18 18 46 37 37 35 35 35 35 36 36
19 20 21 24 26 28 27 26 26 25 24 25 27 28 28 27 24 23 22 23 24 25 26 23 23 25 25 25 26 25 26 25 18 16 21 39 40 38 36 37 37 38 37
16 18 21 22 21 21 20 22 24 25 24 27 27 27 26 26 25 22 20 18 17 16 18 18 16 17 19 17 17 17 20 22 22 23 23 32 44 42 39 39 41 41 39
9 14 13 16 18 19 17 18 19 19 18 18 19 20 20 17 16 16 17 18 19 19 20 21 19 19 19 18 18 16 17 18 22 27 29 29 33 40 42 44 44 43 43
11 11 11 4 2 2 6 8 9 9 11 12 12 13 16 18 20 21 21 23 24 26 27 28 28 25 23 22 20 20 21 20 22 25 33 38 40 42 41 44 46 48 47
9 11 12 13 12 12 14 17 19 20 20 22 23 22 24 25 25 27 27 29 28 29 30 32 32 31 30 30 29 27 26 25 25 30 29 39 45 45 47 51 50 51 51
11 13 16 15 16 18 20 21 22 24 24 26 28 28 29 31 30 30 31 32 33 34 34 34 35 36 36 35 34 36 36 31 30 30 30 30 46 51 51 52 53 55 54
15 15 17 20 22 22 25 26 26 27 28 29 31 31 32 34 35 35 35 35 35 36 35 35 35 37 39 39 38 37 38 38 36 34 34 35 33 54 58 56 58 57 59
16 18 20 22 24 27 28 29 30 30 31 32 32 33 34 35 35 36 36 37 38 38 38 38 38 38 39 40 40 42 41 40 41 39 38 38 38 40 51 62 66 63 61
23 23 24 26 25 26 27 30 31 32 34 35 35 35 38 39 40 40 39 40 40 41 42 43 43 43 42 41 41 42 44 47 44 44 43 40 41 42 41 43 66 72 66
24 22 22 23 26 28 30 31 33 35 37 39 41 43 45 45 47 47 46 48 48 48 49 49 49 50 50 50 50 48 45 48 51 50 48 48 46 47 46 46 46 59 74
21 22 23 25 26 30 34 37 38 39 42 46 47 47 49 50 52 53 53 53 55 56 56 56 56 54 56 57 58 58 56 52 51 55 56 53 52 52 52 51 48 45 52
26 28 30 32 36 40 41 41 45 45 46 47 49 51 53 54 56 57 58 57 58 59 59 59 58 60 63 64 64 64 62 59 58 55 59 60 58 56 56 57 55 52 50
34 37 41 43 44 44 45 48 49 51 52 53 55 57 56 55 57 59 61 60 62 62 61 61 63 65 68 70 69 69 68 65 60 61 60 62 64 62 60 60 61 58 53
34 37 40 44 46 48 49 52 55 55 55 56 57 58 60 60 60 60 61 63 63 61 61 63 65 67 69 71 71 73 71 65 65 60 62 64 67 68 66 64 64 64 59
33 33 34 37 44 49 52 54 55 57 56 56 59 59 59 60 61 61 62 63 64 63 63 64 67 69 70 72 72 72 70 68 61 59 61 63 68 72 72 70 69 68 67
32 34 35 38 43 47 49 51 56 58 60 61 60 59 60 61 61 62 62 62 62 65 67 68 69 69 65 64 64 68 69 70 65 61 55 60 65 69 73 75 74 72 71
42 45 46 48 48 52 53 53 57 57 55 56 57 58 59 59 57 58 63 66 67 66 66 70 72 72 67 65 65 67 65 65 66 65 62 57 57 64 68 73 78 76 75
51 48 47 49 52 54 57 58 55 57 59 61 60 59 60 61 64 67 66 65 67 69 69 69 69 69 69 68 67 67 66 64 60 62 62 58 60 58 63 68 75 78 79

GFSSE_500_spd_003.txt.gz
Wind_Speed
31 39 37 29 21 23 27 24 27 32 23 26 25 25 22 25 28 29 31 30 35 31 36 34 35 36 32 33 31 37 42 45 35 33 36 34 32 32 34 33 32 28 24
37 39 19 21 21 24 23 25 27 23 18 19 24 26 25 28 31 31 36 35 34 30 31 26 27 30 26 26 30 26 43 49 47 37 35 37 35 31 32 25 23 25 24
39 37 20 22 20 21 20 23 25 23 23 21 25 29 31 34 38 39 40 38 32 32 31 32 30 30 27 25 27 29 27 40 49 47 35 36 36 34 34 33 31 26 26
42 34 41 31 27 17 24 24 27 25 29 32 33 33 34 38 43 40 38 35 34 31 28 28 29 30 31 28 26 27 27 27 29 48 44 39 40 39 35 31 30 28 26
32 30 26 15 17 19 21 26 27 30 34 37 37 40 43 44 38 36 35 35 31 27 27 29 32 30 29 27 24 24 28 33 26 21 38 47 39 39 35 35 32 30 28
21 20 18 21 24 26 30 31 34 37 39 42 44 45 42 38 32 30 29 27 26 26 27 30 31 28 28 28 28 24 22 25 18 24 19 43 41 41 39 39 36 34 33
20 24 26 30 34 33 32 34 36 37 36 35 34 35 32 30 31 30 28 27 26 26 24 27 28 25 25 26 25 24 22 18 23 22 23 23 46 41 42 42 40 37 36
20 23 28 31 31 29 29 29 27 27 27 27 27 26 27 28 29 28 25 23 21 21 22 24 23 22 21 21 23 23 22 23 22 23 21 18 42 42 41 42 42 40 39
19 20 22 24 24 22 21 21 23 24 25 26 26 27 27 27 27 25 23 21 21 21 18 14 11 13 13 13 13 15 18 25 24 23 22 17 29 45 46 41 42 42 41
20 21 22 21 19 18 19 22 20 19 20 20 19 17 17 16 14 13 12 13 13 13 14 15 15 14 12 13 14 13 11 10 14 19 20 19 24 40 42 40 43 43 42
9 9 11 11 12 12 12 15 16 18 19 19 20 21 20 19 19 21 21 20 19 20 21 23 24 22 21 19 18 18 18 15 13 13 19 22 24 31 40 46 45 45 44
11 11 11 9 9 10 11 13 18 19 20 22 25 26 25 25 25 26 26 26 26 26 26 27 27 27 26 24 22 21 22 19 20 19 17 25 29 28 40 45 47 49 49
13 14 11 10 10 12 13 16 20 24 26 27 28 29 30 30 29 29 29 29 29 30 31 31 31 31 30 30 29 28 27 26 25 22 23 23 24 36 37 47 52 53 53
14 16 16 15 16 19 21 22 24 26 27 29 31 32 32 33 35 34 34 33 32 31 31 32 32 33 33 33 33 33 31 31 31 29 27 27 27 31 36 47 50 53 53
20 21 23 25 24 23 23 24 26 27 28 29 31 33 34 34 34 35 36 36 36 35 35 34 33 34 35 35 35 36 36 35 34 34 34 34 34 34 34 34 55 56 56
22 23 24 25 27 26 26 28 29 30 31 32 33 34 36 38 39 39 41 42 42 41 42 42 42 42 42 42 42 40 40 39 38 37 36 36 40 40 40 39 38 55 62
26 27 26 27 28 29 29 30 31 32 35 38 41 42 43 45 46 46 46 46 46 46 46 46 48 49 49 48 48 47 45 45 45 45 44 43 40 43 45 45 44 46 62
18 22 24 26 28 29 31 34 38 41 42 43 44 47 49 50 51 52 52 51 50 51 51 52 52 52 52 53 54 53 51 49 48 48 49 51 51 47 46 50 50 49 48
22 25 28 31 34 37 39 41 44 45 45 47 51 53 55 56 56 57 57 56 56 56 56 56 57 58 57 57 57 56 55 54 54 54 55 56 55 54 51 51 55 56 55
33 36 36 37 40 42 43 45 48 50 50 50 52 54 55 57 58 58 59 60 62 62 61 60 60 61 62 62 62 60 59 60 60 60 59 59 58 58 57 58 57 61 63
31 32 34 36 39 43 45 47 48 50 51 53 55 56 56 58 60 61 61 61 62 60 61 61 62 63 64 64 64 63 63 63 64 64 63 61 60 60 62 62 63 64 66
31 31 32 34 39 44 46 48 49 51 52 53 55 59 62 64 64 63 61 60 61 62 62 61 60 59 60 61 62 62 63 65 69 69 68 66 65 64 63 64 66 68 70
30 33 36 40 44 48 49 52 52 52 55 55 56 58 60 62 62 63 63 62 61 60 60 60 60 59 60 62 63 65 66 67 69 69 69 70 68 65 65 66 69 72 75
33 38 41 44 49 51 51 52 54 56 57 57 59 60 60 60 61 62 61 59 60 62 66 66 66 65 65 63 64 64 65 69 72 68 62 64 66 67 65 66 71 76 80
41 43 47 52 54 53 54 56 59 60 59 57 57 57 58 59 59 59 60 62 64 65 66 69 67 67 67 67 71 72 70 68 69 69 69 61 60 63 63 65 67 74 78
47 49 52 54 57 59 59 60 59 58 58 59 61 62 62 63 64 66 67 68 65 65 64 65 66 67 70 70 70 69 71 69 70 68 64 63 61 57 60 63 65 67 75

GFSSE_500_spd_006.txt.gz
Wind_Speed
27 30 31 33 33 37 32 28 26 24 25 19 19 18 20 20 20 23 25 27 31 33 31 29 29 26 24 22 21 22 21 30 21 28 34 31 32 32 33 34 34 32 31
30 31 33 34 34 30 28 29 29 22 28 23 22 19 22 27 29 29 31 34 37 33 32 28 26 28 31 28 25 22 21 20 21 33 35 39 31 32 33 34 33 30 29
28 30 30 26 24 27 28 21 21 21 25 27 25 28 29 31 31 32 33 35 35 34 31 29 26 22 24 24 25 26 24 24 18 30 37 47 37 33 33 33 32 26 24
36 37 30 28 28 32 23 20 21 28 28 29 29 33 35 37 37 38 36 33 31 28 27 30 26 25 24 26 26 25 25 22 22 24 18 39 52 41 37 35 34 34 32
22 18 18 19 16 19 18 21 26 30 33 33 35 37 39 40 38 36 33 27 28 27 22 24 27 27 28 26 24 26 27 23 20 18 14 15 37 48 40 37 37 35 32
22 21 17 15 17 19 24 31 33 34 34 34 35 35 34 33 31 29 25 25 27 26 25 24 23 24 26 24 27 25 26 24 22 14 15 17 14 40 49 46 40 37 33
24 20 21 23 26 29 33 35 33 29 27 26 26 24 24 25 25 24 24 24 23 23 22 22 21 23 22 21 22 21 21 21 24 21 18 17 16 25 48 45 40 41 37
17 19 23 26 27 27 23 20 19 20 23 24 25 24 23 24 24 24 22 20 20 20 21 21 20 20 20 21 21 20 20 20 24 23 23 20 22 20 41 49 45 44 41
18 19 20 20 21 21 20 20 21 20 18 16 17 18 19 19 19 18 17 16 16 17 16 11 11 12 12 12 11 12 16 20 23 25 24 23 24 21 37 46 41 44 41
13 11 11 12 12 12 12 11 10 11 14 15 15 16 17 17 17 17 19 20 20 20 21 20 19 18 17 17 16 14 14 16 16 18 20 22 26 23 29 43 46 40 43
11 10 12 13 12 13 12 13 15 16 19 21 23 24 23 23 23 24 25 25 24 23 23 23 24 23 22 21 21 21 20 18 17 17 16 18 24 26 25 34 42 45 45
10 11 12 15 17 17 17 19 21 22 23 24 26 25 25 24 24 25 25 26 25 26 26 26 26 26 26 24 24 24 24 23 22 22 20 18 19 23 22 29 38 43 46
14 16 17 16 16 17 18 18 20 22 24 25 27 27 28 28 28 29 29 28 28 27 27 28 28 27 28 26 25 25 26 28 27 27 26 24 22 22 27 29 35 41 44
14 16 17 18 17 16 18 20 23 23 24 25 27 28 29 31 32 32 32 34 36 37 37 37 36 34 33 32 31 31 30 29 29 31 31 30 29 25 26 30 33 37 48
15 17 21 22 23 23 23 23 24 26 27 28 29 32 33 34 36 37 39 40 40 39 38 40 41 42 41 40 40 39 39 37 34 33 33 33 33 33 32 33 33 32 41
19 21 23 23 25 26 28 29 30 31 32 33 36 39 40 40 41 41 42 44 45 44 44 44 43 43 44 45 44 43 43 43 42 40 36 36 37 37 37 40 40 42 40
23 26 28 28 29 31 33 34 35 37 39 40 44 47 47 46 47 48 48 49 47 47 48 49 47 46 47 48 49 49 48 48 48 47 46 44 42 41 41 41 41 44 48
21 24 25 29 33 34 35 37 39 42 43 45 46 47 47 47 48 48 49 50 51 50 51 51 52 53 54 54 55 55 54 54 53 52 52 51 50 48 47 47 47 47 45
26 30 32 35 38 41 42 42 44 45 46 47 47 48 50 51 52 54 55 55 56 56 56 57 58 58 58 58 57 56 57 57 56 56 56 56 56 55 53 53 53 52 51
30 35 36 39 43 44 45 43 41 44 48 50 52 53 53 53 54 56 57 60 61 60 59 59 58 58 58 58 58 59 60 59 58 57 58 59 59 59 59 58 59 60 58
34 33 36 39 39 42 45 46 47 51 51 51 52 53 55 57 59 59 58 58 58 59 59 58 58 59 60 61 60 59 60 61 60 60 62 61 61 61 60 60 61 61 63
30 32 37 40 43 48 49 49 52 52 52 52 53 52 54 56 57 58 59 59 59 61 63 62 59 55 55 55 58 58 59 60 61 63 64 62 61 59 59 59 59 61 62
33 36 40 43 46 52 52 54 56 54 54 54 54 54 55 54 56 58 60 61 62 62 61 62 62 62 61 59 57 60 63 62 60 60 63 65 64 62 60 60 61 61 63
36 40 42 44 51 52 54 55 54 53 53 53 54 55 56 57 59 60 61 63 63 65 65 65 64 66 66 66 65 60 57 60 62 62 61 64 65 65 66 65 64 64 65
42 44 47 50 50 51 53 53 54 56 57 57 57 59 60 62 64 66 67 68 67 68 67 67 67 67 69 70 70 68 65 60 61 63 63 62 62 63 63 64 65 66 66
44 45 49 48 49 53 53 56 58 58 60 61 62 63 64 65 67 69 70 72 73 74 75 76 75 74 72 65 66 65 65 65 66 66 66 65 62 54 56 57 61 66 68

GFSSE_500_spd_009.txt.gz
Wind_Speed
22 23 25 27 28 28 34 31 28 33 30 25 23 24 26 27 25 24 23 25 24 29 29 26 27 26 23 24 20 19 18 18 18 21 24 31 34 33 33 30 30 33 30
23 25 28 32 36 36 32 32 32 36 33 25 27 27 26 29 27 26 27 29 31 32 30 28 27 25 23 26 20 20 19 22 20 23 20 26 34 35 35 33 32 32 33
26 29 33 33 32 31 29 27 26 22 18 27 27 27 27 29 31 32 32 29 30 30 29 29 27 26 25 25 24 20 20 22 20 21 20 17 27 35 35 34 33 33 32
28 27 25 21 20 15 14 16 21 22 24 30 32 32 33 33 31 30 30 29 27 25 24 26 26 24 26 27 28 25 23 22 23 22 19 21 13 30 36 36 37 34 34
25 26 23 20 15 14 17 20 24 26 31 33 31 29 28 28 27 24 22 21 18 20 24 24 24 23 22 26 26 24 26 24 24 23 19 17 15 16 34 42 43 40 34
22 22 23 23 22 23 25 26 30 31 28 25 24 23 23 23 23 22 21 20 20 20 21 21 21 20 20 19 21 23 24 24 24 23 21 19 17 18 24 42 50 47 38
14 17 19 19 21 22 21 21 20 18 18 19 18 17 15 15 16 17 17 17 16 17 18 19 19 19 19 19 20 20 22 23 24 23 23 22 22 23 18 36 47 50 42
14 13 12 14 16 16 15 15 15 15 14 12 12 13 14 15 15 15 14 14 14 13 15 17 18 14 13 13 15 16 19 22 23 24 25 27 27 27 24 24 42 50 51
9 10 11 12 12 12 11 10 9 9 9 12 14 16 18 18 18 18 19 20 19 18 16 14 14 15 16 17 18 16 15 15 17 21 24 26 29 28 26 26 34 46 48
9 10 11 13 15 15 13 11 12 14 16 17 17 18 18 18 17 18 20 21 21 21 20 21 21 19 18 17 19 20 20 19 19 19 19 20 24 26 26 25 33 41 44
12 13 14 14 15 16 17 17 17 17 18 19 19 19 19 18 18 18 19 20 20 21 22 22 22 22 22 22 20 20 21 22 22 22 22 21 20 23 25 28 33 38 47
12 13 14 15 16 17 16 16 18 18 19 20 20 21 22 22 23 23 22 22 22 22 22 22 23 23 23 23 22 22 21 22 22 24 26 25 24 24 24 29 32 34 37
10 10 11 13 13 15 17 17 19 20 20 22 23 23 23 26 28 29 28 28 30 31 30 29 29 28 27 27 27 26 25 24 24 24 25 28 30 29 27 26 25 26 34
11 11 12 13 15 17 19 20 22 24 26 28 29 29 30 32 35 36 37 36 37 37 37 37 36 34 33 32 33 34 34 33 33 32 30 29 29 30 31 30 28 25 29
14 17 18 19 20 21 23 25 28 30 33 35 36 36 37 39 41 41 41 40 40 41 41 41 40 38 38 39 38 36 36 37 38 39 39 36 34 32 33 32 34 33 30
18 21 24 26 28 29 30 32 34 36 38 38 39 39 40 40 41 40 40 40 40 40 41 42 43 43 44 43 42 41 40 40 41 42 43 43 42 39 37 36 37 37 39
24 25 26 29 30 30 31 33 34 37 39 40 39 38 39 40 40 40 42 43 43 43 43 45 46 46 47 48 48 47 47 47 46 46 46 46 47 47 44 42 42 43 42
26 28 29 32 34 35 37 39 40 41 42 42 42 43 43 44 44 44 45 45 46 45 46 48 51 52 52 52 52 52 52 53 52 51 50 49 50 50 51 50 48 47 48
28 27 31 36 40 41 41 42 42 42 44 46 47 49 51 51 51 50 50 50 52 51 52 51 50 50 50 49 50 51 52 53 53 53 52 52 52 53 54 54 54 54 53
32 33 37 39 40 40 42 43 46 45 48 46 49 50 50 50 50 50 49 48 50 50 51 51 52 51 51 52 53 53 52 53 55 54 54 56 56 55 55 56 57 58 58
34 36 38 40 41 42 44 48 48 50 53 52 51 51 50 50 51 53 55 55 55 56 55 56 58 58 58 57 58 57 56 55 54 54 54 56 57 56 55 55 57 59 61
34 36 38 38 41 46 48 49 50 52 52 52 51 51 53 54 55 54 54 56 57 58 58 58 58 60 61 62 63 63 61 58 58 57 59 58 59 59 59 58 56 57 60
35 38 39 41 45 48 49 52 52 51 52 52 53 55 56 56 57 58 59 61 61 62 63 63 64 65 65 65 61 63 64 62 60 59 59 60 61 63 63 62 61 60 62
38 40 42 45 49 50 49 49 51 53 53 54 58 59 60 61 63 63 64 65 66 67 67 69 70 69 70 70 70 65 67 64 66 62 61 61 62 62 64 66 64 63 63
42 43 45 47 48 49 50 52 54 56 57 60 62 63 64 65 66 67 68 68 69 70 70 72 74 73 70 72 72 72 70 73 70 68 65 62 63 67 66 66 66 66 67
44 45 46 47 49 51 54 56 57 59 62 65 67 69 70 71 71 74 77 75 75 76 77 76 76 77 75 74 75 75 71 72 72 69 66 66 66 67 69 67 66 67 68

GFSSE_500_spd_012.txt.gz
Wind_Speed
20 21 24 23 25 30 34 35 34 30 29 27 28 28 24 25 21 22 25 24 26 26 27 26 24 22 24 24 21 21 18 18 17 17 15 19 30 33 37 39 37 32 31
23 25 26 27 29 29 32 31 30 26 23 21 21 24 21 22 25 27 30 28 27 27 26 24 23 22 23 28 25 25 23 22 19 20 19 16 20 26 35 38 40 37 34
26 28 28 26 27 28 27 27 27 23 23 23 24 26 25 25 25 25 26 27 26 26 23 22 20 21 21 21 29 28 27 24 23 21 21 20 22 23 33 38 38 38 37
27 28 25 25 27 27 26 27 24 24 23 24 23 23 22 21 19 19 18 18 18 18 18 19 21 23 23 22 23 29 29 26 22 22 21 22 22 27 27 41 41 38 37
19 20 21 21 19 19 19 19 21 22 19 17 15 15 16 16 16 16 16 16 17 17 17 18 21 21 22 22 22 22 26 26 25 24 24 23 25 24 20 35 41 41 39
13 14 13 14 15 16 16 17 15 13 13 13 14 15 15 14 12 12 12 12 13 14 15 15 17 18 18 18 19 18 21 23 24 25 26 26 27 29 27 27 35 43 42
11 11 12 12 13 14 14 13 13 12 11 11 10 10 12 13 13 13 13 13 13 13 12 12 13 14 14 15 16 16 18 21 22 23 25 26 29 29 30 28 27 34 46
7 8 9 10 11 11 10 9 8 9 10 9 11 13 14 15 16 16 16 15 14 13 13 11 10 10 10 11 13 14 15 15 17 20 24 26 29 32 32 33 29 26 41
8 7 6 5 7 8 7 8 8 8 7 9 11 13 14 14 15 15 16 18 17 17 16 15 15 14 12 13 14 15 13 14 16 17 18 20 22 28 31 33 32 29 31
6 5 4 6 6 6 5 6 6 8 10 11 13 14 14 13 13 13 13 14 14 16 17 17 16 17 17 17 16 18 19 16 15 16 18 19 20 20 21 24 31 33 32
3 3 5 6 8 10 11 12 13 14 15 16 17 17 17 17 17 17 18 18 17 17 18 20 21 20 19 19 20 19 19 19 20 20 20 21 21 22 22 22 24 34 29
4 5 7 9 11 13 14 17 18 19 20 20 21 21 21 21 21 22 24 25 25 24 24 24 23 23 24 23 24 24 23 23 22 21 20 23 25 25 26 25 23 25 31
10 12 14 15 16 17 17 18 18 19 21 23 25 27 29 29 30 32 33 34 33 32 32 32 31 31 31 30 29 28 28 30 29 28 25 24 25 26 27 28 29 26 26
14 15 15 15 15 16 18 21 24 25 27 29 30 31 32 34 35 35 36 37 37 36 35 35 35 35 35 34 34 33 33 34 35 35 32 32 31 30 29 30 30 31 30
18 19 19 20 21 22 25 28 30 31 32 32 32 34 35 35 35 35 36 37 38 37 37 38 38 38 37 38 38 38 38 38 38 38 39 37 37 36 35 35 33 33 33
19 21 23 25 26 26 29 31 32 34 35 35 34 35 36 37 39 40 40 41 41 40 41 42 42 42 41 42 42 42 42 43 43 43 43 42 42 42 42 40 40 38 37
21 24 26 27 29 30 32 35 36 36 36 38 39 38 40 42 42 42 42 42 41 40 39 41 41 42 44 45 46 46 46 47 47 46 47 48 48 47 47 47 46 45 44
25 28 28 30 33 35 37 38 38 37 38 40 43 44 46 43 45 44 44 44 44 43 42 41 42 41 42 43 44 45 45 46 46 47 48 49 51 51 50 50 52 52 50
30 31 33 35 35 36 38 40 39 41 44 44 44 47 48 48 47 47 46 45 46 47 47 49 49 48 48 47 48 48 47 47 47 47 47 49 51 53 55 52 53 55 57
33 35 37 38 37 40 42 42 42 45 47 48 50 51 50 50 49 49 49 51 53 54 55 56 56 57 56 55 56 56 53 53 53 52 51 50 52 53 56 59 57 57 57
34 36 39 39 40 43 45 46 48 50 52 51 52 53 52 53 52 53 53 55 57 59 59 60 62 62 62 61 62 60 60 60 58 57 55 55 55 55 57 59 60 61 61
36 38 40 40 42 45 48 50 52 54 53 52 53 54 54 54 56 57 60 62 63 65 66 65 66 66 65 63 64 64 65 64 64 60 63 60 57 59 59 58 61 62 62
38 41 42 43 46 49 52 53 54 54 54 55 56 58 59 62 63 65 67 68 69 70 71 71 71 72 72 69 70 70 69 69 70 70 69 64 69 65 63 60 62 63 64
42 43 44 47 50 52 52 52 53 54 55 58 60 62 63 65 66 69 71 73 73 73 73 74 74 74 75 72 74 73 71 67 68 70 71 70 68 74 72 68 66 65 66
45 46 48 48 48 50 52 53 55 56 59 63 64 65 67 70 72 73 75 76 76 75 74 74 75 77 80 78 76 73 69 73 67 70 71 72 73 73 71 71 72 68 68
45 45 45 47 50 52 53 54 56 61 65 67 68 70 73 75 76 76 76 76 76 78 79 82 81 79 79 80 79 78 76 73 70 70 72 70 72 72 72 70 73 72 72

GFSSE_500_spd_015.txt.gz
Wind_Speed
26 24 24 24 26 29 32 31 28 26 23 20 17 16 17 14 15 19 22 24 24 24 25 24 25 23 21 23 22 24 27 25 22 24 24 23 22 21 26 27 30 34 37
27 27 27 29 30 28 25 25 23 20 17 15 15 17 16 16 17 19 19 21 21 22 21 22 22 21 21 21 23 25 28 29 27 27 25 26 24 19 23 27 29 33 23
25 27 26 24 21 22 21 18 16 12 14 16 16 17 16 16 15 15 16 18 17 17 18 19 19 19 18 20 22 22 25 30 28 29 26 25 26 24 23 24 28 34 41
22 18 17 18 16 14 12 11 13 13 12 12 12 14 16 16 16 15 13 13 15 17 18 18 17 17 19 22 21 20 19 25 29 28 26 25 27 24 23 26 27 32 38
13 14 13 12 12 12 11 10 10 10 11 12 13 14 14 12 12 11 11 11 13 15 16 15 15 16 17 17 18 19 17 18 23 27 28 28 27 25 27 26 25 29 39
11 9 11 10 9 9 9 9 8 9 9 9 10 12 13 13 11 10 11 11 12 13 13 13 14 14 13 12 12 14 14 16 19 22 26 29 27 28 31 31 28 29 34
5 4 4 6 9 9 9 8 7 8 7 6 8 9 10 11 11 10 10 11 11 12 12 11 11 11 12 11 11 10 10 10 12 16 20 24 27 26 30 32 30 32 34
4 6 6 7 7 7 8 7 5 5 4 6 7 8 9 9 9 10 10 12 12 12 13 14 14 14 14 14 14 14 14 13 12 13 13 17 19 23 26 30 32 32 33
6 6 6 5 4 4 5 5 5 6 7 8 10 12 12 13 12 12 12 12 12 12 13 13 14 15 17 17 18 17 17 17 17 16 16 13 16 17 21 23 27 32 36
5 4 3 1 2 4 6 7 8 10 11 13 15 16 16 18 18 16 16 16 17 17 17 17 17 17 17 18 20 21 21 20 20 20 21 18 18 19 19 21 21 20 26
1 2 5 7 10 11 12 14 15 17 18 18 18 19 20 20 21 21 23 24 26 26 27 26 25 24 23 21 20 20 22 23 25 24 21 22 23 23 23 23 24 23 22
8 10 12 13 14 15 16 16 17 18 19 20 21 23 24 24 25 27 27 29 30 31 32 31 31 30 29 29 28 28 27 25 25 27 26 27 25 24 25 26 27 26 26
11 13 14 16 16 18 19 20 20 20 22 24 26 26 27 28 29 31 32 32 32 32 34 33 33 33 33 33 32 30 30 30 30 30 29 30 31 31 29 28 27 27 29
12 13 16 17 19 20 22 22 24 25 27 29 31 31 31 30 31 33 34 35 36 37 37 38 38 37 37 36 35 35 34 33 34 34 34 33 34 35 36 34 32 30 30
14 16 18 19 22 24 27 28 29 30 32 33 33 32 32 33 34 35 39 40 40 39 40 39 39 39 39 40 40 40 40 39 39 39 40 35 37 37 38 39 39 37 35
17 20 22 24 26 28 31 33 33 33 34 35 35 35 36 38 39 39 42 40 41 41 40 38 39 39 40 40 40 40 41 42 43 43 45 45 44 43 42 42 42 42 41
20 23 27 29 29 32 33 34 35 36 38 39 38 38 40 41 40 42 41 40 38 38 38 39 39 39 40 41 41 41 42 43 45 45 45 47 44 45 46 46 46 46 46
24 27 30 31 32 33 35 36 37 39 40 41 42 44 44 46 46 45 45 46 45 45 44 44 45 46 46 46 46 46 47 47 48 48 48 49 50 49 45 48 49 50 50
29 31 34 35 36 38 39 40 42 44 46 47 48 49 50 51 50 50 51 52 52 52 52 53 54 53 52 52 52 54 53 54 56 55 53 53 52 53 54 48 49 52 52
31 35 37 39 41 42 45 45 47 49 52 52 53 53 54 53 52 54 55 56 57 57 58 58 60 60 62 64 63 62 62 63 61 61 63 61 59 58 56 61 53 53 55
35 38 41 42 42 46 48 49 51 54 56 56 57 57 56 55 55 56 59 60 61 62 63 64 66 67 67 68 69 68 69 68 67 67 65 65 67 67 62 59 64 60 56
39 41 43 45 46 49 50 51 54 56 58 58 58 59 60 58 59 62 64 66 66 67 69 71 72 72 71 72 73 73 73 72 72 73 73 68 66 67 70 68 64 63 62
42 43 46 47 48 50 52 54 57 58 58 58 59 59 59 61 64 67 68 68 70 72 74 74 75 74 74 73 72 73 73 74 72 71 74 75 74 70 61 69 72 67 64
42 45 47 50 51 52 53 56 55 56 58 58 60 61 62 66 69 70 71 72 73 74 74 75 75 76 76 75 75 75 76 74 72 74 68 73 75 74 78 66 69 73 71
45 47 51 52 52 51 52 54 56 57 58 60 63 65 68 70 71 72 73 73 74 75 77 79 79 78 78 79 79 79 79 76 74 75 73 70 68 73 77 79 75 70 75
47 49 48 48 48 52 54 56 57 58 60 63 66 69 71 72 73 73 75 76 78 79 78 78 77 77 77 79 81 82 81 80 80 79 80 78 76 74 74 77 82 80 74

GFSSE_500_spd_018.txt.gz
Wind_Speed
25 23 25 26 26 25 24 22 22 20 17 14 12 11 13 13 12 13 15 15 16 18 20 21 18 19 20 19 20 23 26 28 29 30 31 33 34 27 29 33 31 24 28
19 23 23 24 24 22 20 19 14 12 9 10 11 10 10 11 12 13 13 13 13 14 15 16 17 21 20 20 19 19 20 23 31 33 31 32 35 35 32 28 30 30 31
27 24 24 19 16 14 12 9 7 7 6 8 10 12 13 14 14 13 14 14 14 14 14 14 14 14 14 15 16 18 19 20 22 31 34 32 31 31 32 31 30 32 32
20 18 13 10 8 8 7 6 5 5 8 8 9 10 11 10 9 9 10 12 13 15 15 15 15 15 14 15 17 17 17 16 17 21 31 33 32 31 42 29 28 28 30
12 9 6 7 7 6 5 3 4 4 4 5 7 8 11 11 11 11 10 10 10 11 12 12 12 13 14 14 15 15 15 14 14 16 21 26 35 30 44 28 25 27 30
5 3 3 4 3 1 1 1 2 3 5 5 6 8 8 8 9 9 10 10 11 12 13 12 12 12 11 11 11 12 11 11 12 15 15 19 29 30 30 23 28 31 29
2 2 2 3 5 7 9 8 7 6 5 5 5 7 8 8 9 9 10 10 10 11 12 13 14 13 14 12 11 11 13 13 13 13 13 14 20 22 26 24 27 28 30
6 6 5 4 5 7 7 7 6 5 6 8 9 10 10 10 10 11 10 10 10 11 11 11 12 14 15 16 17 17 17 16 16 14 15 11 12 16 21 20 22 25 27
8 6 5 6 5 5 5 6 8 9 10 11 12 13 14 15 15 15 15 15 15 16 16 16 18 18 18 18 19 20 21 21 21 19 15 15 16 16 15 17 18 19 20
5 3 2 4 5 7 8 10 12 13 14 15 16 16 17 18 19 19 20 19 21 24 24 24 24 24 23 22 22 21 22 22 23 23 20 20 19 20 21 19 20 18 17
1 5 8 9 11 10 13 14 14 16 16 18 19 21 21 23 23 20 25 24 25 27 27 26 27 27 26 27 27 26 26 24 25 25 21 23 25 23 21 23 24 24 23
6 8 9 10 11 14 15 17 19 20 21 21 21 23 25 26 25 27 25 27 27 28 29 28 29 30 29 28 27 26 29 29 28 28 25 24 28 27 27 26 26 26 26
8 9 9 12 15 17 18 20 21 23 24 24 25 27 28 27 27 28 29 30 30 31 35 36 36 34 35 34 33 32 30 30 31 31 29 25 29 30 31 31 31 30 29
7 10 11 15 16 21 23 24 25 26 27 28 28 29 30 30 30 32 34 37 39 39 40 40 39 39 38 35 34 36 35 35 35 35 35 30 32 32 33 33 34 35 35
13 14 16 19 22 25 25 28 30 31 32 31 31 32 34 34 34 36 38 39 39 41 41 38 38 37 35 34 33 33 34 35 36 37 37 35 35 38 37 37 37 37 37
17 18 22 34 17 26 28 30 33 34 35 36 36 36 35 36 37 40 40 40 40 38 37 36 36 36 36 36 35 34 34 35 37 37 39 38 37 38 41 42 41 41 41
21 23 20 20 34 31 32 33 36 36 39 41 42 41 41 42 43 43 43 41 40 40 41 41 40 39 39 40 41 42 44 43 41 41 41 42 41 42 42 43 45 44 43
21 19 32 32 32 33 37 38 38 41 44 46 47 48 47 45 46 46 47 46 45 46 48 50 50 49 49 50 50 51 50 49 50 50 48 46 49 48 44 46 48 49 49
27 28 33 38 39 41 40 40 43 47 48 50 52 54 53 52 51 51 50 50 49 50 52 54 56 56 58 58 57 57 58 59 59 59 59 57 55 55 57 54 49 53 54
28 33 37 40 40 42 46 45 49 51 52 53 54 57 55 56 54 55 55 54 54 55 57 59 60 61 62 63 64 64 64 65 66 66 66 66 65 64 63 62 62 58 55
32 35 39 41 45 46 49 51 52 54 56 58 59 59 57 59 57 58 58 59 60 63 64 66 66 65 66 68 68 68 67 67 67 68 69 71 71 69 69 68 67 69 66
36 39 42 44 47 48 51 53 54 56 58 58 58 59 60 61 60 60 61 65 66 67 69 70 70 70 70 71 72 73 73 72 71 70 70 70 71 73 74 74 73 71 73
40 43 45 47 47 49 53 56 55 55 56 57 59 61 63 62 63 65 69 70 70 72 73 73 75 75 76 74 75 76 76 76 76 73 70 70 68 59 64 60 77 75 69
43 45 46 49 51 51 52 53 53 53 57 60 61 62 63 65 68 71 72 73 73 75 75 77 76 75 76 76 75 74 74 76 77 77 72 69 67 71 60 57 62 70 77
43 45 48 50 53 53 51 52 54 57 58 60 62 64 66 68 72 74 76 77 77 79 80 81 81 80 79 78 77 78 77 78 79 79 76 74 70 65 67 57 59 48 71
44 45 48 49 49 53 55 52 53 58 60 61 64 67 70 74 75 76 79 80 80 79 77 79 82 85 83 82 81 82 82 82 82 83 83 81 79 78 75 72 66 66 65

GFSSE_500_spd_021.txt.gz
Wind_Speed
23 24 20 22 21 23 25 25 21 19 16 13 12 13 12 11 11 13 13 13 13 14 15 16 17 19 20 21 19 19 21 23 26 29 31 32 30 29 27 27 22 23 22
20 19 24 23 23 19 15 13 11 8 7 7 6 7 8 9 10 10 9 9 10 10 11 12 13 14 15 15 17 18 15 16 20 23 26 33 35 33 32 24 26 23 25
23 23 22 17 12 10 7 6 4 2 2 3 4 5 7 8 8 7 7 7 8 9 10 10 11 12 13 13 13 13 15 17 18 21 23 24 30 37 34 30 28 30 26
21 17 13 12 9 9 7 4 1 0 1 3 6 7 9 10 10 9 9 9 9 10 9 10 10 9 9 10 12 14 15 15 15 15 17 20 26 32 35 35 34 28 29
12 13 10 8 9 8 7 5 2 0 4 5 5 4 5 6 7 8 8 8 8 8 9 10 10 10 9 8 8 9 10 12 13 14 15 17 20 29 35 29 14 32 28
12 9 7 5 2 2 2 3 5 6 4 2 1 3 5 6 7 7 7 8 8 9 11 11 12 12 12 12 10 9 10 11 11 11 13 17 20 22 30 37 33 29 21
8 7 4 6 7 8 8 7 5 3 2 3 5 6 8 8 9 9 9 9 10 10 10 11 11 12 14 15 15 15 15 16 15 14 14 15 18 17 22 24 22 25 16
7 7 8 6 6 6 5 2 2 4 6 7 9 10 11 11 12 12 13 14 14 14 15 15 15 15 17 16 17 18 19 19 20 17 17 18 17 18 19 17 16 17 19
10 9 7 4 3 3 3 6 7 10 11 12 12 12 13 13 16 18 17 19 19 20 21 22 24 23 23 22 20 19 21 21 23 21 18 19 21 21 21 19 19 16 15
7 5 3 1 2 4 8 9 11 14 15 17 17 16 18 17 20 23 22 21 21 22 22 23 24 22 23 24 24 24 23 22 26 22 20 22 24 23 21 22 19 19 19
3 2 3 5 7 9 10 12 13 16 17 19 20 20 21 21 23 23 25 24 24 23 23 24 25 26 26 26 24 24 25 24 27 29 25 24 27 28 26 25 24 22 21
2 1 6 6 6 10 12 14 15 18 20 22 24 26 25 25 24 22 23 24 25 27 29 31 32 32 32 31 29 28 28 27 27 27 25 26 28 29 30 30 29 28 27
3 5 9 10 11 12 13 17 19 21 21 23 26 27 27 27 28 29 29 29 31 33 34 34 34 35 34 32 33 32 29 29 29 29 29 28 28 29 29 29 30 32 33
7 8 14 14 14 18 20 23 22 24 26 27 27 29 31 32 32 32 33 35 36 36 37 37 38 37 33 31 29 29 31 30 28 27 27 27 27 31 32 32 32 33 32
12 14 14 19 21 19 22 24 26 28 31 32 31 33 33 34 35 35 37 38 39 39 39 38 37 35 35 35 34 31 29 31 32 31 30 29 30 30 33 34 35 35 36
16 18 17 25 8 22 22 26 30 33 35 34 34 38 38 37 40 40 41 40 38 37 37 36 36 35 34 36 36 36 35 34 34 35 36 38 38 37 37 37 38 38 37
21 20 26 24 29 20 30 31 34 32 35 37 44 43 43 42 45 45 45 43 41 41 41 41 41 41 42 43 42 42 43 43 43 41 41 43 42 41 41 42 43 43 43
22 25 29 34 31 35 35 36 40 42 42 47 48 49 50 47 46 47 46 47 46 46 46 46 47 48 51 53 52 52 51 51 50 49 50 50 49 49 50 49 47 45 46
25 27 30 32 35 37 34 42 44 46 49 51 53 55 56 55 53 49 50 52 52 52 53 53 54 55 56 58 59 58 56 56 55 55 56 57 57 58 56 54 55 54 52
29 30 35 37 40 41 45 46 47 50 50 53 57 56 54 54 53 55 58 59 59 58 57 59 60 61 63 63 62 62 62 61 61 62 63 64 64 64 63 63 62 59 60
33 36 36 39 42 45 48 49 51 52 55 57 58 57 57 57 58 57 57 59 62 62 63 65 67 68 69 71 73 72 71 70 69 70 70 70 71 72 71 69 68 68 65
35 38 39 42 45 48 49 50 52 54 56 54 54 56 58 60 60 62 63 64 65 68 70 72 73 74 75 77 80 80 79 77 76 74 73 73 74 76 77 78 79 77 75
39 41 44 46 47 49 51 51 52 51 50 52 54 56 59 61 61 64 67 69 73 76 78 80 80 80 79 79 81 82 82 83 82 78 74 74 75 75 75 76 77 79 79
42 44 45 47 46 47 49 50 50 49 51 53 55 58 60 63 67 70 74 78 79 81 82 82 83 84 84 84 81 82 83 84 84 81 78 76 74 74 75 74 75 74 73
41 43 46 48 50 50 47 46 47 49 52 54 57 60 64 68 73 77 80 82 82 83 83 83 84 84 84 84 84 83 84 86 92 90 82 78 77 78 78 77 76 74 71
41 41 42 44 47 51 51 52 52 51 53 56 60 66 72 76 79 82 84 84 84 82 83 83 83 84 84 84 86 89 92 91 92 96 94 88 84 82 82 83 80 77 77

GFSSE_500_spd_024.txt.gz
Wind_Speed
19 24 21 18 21 22 23 23 20 19 18 12 9 9 10 11 11 11 11 11 10 10 12 13 14 15 17 18 20 21 20 20 21 24 27 29 28 32 30 30 32 29 25
24 22 21 22 20 19 17 16 14 10 7 4 4 6 7 7 7 7 6 6 8 8 9 11 12 12 13 16 17 15 17 18 17 18 20 22 22 26 28 28 33 30 24
24 25 22 19 15 13 12 9 8 5 3 3 2 6 7 9 10 9 9 9 8 8 9 10 11 11 11 12 13 14 16 18 21 22 22 21 23 25 27 25 28 31 30
24 22 17 15 14 11 11 9 6 4 1 4 4 5 5 5 5 5 4 4 5 6 7 7 8 10 10 11 11 12 14 15 17 16 17 19 22 23 24 22 22 24 12
21 15 15 11 10 10 7 6 4 2 5 3 1 1 3 5 5 6 6 7 7 9 9 11 11 11 11 12 12 12 13 14 15 14 14 17 20 23 25 21 20 22 32
14 13 9 6 2 3 4 5 6 5 3 2 2 5 6 8 8 8 9 10 10 11 11 13 13 13 13 14 16 17 17 16 16 17 17 16 18 18 21 25 23 22 24
12 9 3 6 7 6 6 6 4 3 3 4 5 7 10 11 11 12 14 15 15 15 16 16 16 16 15 15 17 19 20 21 20 20 20 19 18 20 18 19 22 19 20
8 7 9 9 7 6 3 1 3 5 6 7 10 12 14 15 15 15 17 18 19 19 21 21 22 22 23 23 23 22 22 23 23 22 22 21 23 20 21 20 18 17 18
11 11 10 7 4 3 4 6 7 9 11 12 13 15 17 18 20 20 21 23 23 23 23 23 24 24 24 23 24 25 25 26 27 24 23 23 24 25 23 23 22 21 18
10 8 7 5 5 7 7 9 10 11 13 15 18 19 21 22 24 25 27 27 24 24 24 24 24 23 23 23 24 24 24 25 27 28 26 26 26 26 27 27 25 24 22
7 7 6 7 10 10 8 9 11 13 17 18 19 20 21 23 24 26 26 26 25 26 27 27 28 29 30 30 28 28 28 28 27 26 26 28 29 30 30 29 29 27 25
6 9 10 10 11 8 9 10 13 17 19 20 20 21 22 23 24 25 26 27 28 29 31 32 32 32 33 34 33 31 30 30 30 29 29 28 28 29 31 31 31 32 31
9 13 12 10 13 11 12 15 18 20 23 24 25 24 25 24 26 28 29 31 33 35 36 37 36 36 36 35 35 32 30 30 29 28 29 30 29 30 31 31 32 32 33
9 12 15 15 12 15 15 16 17 22 24 26 29 29 28 30 32 33 34 35 36 37 37 36 36 36 36 35 34 32 33 33 32 31 29 30 30 31 32 31 32 34 35
11 14 21 17 18 16 18 16 24 26 28 26 27 27 27 35 36 37 38 39 39 37 35 35 34 33 32 34 35 35 33 32 35 36 35 34 34 33 34 34 34 34 35
12 14 15 17 18 10 26 27 31 31 32 35 32 32 38 39 40 41 42 42 40 37 35 35 36 35 35 35 34 38 38 38 38 40 41 41 40 41 41 41 40 40 40
17 17 20 20 17 22 23 27 31 34 39 38 39 41 42 42 42 42 41 41 41 41 40 42 42 43 43 43 43 43 45 47 47 46 46 46 46 46 46 45 45 45 46
21 23 24 25 24 27 32 31 33 39 42 41 46 46 47 46 42 39 39 41 44 46 46 45 46 46 47 48 48 49 51 53 54 55 55 54 53 52 51 52 51 49 49
24 29 30 29 32 34 37 39 41 42 42 47 50 51 51 50 48 47 45 46 46 47 49 50 52 53 54 54 54 54 55 56 58 59 60 60 59 59 60 58 56 57 56
24 26 31 35 36 40 44 47 42 43 49 50 51 52 51 50 50 51 49 50 51 52 52 53 56 59 61 63 63 63 64 66 67 68 69 69 70 70 68 66 65 64 63
30 34 35 41 46 47 49 49 48 53 53 53 53 52 51 52 52 54 56 56 56 58 60 64 66 68 70 71 71 71 72 74 74 75 75 76 75 76 77 76 75 73 71
31 36 42 45 48 50 52 52 54 54 55 54 53 54 56 57 58 59 60 63 66 70 73 75 77 77 79 79 79 79 78 76 77 79 80 80 80 81 82 82 82 81 81
33 37 41 45 48 49 51 52 53 52 52 51 52 54 56 58 60 63 67 72 75 79 81 83 84 85 86 84 85 85 84 83 82 81 80 82 82 82 83 83 83 84 83
36 37 40 44 48 51 52 52 51 51 51 53 54 55 59 61 64 69 74 77 80 83 86 87 88 87 87 86 85 87 88 87 86 81 82 82 80 80 81 82 82 81 82
38 40 44 48 49 50 48 45 45 46 48 49 52 56 60 65 70 75 79 82 84 85 85 85 84 83 84 85 84 84 84 86 88 86 80 82 83 83 85 85 85 85 83
44 46 52 51 48 45 44 43 42 44 49 54 59 64 69 74 78 82 85 87 88 89 87 85 83 83 85 86 87 88 88 88 89 91 90 86 88 87 91 92 92 92 89

GFSSE_500_spd_027.txt.gz
Wind_Speed
24 26 24 25 24 24 25 23 20 17 16 12 9 9 10 10 11 11 12 11 11 11 12 13 14 15 15 15 17 18 17 16 18 19 16 16 20 22 24 24 26 30 34
26 25 26 28 25 22 21 17 13 11 9 6 4 5 6 9 10 11 10 9 10 9 10 11 12 14 16 17 17 18 17 17 17 16 17 18 20 21 22 19 22 24 23
30 29 31 26 23 18 16 10 9 7 4 2 2 3 4 5 5 4 5 5 5 7 7 9 11 13 14 15 17 17 18 18 17 18 16 18 19 20 20 20 17 19 22
32 31 26 22 18 15 11 10 7 5 1 3 2 2 3 4 5 6 7 8 9 10 11 12 14 14 14 14 14 16 16 17 18 18 17 17 17 20 20 19 17 16 17
34 30 20 17 13 9 6 4 4 3 5 4 5 6 7 8 8 9 9 10 12 13 15 16 17 16 16 17 16 16 17 18 18 18 19 20 20 19 18 17 16 16 17
32 21 17 10 5 3 5 6 5 5 5 7 9 10 11 12 12 13 14 15 17 18 19 19 20 21 20 21 20 19 19 19 21 20 21 22 22 22 22 18 14 16 15
21 17 9 6 7 8 9 7 6 7 9 10 12 14 15 16 17 18 19 19 20 21 23 24 25 25 25 26 26 26 26 24 25 23 23 23 24 24 22 20 17 16 14
15 10 10 11 10 8 7 7 8 9 11 12 15 16 18 19 20 21 22 22 24 25 27 27 28 28 29 29 30 30 31 28 27 29 26 25 27 27 24 22 21 17 16
12 12 13 11 10 8 8 10 10 11 12 15 16 17 19 20 22 25 26 27 29 30 30 28 27 27 27 27 27 28 29 29 28 29 29 29 28 29 27 25 25 24 20
12 13 11 11 9 9 10 11 12 13 14 16 18 20 22 23 25 25 26 27 27 28 28 28 28 28 29 29 30 31 31 32 31 30 29 28 30 31 32 29 27 26 26
12 11 11 11 10 11 12 13 14 15 18 21 22 22 22 22 23 23 25 26 28 28 29 31 32 34 35 34 33 32 32 32 30 30 30 30 29 30 32 33 33 32 29
10 10 11 11 11 12 12 14 17 18 21 22 22 24 24 24 24 25 26 28 29 30 32 34 35 35 35 35 36 36 34 32 29 28 29 30 31 31 33 32 33 34 34
10 12 9 11 12 11 16 19 20 20 22 23 24 27 27 28 26 27 31 31 31 31 33 34 35 33 33 33 34 35 33 33 32 31 31 30 29 30 31 34 35 35 34
11 10 9 12 13 14 19 23 24 21 22 28 27 27 29 27 26 34 34 34 33 34 35 34 33 31 30 31 32 33 33 33 34 35 34 32 32 32 33 33 34 34 35
10 12 15 13 18 21 21 16 22 23 28 29 28 31 30 31 34 34 37 37 37 34 33 33 32 32 32 32 33 33 33 34 35 36 36 36 37 39 38 37 37 37 36
10 13 19 17 16 20 15 20 25 29 33 30 33 35 36 38 37 37 39 40 39 36 35 34 34 33 33 34 34 36 36 38 39 41 42 43 43 43 44 46 45 44 43
16 16 20 20 20 16 21 24 27 30 35 39 40 37 40 44 42 41 40 39 39 40 40 38 37 38 39 38 39 39 40 42 44 45 46 47 48 49 50 49 49 49 50
17 20 20 22 21 26 29 34 38 39 42 38 42 44 46 47 45 43 40 39 39 40 40 42 42 41 42 43 43 45 48 50 52 53 54 54 53 53 52 52 52 53 53
17 20 19 22 26 21 37 42 43 44 44 45 44 49 50 50 48 45 42 42 42 43 42 43 44 47 50 52 54 56 57 58 60 60 61 61 61 62 62 61 61 60 60
21 19 23 27 29 38 32 44 46 48 42 43 49 54 53 51 49 48 47 46 47 49 50 53 56 58 61 62 62 62 63 66 67 66 67 67 69 70 70 69 69 69 68
22 24 27 30 39 43 47 45 49 48 53 53 55 55 53 50 49 48 50 52 55 58 60 62 64 67 69 71 71 72 72 73 75 75 74 74 75 75 76 77 78 77 76
26 27 34 39 43 48 50 52 52 54 56 57 56 54 52 51 52 54 57 61 65 68 71 74 76 78 79 81 81 81 81 79 79 79 80 81 81 81 82 82 83 83 83
25 31 37 41 45 49 52 54 56 55 55 54 52 50 50 53 57 61 65 69 72 76 79 82 84 86 86 87 88 89 89 88 88 83 80 81 81 83 85 86 86 87 87
32 40 44 44 48 52 54 59 58 55 53 52 50 53 56 60 64 67 71 74 77 81 83 86 87 88 89 88 86 86 85 87 88 92 89 84 83 85 86 87 87 88 88
39 42 45 46 51 54 54 48 47 46 47 50 52 55 59 63 68 71 75 79 83 86 88 89 90 90 89 87 88 87 88 89 91 92 88 88 89 90 92 91 91 90 89
38 37 45 48 54 48 44 43 43 45 48 52 56 61 65 68 73 78 82 86 89 90 89 89 88 88 88 89 90 92 93 93 93 95 96 93 97 95 97 99 98 96 94

GFSSE_500_spd_030.txt.gz
Wind_Speed
20 21 26 26 27 29 34 28 20 13 11 8 5 7 9 9 9 10 9 9 9 8 8 9 11 12 13 14 16 15 15 14 12 13 13 14 16 19 21 23 19 21 24
21 24 27 29 30 33 29 20 12 9 6 2 3 5 4 5 6 7 7 8 9 10 10 11 12 13 14 14 14 14 15 16 14 13 16 17 17 18 20 21 20 20 21
22 25 30 31 30 28 20 13 9 7 4 1 2 1 1 3 5 6 8 10 11 11 12 13 15 16 17 17 16 15 15 14 16 14 14 15 15 15 17 17 17 17 17
24 28 31 28 26 21 14 10 8 6 3 3 4 3 5 6 8 9 10 12 13 14 15 17 18 18 19 18 19 18 18 17 16 17 18 17 17 16 16 16 13 15 13
28 32 30 25 19 14 10 8 6 5 4 5 5 7 9 11 13 15 15 16 17 18 19 20 21 22 23 23 22 20 20 21 20 20 21 21 22 21 18 16 15 13 15
32 31 24 19 14 9 6 5 6 6 7 7 10 11 13 15 17 18 19 21 22 23 24 25 25 27 27 28 27 26 25 24 27 25 24 24 24 25 24 19 16 14 13
24 22 18 14 9 6 7 7 7 8 9 11 13 14 15 18 20 21 22 23 24 24 26 27 29 31 31 30 29 28 28 28 29 29 28 27 27 27 26 24 19 15 14
17 16 14 10 7 8 8 8 9 10 11 13 14 16 19 21 22 23 25 27 28 28 29 30 30 29 29 28 27 27 27 27 27 28 28 28 29 30 29 27 24 21 18
17 14 9 8 9 9 9 10 11 12 13 15 17 18 20 23 25 27 28 28 25 24 25 25 26 26 26 27 28 29 29 29 30 31 30 30 28 28 30 31 28 25 22
15 9 8 10 10 11 12 12 12 15 17 16 18 21 24 27 27 27 28 27 27 28 28 29 28 30 30 30 32 33 33 31 29 30 30 31 30 28 28 29 30 30 27
7 9 9 10 11 13 13 14 15 17 17 18 20 21 22 25 27 29 28 28 28 30 31 30 30 32 33 34 34 34 33 31 31 29 28 27 28 29 30 30 29 30 31
6 5 6 9 10 13 14 16 18 21 19 19 20 22 25 26 28 30 30 28 30 34 34 34 34 34 34 34 34 33 33 32 30 28 27 26 26 27 27 29 31 31 31
4 7 9 10 11 13 15 18 20 23 22 23 23 26 29 28 28 29 30 32 37 35 36 36 36 35 33 32 31 31 31 32 32 31 29 29 30 29 28 28 29 30 31
8 6 7 10 13 16 19 19 21 25 26 26 27 28 27 30 33 32 35 36 37 37 36 36 35 32 31 30 29 30 32 32 33 34 34 34 33 33 33 33 32 31 32
8 7 10 16 18 19 21 21 25 18 22 27 30 29 31 33 34 37 42 41 40 38 37 35 34 32 32 31 30 30 30 31 31 32 33 35 36 37 37 37 37 38 37
9 14 17 20 21 21 23 23 19 21 24 29 32 32 30 36 35 40 40 41 41 41 39 36 35 33 33 33 33 34 34 34 35 36 36 36 37 39 41 42 42 42 42
14 17 21 22 23 23 20 22 24 21 25 31 33 36 42 44 41 42 42 42 41 40 39 39 38 37 37 35 35 37 38 40 42 45 46 46 46 46 46 46 47 47 48
15 19 23 21 21 21 25 22 25 24 38 35 38 47 47 44 47 48 46 43 41 40 39 39 39 39 41 42 45 47 49 51 53 54 54 54 55 55 55 54 53 54 53
18 19 21 20 26 20 24 34 35 41 34 40 51 50 49 51 53 51 47 43 40 38 39 42 45 47 49 52 55 56 58 60 61 62 63 63 63 63 64 63 62 61 60
15 17 19 24 27 29 32 26 46 45 50 51 52 54 55 54 54 50 45 42 44 46 48 52 55 58 59 61 64 65 67 70 71 72 72 72 72 71 71 70 70 69 68
20 22 23 16 24 35 40 45 46 51 53 54 56 56 52 50 46 43 46 50 54 57 60 62 65 68 70 73 75 76 78 79 80 79 80 80 81 80 79 78 76 75 75
17 22 21 32 38 43 48 51 52 53 57 56 54 51 47 44 46 50 54 58 62 65 68 71 74 76 79 81 83 84 84 83 81 81 81 82 83 83 83 84 83 82 80
23 31 35 39 43 47 48 51 52 58 55 52 49 45 45 49 54 59 63 66 69 70 72 75 78 81 83 84 87 90 92 93 95 92 88 86 84 82 83 84 85 85 85
33 38 39 41 45 48 50 55 58 57 52 50 49 50 53 57 59 62 65 68 71 75 79 82 83 84 87 91 92 94 96 97 98 99 97 97 91 87 90 89 88 87 87
35 38 42 45 46 42 50 54 58 55 48 48 51 53 56 58 61 66 69 74 78 81 83 85 87 91 95 98 97 96 97 96 96 96 96 95 96 95 93 96 96 95 95
36 44 38 38 53 53 50 51 50 47 47 49 52 56 59 63 67 71 74 77 81 85 88 91 94 98 99 97 97 100 96 93 87 82 81 81 81 76 77 82 88 92 95

GFSSE_500_spd_033.txt.gz
Wind_Speed
19 20 20 22 21 25 26 28 27 20 11 4 1 5 4 5 6 6 5 6 7 8 10 10 11 12 11 12 13 14 14 14 13 12 13 14 15 16 17 18 19 18 19
20 19 20 23 25 24 24 24 20 11 5 3 5 4 2 3 4 6 7 9 10 12 12 13 14 15 15 14 14 14 14 14 14 13 13 12 13 13 15 17 19 18 20
19 11 17 21 24 22 22 19 14 8 6 6 6 4 2 3 6 8 10 11 13 15 16 18 19 19 18 18 17 16 16 17 17 18 17 16 14 14 14 15 15 15 17
12 14 21 24 22 20 17 14 10 9 7 7 6 5 4 7 9 11 13 15 16 18 20 21 21 21 21 22 21 20 19 19 19 20 21 21 20 19 17 16 16 15 14
12 18 21 22 18 16 14 11 9 9 8 8 7 7 9 10 13 15 17 19 20 21 23 24 25 25 26 26 26 25 23 23 22 22 23 24 23 23 22 19 18 17 15
11 16 17 15 14 13 10 8 7 8 9 8 8 10 11 14 17 19 21 22 23 25 26 27 27 28 28 28 26 25 24 23 23 22 23 24 25 26 25 25 21 19 15
12 13 13 10 12 10 9 8 8 9 8 9 10 12 14 18 20 22 24 25 27 29 29 29 29 28 27 25 24 22 22 21 22 23 22 23 23 24 27 27 26 23 20
11 10 9 11 11 9 9 8 6 8 10 10 12 15 18 20 22 25 26 27 28 28 27 26 26 25 24 24 25 25 26 26 25 26 26 26 26 25 25 27 28 27 24
10 10 12 13 11 10 8 7 9 10 12 14 16 18 19 22 24 25 26 27 27 28 28 28 27 28 29 27 27 27 28 30 30 30 28 26 27 26 26 26 25 27 28
11 12 11 10 11 9 8 9 11 13 14 17 17 20 22 24 23 24 25 27 29 30 31 31 31 32 33 33 33 32 30 30 31 31 30 28 28 28 26 27 27 26 26
8 10 11 10 7 7 9 11 13 15 16 18 19 22 21 22 26 29 29 28 29 30 31 34 36 36 34 35 36 36 35 32 29 29 30 29 27 26 25 25 27 29 28
7 7 6 6 6 9 12 13 15 16 19 20 21 23 24 23 27 30 31 32 30 32 36 38 38 37 34 35 36 36 36 34 32 30 28 27 27 25 25 24 25 26 28
4 4 5 7 8 11 13 14 17 19 20 23 24 24 25 27 28 29 33 35 35 39 41 39 38 36 35 33 32 33 34 33 33 32 31 29 28 28 27 27 27 25 26
5 5 6 9 12 13 16 19 21 25 26 28 23 23 26 28 31 32 31 37 38 42 43 41 39 38 37 34 32 32 32 32 30 30 31 31 31 31 30 31 31 31 29
4 5 8 11 13 16 20 22 23 25 28 29 25 24 28 30 30 33 40 41 39 41 44 43 42 40 37 35 33 32 32 33 32 31 31 31 31 32 33 33 34 35 36
4 7 11 15 18 21 22 24 28 28 29 24 25 26 26 29 38 45 42 42 43 45 45 44 43 41 38 35 35 34 35 35 35 36 37 37 38 39 39 40 39 40 41
10 10 17 19 21 25 28 30 30 29 24 27 28 30 30 43 44 47 48 46 45 44 42 41 40 39 37 36 37 39 41 43 44 46 47 48 48 49 49 49 49 48 48
12 14 18 21 23 26 31 33 29 25 23 27 35 38 42 47 47 49 50 47 44 40 38 36 37 40 42 43 46 48 51 52 54 56 56 57 58 59 59 58 57 57 56
15 20 22 23 25 28 32 28 17 28 26 41 41 48 53 54 52 51 48 44 40 36 37 41 44 46 49 52 55 58 60 62 64 66 67 68 68 68 68 68 68 67 66
17 19 19 20 21 27 27 24 32 44 39 40 47 51 56 53 49 47 44 40 39 43 46 49 53 56 58 61 64 67 69 71 72 74 75 76 76 77 78 78 77 76 76
20 21 21 21 24 28 24 47 48 46 47 50 52 56 55 48 44 41 41 44 47 52 55 58 62 64 65 67 68 70 72 73 74 76 77 79 81 84 86 86 85 84 84
17 16 26 22 32 45 49 49 49 51 52 54 59 57 48 44 43 46 49 53 57 59 61 63 64 66 68 72 75 78 80 81 81 84 86 89 91 90 90 91 92 93 92
23 24 27 35 42 43 46 48 51 50 53 61 56 54 51 51 52 54 56 57 59 62 64 67 69 73 78 81 84 88 91 93 94 96 99 101 100 99 98 97 97 96 96
25 28 33 40 40 43 46 48 45 52 57 50 49 51 53 54 55 56 58 60 63 66 70 74 79 84 86 89 91 94 95 101 105 107 109 108 104 100 100 103 104 102 99
28 31 33 39 42 42 49 47 57 52 50 51 51 53 54 56 58 60 63 65 71 75 78 82 86 90 91 93 98 97 101 106 111 106 98 90 87 86 85 88 91 93 94
32 35 37 40 44 49 49 51 50 48 50 52 53 54 56 58 60 64 67 72 76 80 84 88 91 92 93 96 98 103 106 105 91 84 79 70 63 60 61 62 66 70 71

GFSSE_500_spd_036.txt.gz
Wind_Speed
28 23 20 21 20 19 22 21 21 20 16 10 5 6 4 2 3 4 5 6 7 7 8 10 11 12 12 12 12 13 13 13 13 14 15 14 14 13 12 13 15 19 20
28 29 27 24 18 18 20 20 19 17 11 7 6 7 4 1 2 4 7 8 9 10 12 13 14 15 15 15 16 16 15 15 14 14 15 16 15 15 15 14 14 15 17
33 30 28 12 13 18 17 17 16 13 9 6 9 9 5 3 5 7 10 11 14 15 17 18 19 19 20 20 20 20 20 19 18 18 18 18 17 17 17 17 16 15 16
33 31 27 9 14 14 15 15 14 11 8 8 10 8 6 6 8 10 13 16 18 19 21 22 22 23 22 23 24 24 23 22 21 21 22 23 22 21 20 20 19 17 15
43 31 9 10 14 14 13 15 12 9 8 10 10 9 9 9 11 14 16 19 21 23 24 25 25 25 26 26 25 25 23 22 21 21 20 22 22 23 24 23 22 20 18
34 3 3 10 12 12 14 13 9 8 9 10 11 10 11 12 14 17 19 21 23 25 26 26 25 23 23 23 22 21 20 19 18 20 21 22 21 20 21 23 25 23 21
7 1 9 11 11 12 13 10 9 9 9 9 10 10 12 15 18 19 21 24 25 25 25 26 25 25 25 24 23 22 23 22 22 23 24 26 25 24 23 23 23 24 23
7 6 8 11 12 13 10 9 9 8 7 8 10 12 15 18 20 20 23 25 25 26 27 27 27 26 25 25 26 26 26 26 27 27 27 29 29 28 26 25 23 23 24
4 5 11 12 13 11 11 10 9 8 7 9 14 16 18 19 21 23 22 24 27 27 27 27 26 27 26 28 30 31 30 31 29 30 30 31 30 29 29 28 27 25 24
6 10 10 11 12 13 11 10 10 9 11 14 17 18 19 22 22 22 25 25 28 28 30 29 31 33 35 34 34 32 32 33 33 32 32 31 31 30 30 30 29 28 26
11 11 12 13 13 12 10 9 10 13 14 17 18 19 21 22 23 25 25 27 29 29 32 33 35 39 41 40 39 37 37 35 35 36 33 32 30 30 30 30 30 28 28
11 11 13 12 10 10 9 12 14 15 16 18 20 21 24 25 25 27 27 27 29 30 31 35 37 39 40 40 39 39 39 37 35 35 34 34 31 29 29 29 29 29 29
11 11 9 8 9 10 13 12 14 17 18 20 22 23 22 23 24 25 28 30 30 35 38 39 40 40 39 41 40 39 39 38 35 35 35 34 34 33 31 30 30 30 30
10 9 8 9 10 10 12 14 18 18 22 24 27 26 20 23 26 27 27 30 39 42 42 44 43 43 43 42 40 39 39 38 36 35 36 34 35 35 34 33 32 32 32
7 5 6 8 10 12 16 18 21 23 26 28 31 30 25 25 27 29 28 39 43 46 46 45 44 43 42 41 39 38 37 37 36 35 37 35 37 36 37 36 36 36 35
6 9 10 10 13 16 17 21 25 29 32 33 35 29 19 24 31 34 42 44 44 44 45 44 44 41 38 37 36 36 36 36 37 37 40 42 40 43 43 43 43 43 42
11 11 11 14 15 18 21 24 28 30 34 29 11 24 28 31 39 42 46 48 44 41 40 37 36 34 34 35 37 38 40 42 42 45 47 48 50 50 53 53 53 54 53
10 8 13 14 16 21 24 29 35 44 41 27 32 31 28 40 41 47 48 45 41 39 37 35 34 35 39 41 43 46 48 50 52 54 56 57 58 60 61 61 63 63 63
12 14 16 16 18 24 28 32 30 23 22 44 44 38 37 40 45 48 45 41 39 38 37 39 41 43 47 48 51 53 55 56 59 61 63 65 67 68 69 70 70 72 72
20 21 23 23 24 28 27 41 28 34 51 44 45 47 43 50 50 47 41 38 39 41 43 46 49 52 54 54 56 57 60 61 64 67 70 72 74 76 78 78 79 80 80
23 23 26 24 30 29 28 40 42 45 46 47 49 48 52 55 49 41 41 44 47 50 53 55 56 57 57 61 63 66 68 71 72 73 76 79 81 82 85 87 89 90 91
21 24 25 26 25 33 35 42 45 47 50 54 54 53 50 48 47 48 50 53 55 58 58 58 59 61 66 69 71 74 77 80 84 86 86 86 89 91 92 95 100 103 102
25 28 29 30 30 35 39 43 46 50 55 58 58 55 51 51 52 53 54 56 57 58 59 62 65 68 72 76 79 81 84 87 89 90 93 95 96 99 103 107 107 108 109
26 27 29 31 36 41 45 46 48 50 55 51 51 51 53 53 54 56 57 58 60 61 64 68 72 76 79 82 85 87 90 93 95 96 98 105 108 106 102 96 93 92 91
27 29 32 34 34 34 35 40 44 46 50 53 54 55 55 56 58 58 60 61 63 66 69 74 78 82 85 89 93 95 96 96 99 105 109 104 93 84 79 74 71 71 72
24 24 23 26 29 31 35 37 42 45 50 53 55 57 59 59 59 62 62 64 67 70 75 80 85 89 92 95 96 96 98 102 107 102 91 76 64 60 62 58 58 59 57

GFSSE_500_spd_039.txt.gz
Wind_Speed
34 34 34 33 29 26 28 25 23 22 18 16 11 8 8 5 3 2 1 3 4 7 9 11 13 14 14 15 15 16 16 16 16 15 15 15 14 14 14 15 14 14 15
35 36 35 33 29 32 28 23 22 20 16 12 8 10 8 5 2 2 3 5 7 9 11 13 15 16 17 18 19 19 19 19 20 20 19 18 16 15 16 16 17 16 14
36 37 35 33 33 34 24 21 18 18 13 11 9 11 7 5 5 5 7 9 11 14 15 17 19 20 20 21 21 22 23 23 22 22 22 23 20 20 20 20 20 20 19
40 42 41 38 39 25 18 16 15 15 12 11 11 11 9 7 7 9 11 13 16 18 19 21 22 22 21 20 21 21 22 22 22 22 20 26 18 22 22 23 24 22 21
42 38 40 39 32 24 15 13 14 12 12 12 13 12 10 8 9 12 14 16 19 21 22 22 22 21 19 19 19 19 18 19 20 19 18 20 20 21 21 22 24 25 23
38 36 32 25 20 16 14 13 12 12 12 12 13 11 10 10 12 14 16 19 21 23 22 22 22 22 21 20 20 20 20 20 21 21 21 21 23 23 24 24 24 25 24
43 35 31 17 15 13 13 12 11 11 11 12 12 12 10 12 15 16 19 21 23 22 22 23 22 22 21 21 23 23 23 24 25 26 27 25 28 27 27 26 26 26 26
35 27 16 12 13 11 11 12 10 11 12 11 10 11 12 15 16 19 21 23 23 23 23 23 24 25 23 23 24 26 29 29 29 29 30 29 31 31 31 30 28 28 27
23 14 8 5 10 11 12 11 10 10 10 8 9 13 16 17 20 21 24 25 25 22 24 23 25 26 27 30 33 35 35 32 30 31 34 33 33 33 33 32 32 31 30
14 6 3 10 11 11 12 9 9 8 7 8 13 16 17 19 22 24 25 25 26 25 25 26 27 30 31 35 39 42 40 35 34 32 32 35 34 35 35 33 33 33 33
10 4 10 11 10 10 10 10 9 8 10 13 16 18 20 23 23 25 26 25 25 26 27 28 30 33 37 41 43 44 41 40 39 38 36 35 36 34 34 34 33 34 33
11 11 12 8 6 7 8 9 9 11 13 15 18 22 23 25 25 28 27 25 25 26 26 30 35 39 42 46 45 43 43 42 41 41 39 38 38 38 35 33 35 34 34
6 5 4 7 8 9 10 10 11 12 14 19 23 25 27 28 30 29 29 30 27 24 33 40 42 44 43 44 43 41 41 41 40 40 41 37 39 38 39 37 35 35 35
7 6 8 11 11 11 9 10 12 15 19 24 27 27 29 30 27 31 32 22 25 33 38 43 48 45 44 44 42 41 41 39 39 38 41 37 37 38 38 37 38 36 36
6 8 8 10 9 9 10 12 15 18 23 26 27 30 33 33 35 23 20 31 36 42 45 47 46 45 43 41 39 38 37 36 35 34 37 36 36 38 38 38 38 39 39
8 10 10 9 11 13 14 17 19 23 27 29 32 34 31 26 28 28 26 40 46 45 46 47 44 41 38 36 35 34 33 34 36 37 39 43 41 40 43 44 44 44 44
9 10 11 14 15 15 16 20 25 26 31 35 46 43 32 23 28 34 34 40 44 45 42 39 39 36 35 33 34 36 38 41 42 44 44 47 50 50 49 50 51 52 53
10 11 14 14 16 17 21 23 28 33 41 39 30 31 25 40 38 41 43 43 41 40 37 37 36 36 37 39 41 43 46 47 49 51 53 53 55 58 59 60 58 59 60
13 14 16 19 19 20 24 28 38 36 35 31 43 41 44 44 41 45 49 48 47 41 38 39 40 43 44 46 46 48 51 51 53 55 58 61 62 64 65 66 68 68 69
17 19 22 20 22 24 27 35 36 37 35 46 43 42 43 47 49 51 52 49 46 45 45 47 48 50 51 52 52 52 54 57 61 63 66 67 68 70 71 72 75 78 80
20 23 25 27 25 27 31 35 40 42 42 40 43 45 48 52 48 48 50 48 46 49 49 48 50 52 53 55 57 57 59 63 69 73 74 74 76 78 80 83 86 87 88
22 24 26 29 30 30 32 33 38 43 44 44 44 47 49 49 50 52 51 53 54 53 55 56 56 56 56 60 63 67 69 71 75 79 82 85 88 88 89 89 92 95 97
23 26 29 30 31 31 32 36 38 37 38 41 43 46 49 51 54 56 57 58 57 58 59 60 61 62 64 66 69 73 77 80 83 85 87 89 92 95 98 99 101 103 105
25 28 29 29 30 31 32 32 33 35 37 40 42 45 48 51 55 58 60 61 62 62 62 62 64 67 69 72 76 80 84 88 90 91 94 97 100 102 105 106 103 101 98
28 25 24 23 22 25 28 31 34 37 40 44 47 50 53 55 56 58 61 62 62 63 63 66 68 71 76 79 84 89 93 95 97 101 104 106 106 100 93 87 77 69 66
19 18 19 21 24 27 31 34 38 41 44 48 50 53 56 59 61 62 63 64 64 65 67 69 73 78 83 87 91 95 95 97 100 104 104 97 84 66 60 57 54 53 54

GFSSE_500_spd_042.txt.gz
Wind_Speed
32 34 34 36 37 37 35 33 33 32 30 25 19 11 11 12 9 7 4 2 1 4 6 8 10 11 13 14 15 16 17 17 18 18 18 17 16 17 15 15 15 17 16
36 34 36 37 38 37 35 32 33 32 25 21 16 10 16 13 10 7 4 3 3 6 9 11 13 14 15 16 16 17 17 18 19 19 20 19 17 17 19 19 18 18 19
30 32 36 40 39 37 37 34 32 32 22 18 13 11 16 13 10 7 5 4 6 9 12 14 15 16 15 14 14 14 16 17 19 18 18 17 16 18 18 19 22 22 22
48 51 44 41 41 37 39 33 30 19 18 15 12 14 16 13 10 7 6 7 9 12 14 16 16 15 15 14 14 15 16 17 19 20 20 15 17 19 18 19 20 20 23
51 50 43 43 45 37 29 35 20 17 16 13 13 17 17 14 9 8 9 11 13 15 17 17 17 17 17 17 17 16 17 18 19 20 19 23 18 19 21 21 22 22 21
42 47 47 45 42 46 38 28 16 15 14 12 13 17 16 11 9 11 12 13 16 18 19 18 19 19 18 17 17 17 19 20 22 26 19 23 25 24 24 25 25 26 26
44 43 40 44 41 34 20 12 11 11 10 11 14 16 12 10 12 13 15 17 19 22 22 21 20 20 21 20 19 20 22 25 26 29 23 24 26 27 27 28 28 29 29
25 33 37 32 29 21 14 7 6 8 10 11 14 14 10 13 14 16 18 19 22 24 23 23 22 20 20 19 20 22 26 31 32 31 27 28 27 28 30 31 32 31 31
36 20 34 27 24 16 5 1 5 9 9 10 10 11 11 14 17 19 20 21 22 23 24 24 24 25 26 26 29 32 34 37 37 36 31 32 31 30 30 31 35 35 33
35 28 24 18 10 7 3 3 7 8 9 10 10 10 14 18 21 21 22 24 26 26 26 29 28 28 29 31 35 39 40 44 43 43 34 34 33 33 33 32 33 35 36
17 9 9 5 7 1 5 7 7 8 7 9 11 15 19 22 22 24 26 28 29 28 25 25 24 27 30 33 38 41 46 47 46 44 39 37 37 35 34 34 33 34 35
23 8 10 10 8 8 5 6 7 6 9 12 16 21 21 23 26 27 28 29 28 26 27 25 29 33 38 41 45 46 44 46 46 46 42 39 38 37 36 34 35 33 33
8 4 5 5 7 8 9 10 10 11 13 16 17 21 24 25 25 26 29 31 31 26 20 30 33 41 44 44 46 50 51 48 44 43 42 40 35 37 36 35 35 35 34
5 6 5 4 4 7 9 7 10 11 15 18 20 21 24 24 31 30 27 27 19 23 29 34 43 45 49 43 47 48 47 43 41 40 39 36 33 32 35 35 35 35 35
3 2 2 4 6 8 8 10 13 16 19 20 24 19 26 33 32 24 24 29 35 36 39 35 36 40 42 39 38 40 39 39 38 36 36 35 36 34 35 37 38 38 38
3 4 5 7 7 7 11 14 15 18 23 29 24 27 31 32 28 17 36 30 35 41 47 46 43 41 38 38 34 34 33 34 35 36 39 40 42 42 42 40 43 43 45
5 5 7 7 8 11 14 16 18 23 25 32 39 36 20 32 41 38 37 38 41 41 42 43 42 39 36 35 37 36 37 40 42 44 45 47 48 48 49 48 46 47 51
6 7 8 8 10 14 15 18 21 25 30 30 34 35 31 41 33 33 35 40 42 43 41 39 39 38 39 40 42 42 42 45 45 48 48 50 52 52 52 54 53 52 56
6 8 10 13 14 16 20 25 27 31 36 36 36 33 45 38 36 36 37 39 41 42 44 44 43 43 43 43 44 45 46 48 50 51 52 54 56 57 60 62 63 65 65
9 13 15 16 17 20 22 25 30 34 35 33 36 37 34 35 36 37 38 41 44 47 49 51 51 49 48 49 49 50 50 48 50 54 57 59 62 63 67 69 71 72 74
12 17 20 22 25 24 25 30 33 34 34 37 38 35 36 37 37 39 41 43 45 48 51 53 52 51 51 51 51 51 52 55 56 60 62 66 69 73 75 78 80 81 83
14 20 23 26 27 27 29 26 26 29 30 31 34 37 38 41 43 45 47 51 53 54 55 57 58 57 54 54 55 56 57 58 63 68 72 75 78 81 84 86 87 88 90
21 22 25 25 25 24 23 24 25 27 30 33 37 41 44 47 49 51 52 53 55 58 59 59 60 61 60 60 63 65 67 69 72 76 80 85 88 90 91 94 96 100 101
26 26 26 25 22 22 21 24 27 30 34 37 40 42 45 48 51 53 55 57 58 59 60 61 63 63 64 65 68 72 76 79 82 83 87 90 90 92 98 100 101 98 93
26 26 22 21 19 22 24 27 31 35 38 41 45 47 51 53 53 53 55 57 61 63 63 64 65 65 67 70 74 78 82 86 89 92 92 95 97 102 95 87 80 73 66
22 19 19 21 21 25 29 33 37 40 43 46 48 50 53 55 57 60 60 63 66 67 67 68 67 68 71 75 80 84 87 90 92 96 101 102 98 83 77 69 59 53 51

GFSSE_500_spd_045.txt.gz
Wind_Speed
37 44 41 39 42 38 36 36 35 34 34 30 28 25 17 13 15 13 10 9 6 5 4 5 7 9 10 11 12 12 12 13 14 15 16 15 12 15 14 16 17 18 18
36 29 33 39 39 35 35 36 36 35 34 29 29 22 16 17 18 15 11 9 7 6 7 8 10 12 12 12 10 10 10 11 12 12 12 10 14 12 14 15 16 19 20
37 33 29 27 36 34 38 39 37 36 34 28 33 19 17 22 19 15 11 8 8 8 9 11 12 11 11 11 12 13 13 11 11 12 14 12 13 13 13 15 14 16 19
41 41 38 42 46 44 44 39 37 36 31 30 20 18 19 23 19 14 11 9 9 9 11 12 11 10 12 13 12 12 12 12 14 15 16 16 15 14 15 17 16 16 19
40 39 40 44 46 47 47 44 39 37 33 23 20 17 20 23 17 14 12 10 11 11 13 13 14 15 15 15 15 15 14 13 15 19 21 19 18 19 19 20 20 20 20
40 38 38 44 46 44 45 39 38 28 28 21 16 17 22 21 16 13 12 13 13 15 16 17 17 18 18 18 17 16 16 14 17 24 24 24 24 23 23 23 23 24 26
41 31 35 40 47 41 40 42 33 21 19 16 15 17 20 18 15 12 13 15 16 18 18 19 20 20 18 17 17 18 19 20 20 28 29 29 27 28 27 26 27 28 29
27 28 16 19 44 44 40 32 17 12 10 10 13 16 16 14 12 13 17 18 20 20 20 20 22 20 23 23 24 23 26 27 28 31 34 34 31 30 31 31 28 29 30
46 55 32 33 40 42 36 22 16 13 8 7 11 10 10 9 14 16 19 21 21 24 24 23 22 23 23 22 24 25 28 30 32 36 37 39 38 31 32 32 31 31 28
27 23 27 28 35 28 23 16 13 10 8 8 8 9 13 16 15 20 19 21 23 25 27 27 23 24 24 24 29 34 38 38 40 40 42 43 44 41 36 35 32 32 30
38 34 32 23 16 11 12 14 12 9 6 6 11 11 14 16 17 19 22 24 23 25 27 27 28 29 30 31 33 32 37 40 44 45 44 44 45 41 39 36 35 34 33
35 32 9 13 13 12 14 11 9 7 8 9 12 12 14 17 20 21 25 25 26 26 26 23 22 26 33 36 40 41 44 41 42 45 43 41 42 41 41 36 36 35 34
13 12 13 17 17 16 13 9 4 6 9 12 12 14 17 15 18 24 27 23 22 19 24 29 27 31 29 33 34 35 39 38 39 43 39 40 42 38 39 38 35 33 32
4 12 12 10 10 8 7 7 6 7 11 12 14 19 23 15 20 18 17 10 26 17 23 30 32 37 38 39 37 34 34 37 38 37 39 38 40 37 33 34 34 34 33
8 9 9 7 4 3 3 2 4 8 10 13 15 19 25 20 10 23 23 19 27 30 27 28 30 32 33 36 36 35 32 35 38 36 39 38 39 37 36 37 37 40 39
4 6 5 3 2 3 1 6 7 10 12 14 17 24 27 31 22 25 30 27 31 27 28 30 32 33 34 35 37 38 38 37 39 39 41 42 41 41 42 44 44 44 46
4 2 2 2 2 4 7 10 9 11 14 18 22 27 28 30 22 29 32 28 25 25 29 32 34 35 36 37 36 37 39 41 42 43 45 47 48 47 48 49 51 50 51
3 2 1 1 3 7 9 10 14 17 20 23 27 28 24 31 26 27 26 28 29 30 32 34 36 37 40 41 42 44 44 42 41 44 45 48 48 49 50 51 53 54 54
2 2 4 5 8 9 13 18 21 23 26 27 28 29 32 26 26 27 29 32 35 37 38 40 42 43 44 45 46 47 47 46 44 45 47 49 50 51 52 54 56 59 61
4 6 7 10 13 15 19 20 23 27 27 27 27 29 25 27 29 31 35 37 39 40 42 44 45 46 47 47 47 49 47 45 46 47 48 51 53 56 59 62 64 65 68
8 9 12 15 17 19 19 20 23 22 22 24 24 27 28 31 33 35 38 39 42 44 46 48 48 50 52 52 52 53 50 49 48 52 55 58 62 65 69 72 74 76 77
9 16 16 19 22 20 20 21 20 19 20 24 26 29 33 36 38 41 43 45 47 48 51 52 52 54 56 57 58 56 52 48 51 56 60 65 69 73 76 79 81 80 82
16 18 20 20 19 16 17 16 17 20 23 28 32 34 38 42 44 46 47 48 49 50 52 54 56 58 59 59 58 56 56 58 61 64 68 72 77 80 83 85 88 91 94
22 22 19 18 16 14 15 19 23 26 30 33 37 40 44 46 49 49 50 51 52 52 54 56 57 58 59 58 56 60 65 68 71 74 77 81 86 90 91 93 96 90 85
24 20 16 15 15 17 20 25 30 33 36 39 42 44 48 50 51 53 54 54 53 54 56 58 58 61 62 60 62 66 70 74 78 82 85 88 92 97 101 99 88 75 72
23 18 16 17 18 24 28 31 35 38 41 45 49 51 54 56 56 57 58 59 60 62 63 63 63 65 63 63 66 71 76 80 84 89 92 94 98 97 92 81 73 67 61

GFSSE_500_spd_051.txt.gz
Wind_Speed
26 25 25 28 31 33 35 36 36 42 39 37 35 33 34 30 21 25 24 18 17 15 15 15 13 14 14 14 14 14 14 13 13 12 10 10 11 10 11 12 13 14 16
23 25 28 30 31 34 33 36 30 28 32 36 35 35 30 29 27 25 22 19 14 15 15 15 15 15 15 15 15 14 14 13 14 13 11 10 11 11 12 12 13 14 16
29 31 32 33 34 31 22 24 30 33 30 33 35 34 29 26 29 22 22 19 14 15 16 16 16 16 16 15 16 14 14 14 14 13 11 11 13 14 15 15 17 18 20
31 32 34 37 36 38 36 34 34 32 36 35 33 33 27 25 26 19 21 18 15 16 18 18 17 17 17 17 17 16 17 17 17 16 15 13 12 13 15 16 19 21 23
33 37 40 40 39 34 34 35 32 34 34 34 34 31 30 20 24 18 20 17 16 17 19 19 18 18 17 18 18 18 17 18 20 20 20 20 19 19 20 20 22 22 24
35 37 40 43 42 38 34 34 36 34 33 37 36 35 25 18 14 19 17 17 18 21 21 21 20 20 20 20 20 17 17 18 19 20 22 24 26 28 30 29 31 32 32
36 38 37 39 36 29 36 38 39 35 35 38 32 31 14 12 14 15 16 18 21 21 20 21 21 22 23 22 21 21 20 21 22 25 28 30 32 32 29 30 33 35 35
32 37 42 35 35 43 39 33 33 34 44 43 27 19 11 6 7 11 21 21 17 19 20 22 25 25 27 27 25 22 22 22 22 24 25 27 30 31 30 32 37 37 38
30 49 47 33 39 34 30 39 39 41 47 29 7 4 9 12 14 19 16 14 15 19 23 28 30 25 22 22 24 23 25 25 24 27 31 33 33 35 37 39 40 42 41
25 23 22 25 29 36 48 46 49 48 19 14 11 12 11 11 12 11 9 11 15 23 28 27 25 19 15 18 21 24 27 30 30 33 36 37 36 38 38 39 38 37 34
25 33 27 8 22 31 37 34 46 35 19 18 11 9 12 11 10 11 14 17 25 24 24 20 22 19 20 24 24 27 30 33 34 34 37 36 37 36 37 37 38 35 33
20 19 26 28 31 27 26 30 40 17 17 14 13 12 10 11 12 16 19 22 19 20 20 20 18 20 23 26 27 27 29 30 32 34 35 36 37 38 37 37 38 38 36
20 22 27 27 26 26 26 23 20 15 10 10 9 9 9 10 7 13 16 17 22 20 20 22 25 28 29 29 27 27 28 31 33 35 38 39 41 42 41 41 41 39 41
19 23 22 17 14 14 17 18 18 13 11 9 8 10 4 7 8 12 16 19 19 15 19 22 27 30 28 27 31 33 35 37 37 38 38 40 40 40 41 42 43 43 43
17 21 19 18 19 16 17 15 12 10 9 9 8 9 11 10 14 16 18 19 22 29 31 27 25 26 30 33 36 38 39 40 40 42 41 41 41 41 42 42 43 44 45
16 14 13 12 13 11 11 12 10 9 9 7 8 9 11 17 18 17 20 21 16 15 19 22 27 31 35 38 39 41 42 42 43 43 42 42 43 44 45 44 42 43 45
12 13 12 12 14 15 10 8 8 7 6 8 9 12 16 17 17 16 14 16 19 21 25 29 33 35 36 39 40 42 43 43 42 43 44 46 47 48 47 45 42 41 42
14 13 13 12 12 9 7 5 4 5 8 10 13 14 16 14 13 14 17 21 23 26 30 33 36 38 41 43 44 45 46 45 46 47 48 49 49 49 48 45 42 41 41
11 10 9 7 5 1 1 3 6 12 12 14 16 15 13 13 15 19 21 24 27 31 35 38 41 42 43 45 46 47 46 46 47 49 50 50 51 49 47 46 45 47 48
8 6 5 4 1 2 4 7 9 12 14 14 13 11 15 17 21 23 26 30 33 36 39 42 43 43 45 46 48 48 47 46 50 51 51 51 52 50 49 50 53 55 57
6 6 4 2 3 6 8 11 13 15 13 10 11 15 19 23 25 27 31 35 37 40 43 45 46 46 48 48 47 48 51 50 51 53 54 54 51 52 55 57 60 62 64
3 3 2 2 5 5 9 11 12 12 11 14 17 20 24 27 30 33 37 39 43 45 47 48 49 49 50 50 50 51 53 53 55 56 56 53 54 57 60 64 66 67 67
5 4 5 5 6 7 9 11 11 13 16 20 24 26 29 32 36 38 42 46 48 49 50 50 52 52 53 54 55 56 55 55 55 58 56 56 59 62 65 67 67 69 71
8 8 9 7 7 8 9 13 14 18 22 26 29 32 34 37 40 44 46 48 50 50 50 50 52 53 54 53 52 55 60 61 61 55 59 61 65 68 69 72 74 74 78
10 10 9 10 9 10 12 15 19 23 26 31 34 37 39 41 45 47 48 48 50 51 48 51 56 57 60 58 58 63 65 66 63 62 63 66 70 75 79 79 80 84 86
11 10 9 11 10 12 17 20 22 27 31 35 39 42 43 45 47 48 49 50 51 46 51 61 61 61 59 57 64 69 68 67 67 69 70 72 75 77 78 81 84 86 84

GFSSE_500_spd_054.txt.gz
Wind_Speed
31 29 28 23 25 25 26 28 27 24 26 29 25 26 28 26 24 23 20 17 13 14 14 14 14 14 15 15 15 15 14 14 14 14 14 13 12 11 11 10 11 12 12
30 32 27 27 27 27 26 27 25 22 22 25 27 28 27 27 23 18 21 14 15 14 12 13 14 15 16 17 16 16 15 14 14 14 14 14 14 12 12 11 12 12 13
31 29 29 29 30 31 29 29 27 24 28 27 28 30 30 24 24 17 18 12 13 12 12 14 16 15 17 17 17 17 17 17 18 18 17 16 16 15 14 13 12 15 15
30 30 31 31 33 35 32 29 28 37 31 28 29 31 28 24 26 16 14 12 14 12 15 16 16 16 16 17 17 18 18 19 19 20 21 20 20 19 17 17 15 15 17
27 30 33 36 37 36 35 32 29 34 31 28 31 30 28 25 25 13 17 12 14 17 15 17 17 17 19 19 20 21 19 20 19 20 20 21 24 26 26 26 27 28 28
31 35 36 36 38 36 34 31 34 30 30 29 30 30 31 29 16 17 7 13 14 16 17 20 18 18 19 22 21 22 19 19 19 21 21 22 26 28 29 31 31 30 28
31 30 35 41 40 38 32 35 33 37 33 31 32 32 35 33 19 9 11 16 17 18 21 20 19 20 22 25 24 24 23 21 22 21 22 21 21 24 26 30 31 30 31
30 30 37 43 41 34 33 31 34 37 34 37 36 37 32 15 12 12 18 15 18 21 19 16 18 22 25 28 29 26 22 18 17 19 21 23 25 27 28 29 31 34 35
31 24 38 50 43 45 41 40 30 35 38 41 42 34 16 9 6 8 14 17 20 14 14 19 22 25 29 28 23 21 21 20 21 24 23 27 28 29 29 30 29 31 32
29 28 33 42 49 45 56 39 33 36 41 41 44 17 9 7 7 11 14 17 13 14 18 20 25 28 26 23 23 23 25 27 27 28 26 27 28 30 31 33 33 35 36
32 35 28 21 16 32 25 28 31 44 43 34 26 18 16 9 7 10 12 13 15 18 20 26 29 23 23 22 22 26 27 27 30 29 31 33 33 34 35 35 36 38 37
29 29 27 28 22 22 30 28 33 38 29 19 16 16 12 10 9 11 12 15 19 21 24 25 25 23 24 25 26 28 26 27 30 33 36 38 40 40 41 40 39 39 40
21 25 23 21 24 25 22 29 31 25 17 17 17 17 11 9 11 13 15 23 22 21 25 21 20 21 24 25 23 25 30 32 34 36 39 40 41 42 42 42 42 42 44
15 25 22 23 26 23 27 37 35 20 19 18 13 10 11 17 15 8 13 14 18 17 22 24 27 28 27 27 28 30 34 36 36 37 40 42 43 45 44 42 42 40 41
13 19 24 17 15 16 15 15 15 13 13 13 12 11 15 10 11 12 13 14 18 22 21 19 18 19 26 30 32 33 36 39 41 42 44 45 45 45 44 43 42 42 42
11 15 15 16 17 14 13 10 8 7 10 10 9 9 9 11 15 15 16 17 16 16 18 20 22 26 31 32 36 39 41 43 44 45 46 46 46 45 45 45 44 43 43
19 17 15 16 13 9 10 10 9 7 7 10 8 9 11 13 15 14 14 13 16 19 22 24 27 32 34 37 40 43 44 45 46 47 48 48 47 47 46 45 44 44 43
15 14 14 14 14 13 11 9 8 8 9 10 11 10 12 14 12 12 14 17 21 23 26 29 33 36 38 41 43 46 47 48 50 50 50 49 49 48 46 45 46 45 41
18 18 16 16 16 13 10 7 8 9 11 10 10 11 14 12 12 15 18 23 25 28 32 36 39 40 43 45 46 47 48 50 52 52 51 51 51 50 48 48 48 42 40
14 13 14 12 10 8 7 7 7 8 9 8 10 9 10 13 16 20 23 26 30 34 38 40 43 44 45 45 47 48 50 52 52 52 51 51 50 52 53 53 47 46 48
9 9 8 8 8 8 9 9 8 8 7 8 8 10 15 18 22 25 28 31 35 39 42 44 46 46 47 48 50 51 52 53 53 51 50 51 54 56 58 55 52 53 56
13 13 12 10 9 9 10 9 8 8 7 9 11 16 21 24 26 30 33 36 39 43 45 47 48 49 49 49 51 53 54 56 55 53 54 56 58 59 61 59 59 61 65
10 10 11 11 10 10 10 10 9 8 9 13 18 22 26 28 31 34 38 40 43 46 49 50 50 49 49 50 56 58 58 57 55 56 60 61 61 61 61 63 65 68 70
11 13 11 10 12 12 10 12 12 11 14 19 21 26 30 33 36 39 42 44 46 49 49 50 48 48 47 53 58 64 61 60 61 62 62 64 64 64 67 69 72 75 76
14 15 15 14 13 13 13 12 14 16 19 21 24 31 36 39 42 45 45 45 47 50 49 51 48 52 54 57 66 68 65 65 66 67 67 67 68 71 74 79 81 82 83
20 17 17 15 15 15 15 14 16 19 21 22 29 38 42 45 46 48 44 49 50 53 53 53 53 58 60 65 70 69 69 70 71 71 71 72 75 79 82 85 85 85 84

GFSSE_500_spd_057.txt.gz
Wind_Speed
30 30 29 27 24 25 27 26 25 23 20 18 16 16 20 17 19 13 10 10 9 8 10 11 12 11 13 14 14 14 13 13 14 14 14 14 13 12 12 11 10 10 10
33 30 28 29 26 27 29 27 27 24 22 18 16 20 20 17 18 12 11 9 8 11 11 12 12 12 12 13 14 14 13 14 14 14 14 13 15 15 15 13 12 11 11
33 32 30 31 31 31 30 31 29 26 25 23 21 23 22 19 16 13 14 11 10 12 12 11 13 13 13 14 14 14 14 15 16 16 16 16 17 19 19 18 16 14 14
34 32 31 28 30 32 35 34 29 27 25 27 31 27 23 20 18 16 14 12 11 13 12 13 14 14 14 16 16 17 17 17 17 17 16 17 16 18 21 23 22 22 21
31 30 30 34 37 37 34 32 32 32 30 25 31 26 24 21 18 20 19 15 13 15 15 16 15 16 16 17 17 18 20 20 19 20 19 19 20 21 22 24 25 27 28
28 30 34 36 35 33 34 35 33 33 33 29 30 26 24 23 22 23 23 17 16 16 18 17 16 18 15 16 18 20 22 23 21 21 20 20 21 21 19 21 24 26 28
24 19 26 33 36 34 36 37 37 34 34 32 28 25 26 27 26 25 19 17 17 18 17 17 17 17 17 18 19 22 25 22 19 17 17 18 20 22 24 24 25 25 27
37 31 31 30 32 37 43 36 33 26 29 32 30 31 31 31 31 22 16 18 17 16 18 19 20 17 18 18 20 24 21 19 17 18 20 25 24 25 26 26 26 26 26
29 32 28 39 51 46 55 48 32 28 32 28 35 35 35 32 31 14 14 17 18 18 17 18 16 19 23 22 26 21 18 18 21 22 23 24 22 24 27 27 27 30 29
34 30 27 26 44 26 33 42 45 40 33 35 34 38 33 17 16 13 13 14 14 15 15 15 16 18 20 24 24 18 19 20 21 21 21 24 25 28 30 33 35 35 34
35 30 30 31 33 23 20 25 40 45 33 37 42 33 17 16 16 13 11 9 10 12 14 17 20 23 24 21 22 24 25 25 22 26 29 32 35 35 35 37 36 36 37
35 31 32 31 28 26 28 17 22 43 39 42 45 22 16 16 15 9 6 8 11 15 20 21 21 24 21 17 19 20 20 23 29 32 35 36 36 36 36 38 40 41 40
40 25 27 26 24 23 21 17 20 21 24 30 32 21 21 18 13 9 12 15 15 20 14 18 22 20 20 22 21 23 26 29 31 33 34 37 39 39 39 39 39 41 42
31 27 25 27 26 22 19 21 22 20 19 21 23 19 14 15 13 11 7 8 12 14 19 17 20 20 17 16 21 25 28 31 33 36 39 42 43 43 43 44 43 44 43
17 22 18 20 21 19 22 18 12 15 15 18 18 11 10 14 13 11 9 11 14 14 17 13 13 16 20 23 26 29 32 36 39 40 42 43 44 45 44 43 42 43 44
18 19 16 10 13 14 19 21 19 14 12 11 10 15 13 11 9 9 12 14 14 12 13 16 18 23 25 28 31 34 37 41 42 43 44 45 45 46 45 45 44 44 45
17 18 23 21 21 18 17 16 11 8 11 13 13 7 8 8 11 14 14 12 12 13 17 21 24 26 29 33 36 39 41 42 44 44 45 46 47 47 46 44 45 45 45
21 19 19 18 14 11 10 10 12 12 11 11 10 7 9 11 13 14 11 12 15 19 23 25 28 32 33 37 39 42 43 44 45 45 47 48 47 47 47 46 46 45 46
15 15 13 13 12 12 11 12 12 12 10 11 11 11 13 13 13 12 14 17 20 24 27 30 32 35 38 40 42 44 45 45 46 46 48 49 50 50 50 49 49 50 50
14 13 11 12 14 13 13 14 12 11 13 12 11 10 10 11 11 14 18 22 25 29 32 34 36 38 40 42 43 45 45 44 45 47 49 52 52 52 52 54 56 57 57
12 14 14 15 14 14 13 10 12 12 13 12 10 9 11 11 15 19 22 26 29 33 36 38 38 40 41 42 42 44 45 46 49 52 54 55 55 55 55 57 59 60 60
13 14 15 16 15 14 14 13 13 14 12 12 11 13 13 15 19 22 26 30 33 36 39 39 40 42 43 43 41 45 49 50 52 56 60 59 59 58 57 57 58 58 59
14 15 14 12 11 13 14 17 16 15 14 15 16 16 19 18 21 26 31 35 38 40 41 43 43 48 48 45 46 48 55 57 58 61 63 66 63 61 60 61 62 64 67
14 15 16 15 15 16 17 16 16 13 13 15 16 20 24 23 25 33 36 40 40 41 42 47 47 49 45 47 53 54 57 63 63 65 65 65 64 65 67 70 72 74 77
19 20 21 20 18 17 17 17 16 16 17 20 23 23 25 28 34 39 39 40 42 43 42 46 48 49 53 51 56 59 63 66 65 66 67 68 69 72 74 79 79 81 82
21 20 19 19 16 16 17 19 19 20 20 22 22 24 24 32 38 34 40 43 46 44 46 49 50 53 59 58 59 63 71 73 71 71 71 73 77 79 82 86 88 87 85

GFSSE_500_spd_060.txt.gz
Wind_Speed
31 30 28 27 25 25 26 25 26 26 24 22 20 21 17 12 12 11 8 7 6 5 7 8 10 10 11 11 12 12 12 13 13 14 13 13 13 13 14 14 14 12 9
34 32 31 31 30 30 28 27 27 28 26 24 20 21 18 16 13 12 9 7 7 7 9 10 13 12 12 11 13 12 11 11 12 13 14 14 15 16 16 16 17 16 13
37 35 34 33 31 31 30 28 31 32 29 24 20 22 21 17 15 14 11 10 9 10 11 13 14 14 13 12 14 13 11 11 12 12 13 12 13 14 16 18 19 19 18
38 36 35 34 33 33 34 35 35 33 29 23 23 22 25 20 18 15 15 14 13 14 14 14 14 15 14 13 13 13 13 13 14 15 15 15 17 17 17 19 21 22 23
42 41 39 40 36 37 37 35 33 32 31 26 26 24 24 22 17 16 17 21 17 17 16 17 16 17 15 14 13 14 16 18 19 19 17 17 17 18 18 19 19 20 22
37 42 41 39 35 34 36 36 37 35 31 29 31 27 25 25 18 19 22 23 20 19 19 19 19 17 15 14 15 16 18 20 21 18 17 16 14 16 18 20 21 22 23
35 40 38 36 34 36 37 35 35 35 36 31 31 28 26 24 22 26 23 24 23 20 22 21 18 15 12 14 15 16 20 22 18 16 16 15 19 22 20 23 22 22 23
28 38 36 23 32 31 35 37 36 40 40 35 34 27 26 27 26 31 28 26 25 23 22 21 16 13 14 14 16 18 21 19 15 15 18 19 21 21 19 20 24 26 26
26 23 21 25 27 35 38 38 48 41 41 37 39 31 26 27 28 30 31 28 24 22 20 17 15 13 15 19 22 20 20 16 17 17 17 18 20 22 24 27 29 31 31
29 29 26 25 22 33 49 44 47 42 35 45 39 30 33 32 33 30 25 24 25 23 20 18 14 16 17 18 20 18 18 19 20 17 17 22 25 28 30 30 31 31 33
31 28 30 31 29 28 30 15 14 25 37 50 39 37 38 34 28 23 21 19 16 15 14 14 16 17 18 20 19 18 16 16 15 19 24 27 28 29 31 33 35 37 38
31 32 27 25 25 24 29 29 28 20 19 28 43 36 35 29 27 19 17 13 9 11 15 16 17 18 18 16 17 18 19 20 22 24 27 28 31 34 36 37 39 40 41
29 34 31 25 24 23 21 18 20 21 11 21 41 31 29 21 16 17 14 11 14 15 17 14 14 15 14 14 18 17 20 22 24 27 30 33 35 37 38 39 40 41 42
25 29 30 35 27 25 24 23 22 19 22 22 28 23 20 18 15 13 11 12 11 11 12 14 15 14 12 12 17 21 22 26 28 32 34 37 39 40 41 41 41 42 42
20 18 20 29 31 26 24 25 24 27 24 27 21 21 17 15 14 13 12 11 9 13 14 12 10 13 15 17 20 24 28 31 33 36 38 40 41 42 42 43 44 43 42
21 16 19 22 18 18 19 25 20 16 17 19 19 15 12 12 14 15 13 13 14 12 12 11 13 17 19 22 26 29 32 34 37 39 41 43 43 42 44 45 45 44 45
16 15 17 16 15 19 19 21 24 20 20 15 14 15 13 13 10 12 15 12 11 10 12 16 18 20 24 27 30 34 36 38 39 40 42 42 44 45 46 44 44 45 45
16 17 19 19 20 21 21 18 16 12 10 11 10 8 12 13 12 15 11 7 9 13 17 19 21 25 29 33 35 37 38 39 39 40 40 43 45 46 45 45 44 44 44
20 18 18 15 12 13 14 12 11 12 10 11 12 12 13 13 13 15 12 10 14 17 20 23 27 31 34 37 38 39 38 38 37 37 41 43 45 48 49 48 48 49 50
8 9 7 7 9 8 8 9 11 11 12 12 13 15 15 15 17 15 11 14 18 21 24 28 32 35 37 38 39 40 39 39 38 41 43 45 48 52 53 53 54 53 50
7 7 7 8 10 9 11 12 11 13 14 16 17 16 16 15 15 15 14 18 22 25 28 33 36 38 39 41 40 42 39 39 43 47 50 52 54 56 56 57 56 55 54
14 14 15 15 14 14 14 14 14 16 16 17 18 19 18 16 16 16 17 21 24 28 33 36 36 36 39 38 42 44 47 49 48 50 53 58 61 65 65 61 59 58 59
13 15 16 16 15 14 14 17 18 17 16 18 17 19 19 20 21 20 21 23 29 34 34 34 36 38 39 42 44 47 50 51 54 57 58 61 67 68 66 65 64 65 68
10 12 13 14 15 17 16 17 18 18 17 18 17 19 20 22 25 29 32 35 37 39 36 36 38 41 43 45 48 51 56 57 60 64 67 68 72 69 67 67 70 73 76
13 15 16 17 18 18 19 18 20 20 19 21 21 21 22 25 26 29 31 38 43 36 40 39 42 42 46 51 54 58 58 55 62 68 74 76 75 72 71 74 76 80 82
20 20 20 19 19 19 20 20 22 22 23 25 23 27 26 25 26 28 36 40 38 41 41 42 48 51 53 60 58 58 53 59 66 72 72 74 72 74 77 79 81 83 84

GFSSE_500_spd_063.txt.gz
Wind_Speed
35 33 29 28 26 24 25 27 27 28 28 27 26 21 20 15 12 11 11 10 9 9 10 10 9 8 9 9 11 11 11 12 13 14 13 14 14 14 13 13 13 13 13
39 35 32 29 27 28 30 29 29 27 27 26 24 21 19 16 11 11 11 11 11 11 11 12 11 10 10 10 10 11 10 9 9 9 10 11 11 12 13 14 14 16 16
39 37 34 33 34 34 33 33 32 30 30 29 26 21 18 17 15 16 12 12 12 14 14 14 15 13 12 12 10 10 9 7 8 10 12 12 12 14 14 15 16 17 18
39 38 39 38 38 36 36 36 35 35 33 31 24 22 18 19 18 17 16 14 14 16 17 17 16 17 15 13 11 11 10 11 12 14 14 15 16 15 16 17 18 18 18
37 40 39 43 43 40 38 38 36 34 31 29 25 23 23 22 21 19 18 16 17 19 18 20 18 18 17 14 13 11 11 13 15 15 15 15 14 14 14 15 17 18 19
41 45 43 44 41 44 45 40 39 36 33 32 28 28 27 24 23 20 20 20 19 21 22 22 21 20 17 15 13 11 13 15 17 18 15 13 13 13 17 18 17 18 18
45 43 42 46 43 45 44 42 40 39 36 35 33 31 30 26 23 22 23 22 23 22 23 24 24 22 17 15 12 13 15 18 20 16 14 14 14 15 17 15 15 18 20
46 40 21 47 50 58 47 42 39 41 40 37 36 33 34 31 28 26 26 27 28 23 22 26 24 17 15 12 13 16 20 21 18 15 15 15 14 16 15 17 20 23 24
32 35 40 33 45 37 44 45 43 40 37 38 38 36 38 36 30 33 32 29 28 24 24 23 18 14 12 14 17 21 22 17 14 18 17 15 15 18 20 22 23 24 26
26 26 22 14 13 19 28 47 46 44 40 44 43 39 35 41 35 35 30 25 23 25 23 20 15 13 14 17 19 19 19 17 14 13 14 17 21 24 24 25 27 28 29
23 22 26 23 22 18 14 12 19 8 16 18 32 41 39 42 36 35 31 24 22 21 19 18 16 16 18 19 19 20 15 14 15 16 18 20 22 24 28 29 31 32 33
14 19 22 21 23 20 15 15 23 22 23 15 16 23 37 45 43 32 25 24 13 13 14 14 16 17 20 19 19 15 16 15 16 20 20 22 25 27 30 32 34 37 38
16 17 19 24 26 18 17 15 19 15 18 18 16 18 33 46 30 27 18 11 12 13 14 15 18 16 15 15 11 11 14 16 18 20 24 25 28 31 33 36 38 38 40
18 18 18 19 20 27 21 18 21 22 22 21 20 18 25 27 26 20 14 13 13 12 12 14 15 13 13 9 10 14 16 20 22 26 29 30 33 36 38 40 41 40 43
19 19 11 21 16 23 24 20 21 20 21 22 21 18 27 25 16 15 16 15 12 11 12 13 12 11 12 13 16 18 22 25 27 29 33 35 36 38 40 42 44 44 46
17 16 18 19 17 22 23 23 22 22 25 25 25 25 15 15 19 18 16 15 13 13 12 9 9 12 15 17 19 23 26 30 32 33 35 37 38 41 41 44 45 45 45
13 13 16 16 15 17 15 19 25 24 18 13 16 17 19 17 14 15 15 13 12 12 9 9 12 16 17 21 24 28 31 33 35 38 40 40 40 39 43 45 45 45 46
4 7 11 12 15 17 20 16 14 21 20 17 14 12 12 10 10 12 12 12 10 11 10 12 16 19 22 26 28 31 33 35 38 40 40 42 41 45 47 45 46 45 47
12 16 16 16 16 17 18 18 17 18 15 11 10 7 7 11 14 14 13 11 11 11 12 15 20 22 26 30 32 34 36 39 39 39 39 38 41 45 49 49 48 49 52
13 15 11 11 12 11 11 11 11 10 10 9 9 10 13 14 19 17 15 13 12 14 16 20 24 26 30 33 35 36 38 38 39 38 38 40 41 44 48 51 52 55 58
5 4 5 9 8 7 4 3 4 5 7 9 11 13 14 19 20 16 16 15 16 18 20 24 27 31 33 32 35 37 38 37 40 44 46 46 47 49 52 54 58 63 68
5 5 5 5 5 4 5 7 8 10 11 13 15 17 20 21 19 18 19 21 20 23 23 26 32 35 29 30 34 38 41 45 47 46 48 51 51 54 59 62 65 66 65
5 6 6 7 8 10 11 12 12 14 16 17 18 19 20 19 20 20 24 24 25 28 29 36 40 40 35 31 36 42 46 48 51 56 58 58 58 58 63 65 70 67 64
7 8 9 10 11 13 13 15 16 17 17 18 18 19 20 20 22 24 26 29 32 37 40 42 44 39 40 38 38 46 51 54 57 61 63 64 64 64 67 69 68 68 70
9 10 11 12 13 14 15 17 18 18 20 20 20 22 24 23 25 27 30 27 31 35 35 41 42 43 44 41 47 48 52 56 59 61 64 61 65 72 72 74 74 74 78
15 15 15 16 15 14 17 19 21 22 22 22 24 26 27 29 29 34 32 30 31 35 38 40 42 45 49 44 52 51 58 61 66 64 74 69 70 71 77 80 74 76 81

GFSSE_500_spd_066.txt.gz
Wind_Speed
25 32 37 35 32 29 27 26 25 25 25 27 26 26 24 20 17 17 13 12 12 12 13 12 15 16 16 12 11 10 10 10 10 10 9 8 9 8 9 10 9 10 11
34 34 40 37 34 30 29 27 28 29 30 30 30 27 23 20 16 13 12 12 13 13 13 14 15 15 13 11 12 10 9 9 8 8 7 7 8 8 9 10 10 11 13
29 31 35 38 35 33 30 31 34 35 35 33 30 28 23 20 16 17 13 13 13 13 14 15 15 16 13 13 12 10 8 8 7 7 8 9 10 10 11 12 13 14 15
42 25 31 36 40 38 38 39 39 39 37 35 31 27 23 17 17 16 17 15 15 15 16 16 17 16 16 14 14 13 9 9 9 11 12 12 12 13 13 12 12 14 14
56 26 41 42 44 42 40 40 37 35 34 31 30 28 26 22 19 19 18 17 16 17 18 18 16 17 16 18 17 13 11 9 9 11 12 14 15 13 12 12 13 12 13
37 35 35 40 42 43 43 40 39 40 39 36 33 29 27 23 23 22 22 21 19 20 18 19 18 20 19 18 16 13 13 10 12 14 15 15 13 13 14 15 14 14 14
36 36 32 31 46 47 47 47 44 45 42 40 37 34 32 30 27 25 23 25 22 22 20 20 20 21 20 17 15 13 13 11 13 17 15 11 12 11 12 13 13 14 17
28 33 43 28 23 42 44 34 43 52 48 44 40 37 34 32 32 26 24 25 25 25 26 25 19 20 15 15 13 13 14 16 17 17 13 13 12 12 12 16 17 19 20
27 24 28 42 42 51 48 56 52 47 43 43 39 37 36 34 31 29 26 27 29 30 27 22 17 16 14 13 14 13 16 17 15 13 13 11 10 12 15 18 18 19 22
20 17 25 35 48 30 40 53 55 42 36 40 37 37 40 37 33 33 30 30 35 36 25 23 13 12 10 13 14 14 14 16 13 10 11 12 15 16 17 20 21 23 26
11 10 9 14 31 20 16 19 37 35 41 37 29 32 37 41 34 37 34 35 30 28 22 17 12 12 13 14 15 17 16 15 13 12 13 16 16 18 20 22 26 27 28
11 14 14 10 14 12 13 7 8 12 7 22 9 15 12 21 34 35 33 34 29 28 15 8 10 13 15 16 18 19 15 11 9 12 15 17 18 20 22 26 30 32 34
13 15 15 15 16 6 8 8 8 8 11 12 11 12 13 16 27 37 38 29 18 10 8 12 14 14 15 12 14 12 11 12 13 15 17 18 20 23 25 28 31 35 38
15 14 12 10 9 11 15 13 11 15 15 21 18 14 15 16 22 31 26 23 15 11 11 13 14 12 11 12 9 10 12 14 16 19 20 21 24 28 31 34 36 36 41
16 14 13 11 13 12 19 24 19 16 20 22 17 15 17 16 19 25 24 19 14 12 13 12 10 11 11 12 11 14 15 17 19 22 22 25 29 32 34 35 35 39 43
13 14 13 12 16 18 25 18 17 17 17 21 19 20 18 15 22 23 18 15 15 12 11 11 11 10 11 12 14 14 18 22 23 25 27 29 32 34 35 35 37 41 44
9 9 16 17 16 14 13 13 18 18 16 20 24 16 16 19 19 20 17 16 13 13 14 12 10 10 12 15 16 19 22 24 26 27 29 32 32 33 34 36 40 43 44
13 8 10 12 13 14 11 16 20 24 18 14 12 18 19 16 12 12 12 12 12 13 12 11 11 14 14 17 20 22 25 27 28 30 33 34 35 33 32 37 41 43 45
5 6 6 9 12 11 10 7 10 16 20 18 14 12 9 8 10 10 9 9 10 14 12 12 14 16 17 20 22 26 27 28 29 30 33 34 36 38 38 41 44 47 48
19 18 18 17 17 18 17 18 17 15 15 12 10 7 6 8 10 11 12 12 13 14 15 16 17 18 19 23 27 27 27 29 31 31 36 38 39 40 43 46 50 54 55
13 14 13 11 12 13 11 9 7 6 6 4 4 5 7 10 11 14 16 16 17 16 18 21 21 22 22 25 30 29 30 27 32 36 39 41 44 47 50 53 57 58 59
8 7 8 8 7 6 6 5 4 3 2 4 7 10 12 14 15 17 17 18 19 22 23 26 26 28 30 33 37 34 35 33 36 38 40 42 46 50 56 59 63 62 56
6 6 7 5 4 5 5 5 6 7 8 10 12 13 14 15 16 17 18 17 22 28 29 32 35 38 42 40 40 40 40 41 40 43 47 50 53 53 57 59 68 63 63
2 3 4 5 5 7 8 9 10 10 11 11 13 14 16 17 18 19 21 23 26 30 35 38 37 41 40 39 38 41 45 47 49 50 53 58 64 61 56 65 67 64 67
5 5 6 6 7 7 10 12 14 14 15 14 15 16 17 17 20 22 25 29 32 36 35 36 38 37 40 42 40 46 49 49 52 53 55 55 61 66 75 74 72 71 70
6 5 7 8 9 8 10 14 16 17 16 16 16 16 17 21 23 29 28 33 39 38 39 36 37 43 46 35 43 53 56 57 54 55 54 57 61 68 75 75 74 73 73

GFSSE_500_spd_069.txt.gz
Wind_Speed
40 38 38 35 32 29 32 32 32 32 29 27 27 25 26 25 25 24 22 21 18 15 13 13 14 14 16 15 15 12 12 10 8 7 7 6 5 5 6 6 6 6 6
42 41 48 45 35 35 35 34 35 34 31 30 28 28 28 27 24 23 21 19 16 15 14 14 16 15 18 15 15 11 11 9 9 7 5 4 5 5 6 6 8 9 9
50 47 37 38 36 38 36 34 37 35 34 33 32 31 31 30 24 21 18 18 16 15 15 15 16 16 15 14 14 11 11 10 9 9 9 10 11 11 12 11 12 13 13
49 48 51 54 31 35 37 40 41 39 38 37 37 34 33 27 22 16 18 19 17 17 16 17 16 16 14 13 14 14 12 11 12 10 9 9 11 12 13 12 11 11 12
43 45 53 57 28 34 42 42 39 39 39 38 36 32 29 24 22 22 20 18 20 20 19 19 18 15 15 13 14 14 15 10 9 8 10 12 13 13 12 11 11 10 10
45 44 46 47 46 42 38 45 43 42 42 42 38 35 32 30 28 23 22 21 21 20 20 19 19 18 18 18 17 15 18 13 11 9 8 11 11 8 8 8 9 9 9
33 31 37 39 33 38 49 51 50 46 43 41 41 39 35 31 29 25 23 24 23 22 23 22 21 19 19 20 19 14 13 12 11 10 13 12 9 8 8 9 8 11 12
27 26 31 34 38 38 24 58 51 51 47 46 43 39 35 32 31 29 29 28 24 24 25 24 24 23 22 19 19 12 8 12 9 11 10 10 9 8 8 10 13 15 16
21 17 25 34 40 44 40 43 55 59 58 48 48 42 35 32 32 32 31 29 27 26 27 27 25 21 19 16 17 13 8 10 9 10 9 8 6 8 11 12 13 15 17
14 13 19 32 29 44 27 54 55 50 52 60 46 44 34 32 31 32 32 32 28 27 26 30 30 21 17 11 12 10 8 7 7 7 7 8 9 10 11 12 14 17 19
11 6 13 14 15 20 28 46 38 47 35 41 43 36 25 28 32 34 40 36 32 31 34 27 28 25 11 13 12 12 10 10 8 12 11 10 10 11 12 14 17 19 21
7 8 10 14 11 11 11 26 21 28 24 37 29 30 20 22 15 21 33 39 34 28 28 22 13 10 11 13 13 16 13 11 9 7 8 11 13 13 14 18 21 24 24
13 10 11 14 11 10 4 10 12 16 16 7 6 11 11 12 12 15 15 26 33 30 21 15 11 10 13 14 14 9 9 10 10 10 11 14 16 16 18 21 23 23 24
13 15 16 9 7 4 7 6 5 4 4 2 8 9 12 11 14 11 14 17 25 22 16 13 11 11 13 14 10 8 9 12 12 12 15 16 17 18 21 24 25 25 27
14 17 14 14 13 10 5 16 11 12 10 9 13 13 14 15 14 12 12 21 28 22 17 12 11 14 14 11 12 13 13 12 14 14 17 18 18 20 23 25 27 27 30
16 18 20 20 17 20 13 14 19 16 10 12 14 14 16 16 14 12 16 21 25 19 12 13 11 12 11 12 14 15 15 15 16 17 17 18 20 22 26 25 28 29 31
12 14 16 19 18 14 12 14 14 17 17 15 12 14 18 14 13 14 17 24 18 11 12 10 10 12 12 13 14 15 16 17 18 19 19 20 23 25 26 29 30 31 34
12 13 16 17 19 17 12 10 9 11 14 11 15 19 14 11 11 21 19 14 11 9 9 11 13 13 13 15 15 17 19 22 22 20 21 22 23 26 27 29 31 34 36
9 14 13 12 15 14 15 11 12 11 14 12 12 12 18 19 17 11 7 6 8 11 15 14 15 15 16 16 18 19 20 24 23 23 26 24 26 27 29 31 35 39 43
7 7 8 11 11 10 6 6 8 15 19 16 16 15 14 12 8 6 9 10 12 12 16 17 16 19 18 20 19 19 24 25 25 26 27 29 31 32 31 31 38 43 46
10 13 17 19 20 19 18 18 18 17 16 14 13 11 6 4 3 7 10 14 14 15 18 20 20 21 22 23 25 24 27 31 29 31 34 34 34 36 39 47 52 50 53
10 12 14 16 15 14 14 15 15 13 11 7 4 2 2 3 6 10 12 14 14 17 19 22 23 25 27 29 33 37 38 38 35 35 36 38 42 47 49 52 53 52 54
10 9 9 10 10 10 10 9 9 7 5 2 0 2 5 6 7 10 11 11 15 18 19 22 29 32 33 36 38 43 42 38 34 36 40 45 48 47 50 57 57 56 58
7 8 8 8 8 7 6 4 3 3 3 3 3 4 7 8 9 10 11 12 14 21 26 29 30 31 34 38 42 43 39 42 41 30 42 48 48 54 57 59 56 61 67
3 4 5 6 6 3 1 2 3 4 5 6 6 5 7 10 9 10 15 18 22 24 28 34 39 39 34 38 46 44 44 42 44 41 44 52 55 54 59 63 66 71 73
3 1 2 4 4 2 1 3 4 4 5 6 8 6 9 12 12 13 16 17 17 25 28 31 28 30 33 37 36 41 47 44 47 45 51 55 57 56 61 68 72 73 77

GFSSE_500_spd_072.txt.gz
Wind_Speed
39 34 39 46 52 24 38 34 27 36 35 29 27 27 28 25 22 22 23 23 25 23 21 17 15 13 15 13 16 15 15 16 11 11 9 6 5 4 4 5 5 5 6
40 36 33 41 43 33 36 42 40 34 26 28 30 31 30 28 25 24 23 23 22 24 20 17 14 14 15 14 15 15 14 12 10 9 8 9 7 7 7 9 9 10 10
42 44 42 41 42 38 42 41 38 36 32 33 34 35 32 30 26 23 21 18 19 19 17 15 14 15 15 15 15 15 15 13 12 11 9 10 10 8 8 9 10 11 11
38 35 37 41 43 47 41 45 38 37 38 38 37 35 34 30 25 17 15 15 17 19 18 17 16 16 16 16 15 15 14 12 12 12 11 9 10 9 10 10 10 10 10
40 40 35 46 46 47 47 35 40 41 43 42 39 36 36 31 25 18 20 19 18 19 21 22 21 20 18 17 15 15 15 14 12 10 9 9 9 9 9 10 10 9 8
49 37 38 46 53 50 55 42 36 47 45 42 40 40 36 34 27 26 26 21 21 21 23 22 22 20 20 19 18 17 18 17 13 11 12 10 8 6 6 5 6 7 7
49 33 38 40 41 52 57 49 52 54 47 43 39 33 43 33 29 27 23 23 22 24 25 24 23 22 21 21 21 20 20 17 14 12 12 9 7 7 7 7 7 7 9
39 31 19 25 30 19 46 46 49 49 53 41 40 44 40 30 32 29 25 24 26 27 26 24 27 26 22 22 23 21 17 15 13 10 7 6 6 7 6 6 8 8 9
34 24 22 20 28 37 27 48 34 48 62 54 50 46 42 39 33 29 27 28 28 26 27 28 27 27 23 22 23 20 14 11 12 9 7 5 6 7 7 6 7 8 10
16 24 27 22 18 23 22 31 47 55 53 51 46 49 46 43 36 30 32 30 28 29 29 29 26 24 25 23 17 17 15 13 10 7 6 8 9 8 8 8 9 10 12
16 21 23 15 6 10 18 23 42 41 41 42 49 54 48 37 39 32 32 33 32 32 32 33 29 28 27 27 17 16 14 13 11 10 12 12 12 12 11 11 11 13 14
17 16 10 9 10 7 9 21 34 17 34 54 49 47 51 45 39 33 37 37 37 36 35 34 29 23 22 17 16 17 13 14 14 13 13 13 13 13 13 13 15 16 18
17 15 10 8 6 5 3 5 9 27 24 37 30 37 40 39 30 24 26 29 28 37 37 32 26 24 20 17 16 12 11 14 16 14 13 14 14 14 15 15 17 19 20
18 15 13 8 4 4 5 4 9 14 14 18 23 23 18 19 18 19 19 22 16 16 26 26 21 20 18 13 10 12 11 11 13 16 15 16 16 17 16 17 18 20 20
17 13 11 7 6 7 8 12 10 14 13 11 13 11 11 13 15 15 15 16 15 16 21 22 20 18 15 12 12 11 11 13 15 16 18 18 18 17 18 19 20 21 22
18 19 16 12 11 8 8 18 14 14 13 12 11 14 14 15 14 19 16 14 14 18 22 22 19 13 12 13 13 14 15 17 17 19 20 20 19 18 19 20 20 21 22
19 18 16 16 12 12 15 16 13 18 19 14 14 16 15 17 17 20 16 13 14 17 18 16 16 14 13 13 15 17 17 18 20 20 22 21 20 20 20 21 22 23 24
18 15 13 12 12 15 15 17 18 16 24 22 17 16 18 18 19 17 14 13 17 14 12 13 11 13 15 17 17 18 18 18 20 22 23 20 20 22 23 23 25 24 23
14 13 10 7 13 17 16 14 16 18 21 18 19 18 19 19 16 14 16 20 17 13 10 9 12 16 19 18 19 20 21 22 17 20 23 22 24 25 27 28 28 30 35
1 3 6 8 10 13 18 18 16 17 20 15 12 14 20 20 18 17 15 13 12 11 10 14 18 20 20 20 21 22 25 24 23 24 27 27 28 30 34 37 39 43 46
10 12 5 6 8 10 11 13 15 16 18 17 18 16 15 14 13 13 12 11 10 10 14 18 20 23 25 23 24 26 25 28 32 35 36 33 32 30 32 37 40 44 46
7 13 16 20 18 16 17 16 18 18 18 17 15 13 11 11 10 9 11 10 13 15 17 20 24 26 27 28 28 31 31 34 32 36 37 36 34 31 33 37 38 42 44
8 8 11 13 15 15 14 13 13 12 12 11 11 10 10 9 8 9 11 13 15 15 15 18 21 23 28 31 34 33 34 36 35 36 39 37 41 39 34 41 46 50 49
8 9 10 11 12 13 14 12 12 11 8 6 6 6 7 8 8 10 11 10 12 14 15 17 22 26 29 32 36 38 37 42 47 39 43 43 42 43 46 47 54 54 55
10 8 8 7 7 7 8 9 9 9 10 8 7 8 9 10 12 13 11 9 13 14 15 17 21 22 23 26 30 29 34 41 42 39 37 44 39 38 47 56 56 57 57
8 12 10 8 8 9 10 9 9 10 10 10 11 12 11 12 12 11 13 14 11 12 12 14 18 21 24 26 29 30 33 38 38 42 39 37 40 41 50 54 56 59 61

GFSSE_500_spd_075.txt.gz
Wind_Speed
38 34 34 36 40 40 41 40 35 34 39 28 19 29 27 23 21 21 21 18 18 19 16 15 15 14 15 15 15 14 15 14 15 14 12 10 8 6 5 5 5 5 6
32 37 40 43 41 39 39 38 49 37 29 29 25 32 24 21 21 22 20 19 18 18 16 13 14 14 14 14 14 14 16 16 17 15 12 11 8 8 7 8 9 8 9
32 39 39 41 44 44 38 36 39 34 30 29 28 35 23 23 24 23 21 18 15 13 14 14 15 17 15 15 16 15 16 17 16 15 13 11 11 10 8 9 10 9 9
36 35 41 41 44 44 41 41 40 32 42 42 28 30 26 25 27 23 20 15 12 10 13 16 17 18 18 16 17 16 17 17 15 14 13 12 10 10 10 9 9 8 8
34 38 41 43 31 20 20 26 42 39 45 39 29 31 30 27 29 23 20 17 13 14 15 16 19 24 20 19 19 18 18 17 16 14 13 12 11 9 9 8 7 6 6
36 36 34 41 43 36 38 40 37 37 35 37 36 34 32 31 29 25 23 21 19 18 16 20 23 23 22 22 21 21 20 18 17 17 14 13 12 8 6 6 6 7 5
33 37 35 38 42 43 49 47 49 47 42 45 40 38 36 32 34 29 27 24 22 18 17 21 22 22 22 23 24 23 21 20 19 17 14 14 13 10 9 9 9 7 6
29 32 35 33 37 33 36 42 39 44 48 49 53 44 40 38 30 32 27 25 22 20 20 21 23 24 23 24 25 23 22 21 20 17 15 14 12 11 13 11 8 7 6
25 29 30 27 30 21 24 24 38 30 44 49 45 36 40 40 41 40 26 26 24 22 24 23 26 26 24 28 26 26 26 21 17 16 16 14 13 12 12 11 9 8 8
7 18 30 28 32 25 21 21 24 18 48 48 47 48 47 43 33 30 26 28 27 25 25 26 27 27 28 28 26 24 24 17 17 16 14 13 13 13 14 12 10 10 11
10 11 16 18 19 18 11 13 9 30 43 52 45 40 47 44 39 29 30 30 29 28 28 29 29 27 31 32 30 24 21 17 16 15 15 15 16 16 16 15 13 13 14
12 11 16 17 15 11 5 9 12 10 38 43 43 48 47 51 45 39 36 34 35 34 32 31 32 34 34 30 23 22 18 18 17 16 18 18 18 18 18 16 17 17 17
14 12 12 13 11 4 8 1 9 8 41 33 35 37 48 46 45 33 34 34 32 33 36 38 37 34 32 27 23 20 19 19 19 19 19 16 18 19 18 19 20 20 19
18 17 16 14 8 10 7 2 4 17 26 25 35 43 36 43 47 40 36 33 28 33 33 32 31 26 26 22 22 20 17 17 18 19 20 18 18 19 20 21 21 20 21
18 18 16 14 13 14 12 12 13 13 20 20 28 25 28 29 33 30 29 26 26 31 29 25 21 21 21 22 20 18 17 16 16 18 18 18 20 21 22 22 22 23 24
16 16 18 15 16 14 12 14 22 19 15 23 21 21 20 23 22 23 21 23 26 27 27 21 19 23 20 19 19 18 18 17 17 19 19 21 22 23 24 24 25 25 26
16 19 21 19 20 16 12 19 20 11 15 14 15 11 12 16 20 20 22 23 23 20 15 16 20 21 19 16 18 18 17 18 18 19 21 23 24 24 24 23 23 25 26
12 15 20 23 19 16 12 17 11 12 19 19 17 22 21 21 22 21 22 22 23 18 15 17 18 19 16 16 20 19 20 20 20 22 22 21 21 23 24 25 27 27 28
11 14 17 17 20 18 17 16 19 20 20 24 23 18 19 21 23 21 22 21 20 17 15 12 15 17 17 19 21 21 21 22 23 25 23 19 19 24 28 30 33 35 37
5 9 15 18 19 19 21 21 20 21 22 27 23 20 20 20 22 24 23 18 19 17 16 14 12 16 20 21 23 24 24 24 24 27 28 27 30 34 35 34 36 36 37
5 4 12 18 16 16 20 19 20 19 16 19 20 21 20 17 20 21 19 21 20 19 15 14 18 20 22 24 24 26 25 26 27 28 31 33 35 35 36 36 36 36 35
7 11 12 9 11 14 18 22 23 20 17 17 18 20 21 20 19 19 18 19 16 13 17 18 18 20 24 26 27 28 29 30 32 34 35 36 37 36 37 38 40 40 45
5 9 9 11 15 18 19 19 18 21 22 20 17 15 16 18 17 17 20 20 18 17 18 19 19 21 24 26 28 31 32 34 37 36 38 40 42 44 42 45 45 41 47
5 6 7 7 12 16 18 20 19 18 17 18 20 20 18 17 18 19 17 19 18 19 18 17 17 19 19 22 26 30 34 34 34 38 39 40 40 38 40 40 35 40 39
4 4 5 6 6 7 12 15 16 16 16 15 15 18 18 16 16 17 18 16 17 16 17 17 17 21 24 25 26 25 27 28 29 31 32 36 38 41 45 42 42 40 43
5 7 9 9 10 10 10 10 9 11 12 14 15 14 15 16 16 16 15 18 18 14 16 17 19 21 23 24 27 27 30 32 33 35 38 40 41 37 37 41 41 43 46

GFSSE_500_spd_078.txt.gz
Wind_Speed
35 38 39 35 35 29 32 43 36 35 41 32 33 24 19 19 18 16 15 13 12 12 13 14 14 12 14 13 13 13 12 12 12 14 14 14 12 11 9 8 7 6 6
30 32 34 31 43 42 38 34 36 38 34 26 29 30 30 26 23 18 16 14 11 12 13 12 14 13 17 12 13 15 15 16 13 13 12 13 12 11 11 9 9 9 9
32 32 34 35 35 43 42 41 36 33 28 31 27 32 26 20 24 19 16 12 9 11 11 12 14 11 11 10 16 17 16 15 13 14 14 12 11 12 11 10 10 10 9
38 35 35 38 44 43 40 38 36 34 29 27 24 34 35 28 25 22 18 13 8 8 11 11 11 13 12 15 16 19 18 17 15 13 14 12 12 12 11 10 9 8 8
38 39 37 40 39 43 48 34 31 28 31 31 27 30 32 31 28 23 21 15 11 12 12 10 11 13 13 16 21 19 19 20 17 15 14 13 13 14 12 12 10 8 8
30 36 38 39 39 39 36 32 41 29 26 28 27 36 40 34 31 23 25 18 13 13 14 13 14 18 21 20 21 21 21 20 19 18 17 16 15 15 13 11 10 8 8
29 31 29 33 33 36 38 39 30 36 33 30 29 35 46 35 34 24 27 24 18 17 15 15 16 19 21 20 22 23 23 22 20 18 17 17 15 16 15 12 10 10 9
28 29 24 28 28 35 38 33 28 32 32 30 34 37 34 37 34 30 22 23 20 19 18 17 18 21 22 22 22 24 21 21 21 18 19 17 17 17 15 14 13 11 11
23 17 18 17 25 27 24 28 24 29 32 24 24 34 35 39 37 31 30 29 24 20 18 21 22 23 22 24 24 24 23 22 20 20 16 18 18 18 17 17 15 13 13
21 15 5 13 15 19 23 18 17 18 29 33 28 33 39 45 38 33 29 24 20 20 22 26 25 23 24 26 26 25 27 22 25 24 18 19 20 19 18 18 16 15 15
15 16 9 9 12 13 17 21 16 8 23 35 38 36 44 44 36 33 39 29 28 25 25 26 26 26 28 27 25 26 28 22 24 20 22 19 20 20 19 19 19 18 18
13 11 13 15 11 12 13 16 19 10 12 37 46 48 40 40 40 40 37 34 30 28 28 27 29 28 31 30 29 28 29 23 21 20 20 20 21 21 21 22 21 19 19
14 14 13 9 10 10 15 11 14 15 24 32 49 44 42 36 41 40 36 26 30 30 30 31 31 30 36 37 33 30 26 24 23 23 22 22 22 24 23 22 21 20 21
16 16 12 12 8 11 12 11 3 7 24 43 43 44 36 34 42 39 35 31 33 34 35 30 27 27 28 29 27 26 22 22 23 24 23 23 22 20 20 21 22 22 23
14 16 16 13 12 14 12 10 10 6 23 29 35 36 38 36 40 42 43 48 42 36 34 25 26 28 27 25 22 21 21 21 21 22 21 21 20 20 22 23 24 24 24
14 13 15 15 15 16 14 11 11 14 28 31 32 28 34 34 28 35 33 29 32 32 26 27 27 23 21 19 19 19 21 18 17 16 16 17 19 22 23 24 25 25 26
12 14 13 17 18 18 14 14 15 15 23 26 19 27 15 18 17 18 19 21 28 27 24 25 24 21 20 21 23 21 18 19 18 16 16 20 23 23 24 25 24 24 26
7 12 17 21 22 20 18 18 20 16 15 18 22 18 17 13 13 14 20 22 21 20 21 23 20 20 20 22 22 21 22 27 22 19 22 24 23 23 20 21 24 27 29
9 12 14 19 21 18 19 21 24 18 14 16 17 20 20 14 13 20 22 20 20 22 24 23 21 21 23 23 19 19 18 18 20 24 25 25 23 23 24 27 28 30 32
10 13 14 15 16 19 22 22 24 22 19 20 23 21 19 19 22 23 23 25 23 22 21 20 18 20 22 23 20 21 23 23 24 26 27 27 28 29 31 35 38 38 37
10 12 11 16 15 15 19 23 23 26 19 22 25 22 22 24 25 27 27 24 22 24 24 18 17 13 15 19 21 24 24 25 27 28 28 30 32 34 35 37 38 40 41
6 5 6 12 13 15 22 23 22 21 19 20 25 25 27 30 28 27 24 25 26 22 21 19 18 17 21 21 23 26 27 27 29 31 32 35 38 41 41 41 43 43 43
2 3 7 6 8 17 22 24 24 25 24 21 22 28 24 22 21 22 24 22 22 20 18 20 19 20 21 21 25 25 26 28 31 34 36 39 43 45 46 42 42 42 39
2 1 7 6 6 4 13 22 20 17 15 20 21 22 19 19 19 19 19 21 21 20 21 21 22 20 19 19 20 22 24 28 29 33 35 37 36 35 38 40 40 40 40
3 4 4 9 9 5 8 14 15 15 17 17 19 19 19 18 17 16 17 18 20 21 22 20 19 21 21 24 25 25 28 29 32 35 33 33 35 37 38 39 40 36 35
4 5 6 8 11 11 11 13 14 14 15 14 13 14 16 16 16 17 20 21 20 20 21 21 22 23 24 26 28 30 31 33 35 37 38 37 37 38 38 39 38 37 38

GFSSE_500_spd_081.txt.gz
Wind_Speed
31 31 34 38 39 38 39 32 36 41 37 30 30 25 16 24 32 19 18 17 14 13 10 7 5 4 5 8 11 11 9 10 12 13 13 12 12 9 9 9 8 9 10
29 30 31 34 37 34 40 37 29 24 31 32 26 27 24 25 15 14 16 16 15 14 10 7 4 6 7 10 10 12 11 11 14 14 12 11 10 9 9 9 10 10 11
32 34 34 32 30 35 36 41 42 36 30 29 33 32 28 29 22 18 21 17 17 15 11 7 6 8 9 9 9 7 11 13 12 15 11 11 11 10 10 11 10 10 10
32 36 38 36 32 31 32 40 39 43 44 37 28 32 29 30 22 21 28 21 19 14 12 10 8 9 11 9 11 13 16 16 14 14 11 11 12 12 11 11 11 10 10
27 31 34 34 38 35 41 38 37 45 30 33 28 32 27 39 30 27 30 25 18 17 14 11 9 10 11 10 12 16 18 16 16 15 13 12 13 13 13 12 12 13 11
23 27 31 30 36 35 33 36 30 37 46 44 34 30 24 32 31 27 29 25 21 19 14 12 12 13 14 15 16 19 18 17 16 16 16 17 16 15 15 13 13 13 11
23 22 25 31 28 35 28 32 35 34 18 29 28 29 31 29 30 35 31 24 24 20 17 16 13 14 16 16 17 17 17 17 19 19 19 20 17 15 16 15 15 14 13
20 23 24 30 30 24 26 27 29 27 20 26 33 21 29 22 31 33 30 30 25 20 21 18 16 16 17 15 16 17 16 19 21 21 21 19 18 17 18 17 17 17 16
21 22 24 19 22 25 25 18 21 21 16 26 26 25 25 24 34 36 36 31 27 25 22 19 16 17 16 17 19 18 19 20 24 20 20 20 18 20 19 19 19 19 18
21 21 19 12 10 25 16 16 17 14 13 17 24 26 21 24 26 34 34 29 28 27 25 21 18 19 20 19 21 21 21 21 21 21 23 24 24 20 21 21 21 20 19
21 21 16 15 7 12 20 12 18 16 15 20 27 37 29 24 22 36 39 36 32 30 28 24 20 23 22 21 21 25 25 23 22 22 23 21 20 22 23 23 21 20 19
20 21 18 13 12 8 10 16 17 17 19 23 27 35 37 35 29 42 41 35 36 33 30 25 24 25 23 24 26 27 27 25 22 22 23 22 23 22 22 21 20 20 20
22 23 22 14 10 11 16 17 16 15 25 22 45 47 37 41 40 41 41 37 35 31 29 28 28 26 26 28 29 30 33 26 24 24 21 21 21 22 21 21 21 22 20
22 21 20 17 14 9 9 15 19 17 23 29 39 43 35 31 37 47 47 42 43 37 33 35 30 25 27 28 30 30 28 27 24 25 23 23 24 21 22 21 20 20 21
15 16 20 19 15 12 11 15 19 19 19 29 40 43 45 35 43 46 45 41 40 42 39 36 31 26 29 30 29 30 28 23 21 19 20 23 23 23 23 21 21 21 22
16 17 17 21 17 15 13 18 15 17 19 28 33 46 46 41 41 40 38 43 44 37 41 39 32 31 28 29 28 25 21 20 18 20 22 23 21 21 22 22 22 23 24
16 17 16 20 18 15 13 16 12 4 18 27 32 40 40 39 42 37 36 43 46 42 34 34 30 29 29 26 23 21 19 19 20 20 18 18 21 20 21 23 25 25 24
17 18 16 19 16 16 14 18 15 7 25 31 34 33 34 26 26 31 30 27 28 23 26 29 28 25 23 22 20 19 19 19 20 20 20 20 22 23 24 26 25 25 23
17 16 16 17 18 18 17 18 21 10 16 29 33 31 20 23 22 22 23 21 22 22 27 24 23 20 20 19 19 21 20 21 25 28 28 22 21 24 26 26 27 30 31
15 14 13 17 17 19 21 19 16 14 13 14 26 23 24 19 17 14 15 18 22 24 23 23 22 19 19 19 19 23 25 22 21 17 17 22 25 27 28 30 32 35 37
12 15 11 15 18 15 16 16 15 20 16 15 18 19 24 22 19 18 18 21 25 26 22 22 20 19 17 15 19 24 20 20 22 23 25 27 28 29 32 35 37 40 44
8 12 8 11 14 16 17 15 16 18 20 19 19 25 24 24 23 23 24 25 27 24 22 20 19 19 19 19 21 20 20 23 26 27 29 30 33 35 38 42 43 44 45
4 5 8 1 16 18 17 21 21 18 16 14 14 22 21 22 23 25 26 25 24 21 21 22 21 21 20 19 20 21 23 24 27 30 31 33 37 39 42 44 44 44 44
3 2 5 5 5 4 21 20 17 21 23 19 18 16 20 23 25 25 24 19 17 21 22 24 22 22 21 22 23 26 24 24 26 28 31 30 37 39 39 40 41 43 43
5 3 3 4 3 4 5 18 21 24 21 23 22 21 18 15 16 15 14 14 18 19 21 22 23 24 26 26 26 24 23 24 27 32 31 33 39 37 41 43 43 45 44
6 4 4 5 4 2 3 7 11 12 14 12 11 12 13 15 16 15 17 18 20 20 23 24 25 25 28 26 26 25 27 29 32 36 36 37 38 40 43 45 45 45 47

GFSSE_500_spd_084.txt.gz
Wind_Speed
32 31 27 27 31 34 35 35 35 33 38 35 37 24 27 25 20 23 33 38 27 24 20 16 11 9 9 7 4 5 8 7 6 7 8 7 7 8 8 9 8 9 10
31 31 33 30 32 34 36 37 37 32 37 37 36 33 30 25 21 24 36 35 25 24 18 14 12 11 8 7 7 7 8 10 8 9 9 9 7 7 8 9 9 9 10
31 32 32 31 33 34 37 35 37 37 35 33 33 26 31 27 23 18 24 25 22 19 21 17 15 13 11 9 9 7 8 8 10 11 10 10 9 9 10 10 10 11 12
24 24 27 29 31 34 35 34 38 40 42 41 39 28 29 28 26 30 25 23 23 20 18 17 16 13 11 9 9 9 11 9 12 12 11 12 11 11 11 10 12 13 13
23 27 26 27 30 30 35 39 39 34 32 35 38 38 32 34 29 34 26 26 25 23 18 17 17 15 13 12 11 10 10 11 12 14 13 13 14 14 14 13 14 14 14
24 26 25 27 29 32 32 41 34 26 30 33 32 44 42 29 31 41 35 32 29 21 21 20 17 15 13 14 10 10 13 14 14 14 14 16 16 16 17 15 15 15 15
16 17 21 25 27 29 35 33 33 30 30 37 34 26 32 29 36 36 38 30 28 25 25 23 20 15 15 15 15 13 13 14 15 16 16 17 19 20 17 17 16 15 15
19 19 20 25 28 27 31 27 33 28 25 26 37 39 34 30 32 36 30 32 32 29 27 24 22 18 18 17 16 12 12 14 16 17 19 19 20 19 20 18 16 17 16
21 23 21 26 27 13 21 21 23 20 27 20 18 32 35 32 30 30 36 33 32 32 30 26 23 20 19 18 16 13 14 16 19 19 20 23 19 21 21 19 19 19 19
25 26 22 24 23 9 18 28 20 17 14 8 11 35 30 29 28 32 39 34 37 36 32 29 25 24 20 21 17 17 16 18 19 19 22 19 21 22 22 19 20 19 19
27 26 22 22 23 11 11 20 21 16 14 13 18 29 26 26 30 26 41 38 39 38 37 31 27 26 24 21 20 17 18 19 21 23 21 20 23 22 20 20 20 20 19
29 25 24 21 20 15 8 19 17 14 17 18 15 33 34 33 24 27 38 34 44 39 34 33 29 26 25 24 21 20 20 20 23 23 21 21 23 20 20 22 21 20 19
24 24 25 23 18 17 10 17 18 20 18 21 21 33 31 38 30 30 32 35 41 37 33 33 31 29 29 25 24 22 23 24 26 26 25 23 24 24 21 20 20 20 19
20 22 23 24 18 16 11 19 23 23 25 28 28 33 35 43 38 32 30 37 46 43 36 36 33 33 32 26 26 23 26 26 27 27 28 27 25 22 21 21 20 20 20
20 17 19 21 20 18 17 17 22 25 24 28 33 40 42 46 43 35 40 35 45 46 37 37 36 36 34 27 25 26 27 26 26 28 28 28 27 24 24 22 19 20 19
18 20 20 20 18 20 21 16 14 19 23 25 35 37 42 53 44 39 40 43 45 46 44 41 39 38 36 33 28 28 25 24 25 24 26 21 21 22 20 22 21 20 20
19 20 19 18 19 19 20 22 15 20 19 24 27 35 37 38 47 40 40 45 50 49 47 45 45 42 40 32 28 27 26 23 22 23 18 20 19 18 20 19 19 18 19
17 19 19 19 18 18 21 24 20 19 20 22 14 31 37 41 49 47 41 46 48 47 48 39 35 38 37 30 27 27 26 22 21 22 20 20 20 20 21 19 20 21 23
17 18 18 19 19 19 20 24 17 23 13 17 23 27 38 44 38 39 31 36 36 49 43 38 35 32 28 28 25 25 23 21 23 22 24 23 25 22 21 24 22 24 26
15 16 18 20 19 20 20 20 19 24 15 23 32 32 29 38 32 25 24 24 24 23 26 29 28 23 25 24 25 20 21 22 21 22 24 25 23 22 21 25 27 28 31
12 13 16 14 17 17 22 18 17 17 16 12 21 28 28 23 22 21 18 18 19 22 23 23 23 24 22 23 21 19 18 21 22 24 21 19 21 24 27 29 30 32 36
9 11 16 11 10 16 17 17 16 14 13 14 15 19 25 21 19 17 15 14 16 18 18 22 23 23 24 23 21 21 19 19 21 21 22 25 26 29 32 34 36 39 42
7 9 9 8 9 13 19 21 15 14 13 17 13 17 15 16 19 20 19 15 14 17 19 23 25 24 25 21 23 22 19 18 23 24 25 29 32 35 36 38 39 40 41
6 8 6 5 6 8 19 19 16 21 14 15 8 11 18 19 18 17 17 17 19 23 23 23 26 23 20 19 20 22 22 23 26 25 28 31 33 34 34 36 38 41 43
9 8 7 5 2 5 7 21 25 22 17 17 15 15 14 19 20 18 18 19 16 14 18 20 20 21 22 22 25 24 24 26 28 30 30 30 33 34 35 41 43 45 46
8 9 7 7 5 3 4 9 18 16 16 16 18 17 18 18 15 14 13 11 10 12 15 17 19 21 24 25 26 27 27 28 28 31 31 31 31 44 42 41 45 49 50

GFSSE_500_spd_087.txt.gz
Wind_Speed
33 31 30 28 27 26 28 32 35 35 35 35 34 34 28 27 30 29 24 26 25 29 29 29 25 19 15 11 10 7 6 6 7 8 7 6 6 6 6 8 9 9 9
31 30 30 31 30 29 31 33 36 38 36 36 35 37 35 33 26 26 27 23 31 34 33 26 21 19 19 17 11 10 8 10 10 7 6 6 6 6 8 9 10 11 11
29 28 29 30 30 30 28 30 34 35 36 35 36 38 36 33 33 26 28 27 31 39 36 27 25 21 18 15 11 11 9 11 8 7 7 6 6 7 9 11 11 12 12
23 23 21 23 25 23 23 27 29 33 37 39 36 37 33 27 29 33 30 26 33 35 26 28 24 23 18 16 13 12 12 9 6 6 8 8 9 9 10 11 12 12 14
20 22 25 26 24 25 25 31 33 34 35 37 38 40 37 27 25 28 29 26 34 34 30 25 23 21 19 16 14 12 12 9 9 9 9 11 10 12 13 13 14 14 15
20 21 21 23 27 28 31 32 34 28 39 51 42 37 35 37 37 30 32 29 29 30 28 24 22 21 19 16 15 14 14 12 11 11 10 10 13 14 15 16 14 15 16
23 23 24 25 23 26 30 34 37 39 43 30 44 32 28 30 36 31 34 37 35 28 26 27 27 22 18 17 16 13 14 12 13 11 11 12 14 15 16 16 15 15 15
22 25 27 28 24 24 30 36 35 31 27 41 37 19 33 31 40 29 39 43 39 31 30 28 25 22 20 17 17 18 16 15 14 12 12 13 16 18 17 17 16 15 16
24 26 29 31 26 24 30 28 32 27 29 28 24 21 27 30 34 33 34 36 36 34 33 29 26 24 22 20 20 19 19 18 15 13 14 15 15 18 19 19 17 17 17
24 26 29 30 26 21 28 21 21 22 20 20 20 17 23 28 40 37 35 38 36 36 35 32 30 27 23 21 23 21 20 18 16 16 16 14 20 18 21 19 17 19 17
28 29 31 29 27 20 22 18 21 15 22 17 18 18 28 31 34 32 32 34 34 38 38 35 31 27 23 24 23 23 20 20 21 19 19 18 18 18 22 21 21 18 18
27 26 28 27 26 20 20 15 15 23 23 19 15 25 17 35 35 33 33 36 36 36 35 34 34 29 29 27 26 24 22 21 20 18 18 19 21 20 20 22 19 19 20
24 24 24 23 25 20 19 16 18 18 24 20 20 21 20 34 38 32 34 29 37 37 39 38 37 33 31 29 28 27 24 23 21 21 23 23 23 23 21 21 22 22 21
26 25 22 25 21 19 17 18 22 22 22 20 26 23 27 33 40 33 28 25 42 33 43 43 40 37 33 33 31 27 26 26 25 25 25 25 25 25 23 24 20 20 18
24 25 22 21 18 20 17 19 19 22 26 26 30 26 24 41 43 41 29 29 35 37 36 44 39 36 37 35 33 29 27 28 26 25 27 26 25 27 26 20 19 19 18
23 26 25 24 22 20 19 18 19 21 26 25 29 30 28 35 40 42 38 37 30 32 35 42 42 38 39 38 33 30 29 28 27 29 28 25 23 25 24 19 20 18 20
23 25 27 22 19 19 21 21 21 22 22 23 26 30 34 36 39 49 39 40 35 31 35 40 44 39 42 37 35 33 33 31 29 28 28 21 20 18 18 19 20 19 18
23 23 27 24 19 19 20 22 21 17 19 23 25 22 33 40 32 41 49 38 40 38 40 40 44 42 41 36 37 36 33 29 29 27 24 21 21 20 19 19 18 17 19
23 24 24 22 19 20 19 21 20 20 19 24 24 24 25 33 34 43 45 51 48 37 41 42 45 47 42 36 35 32 28 27 27 23 21 21 21 21 21 21 19 20 22
23 22 21 22 21 21 20 22 19 21 22 27 24 27 19 24 28 34 50 47 39 43 43 43 46 35 30 27 27 23 24 23 22 20 21 22 22 22 22 24 24 22 23
19 18 18 20 22 19 19 22 19 18 18 23 21 20 24 27 26 37 45 49 25 24 26 31 30 32 31 25 20 21 21 20 17 17 16 18 19 18 15 16 21 25 26
14 14 12 16 14 12 18 21 19 17 14 20 14 23 34 30 26 32 26 25 25 25 25 27 26 23 21 21 20 22 20 17 14 16 17 19 20 21 23 25 27 28 29
11 11 10 10 9 10 14 17 17 14 10 8 11 13 23 25 22 22 19 16 16 17 19 18 19 19 20 20 20 20 15 12 15 16 18 22 24 25 26 28 31 32 35
10 10 9 9 6 5 12 18 18 14 12 10 13 11 11 15 18 20 20 16 13 13 13 15 17 19 20 19 18 19 20 20 18 18 22 23 23 25 27 28 30 32 33
11 10 11 11 9 9 8 17 21 16 16 10 12 6 9 14 17 16 18 20 16 14 15 15 17 18 17 18 20 20 20 21 22 26 27 27 26 28 28 29 31 35 38
9 8 9 11 8 12 8 10 18 19 17 11 12 11 12 11 12 18 17 17 16 14 14 14 15 15 16 19 20 20 21 24 28 30 30 28 27 30 31 35 34 37 41

GFSSE_500_spd_090.txt.gz
Wind_Speed
30 31 32 31 29 29 29 30 31 33 34 35 34 33 31 29 26 28 30 33 29 30 30 31 28 27 28 24 20 18 16 13 10 9 7 6 5 4 3 4 5 6 8
31 30 30 30 31 30 32 32 33 34 34 35 34 34 34 32 31 28 29 30 30 31 31 30 31 26 24 22 20 16 14 11 9 8 8 6 6 4 4 6 7 8 10
36 32 28 27 27 28 30 31 32 34 34 34 35 36 37 38 36 33 29 29 29 24 27 29 32 33 30 24 17 15 15 12 11 9 6 6 6 5 5 7 9 10 11
32 27 20 21 21 22 23 23 24 28 31 32 36 37 37 37 36 35 33 28 27 29 29 35 37 31 27 24 22 18 14 12 10 9 9 6 5 6 6 8 10 10 12
25 21 19 17 20 22 22 24 23 24 29 32 35 38 39 38 36 34 35 35 31 28 33 33 37 30 26 23 18 18 16 14 13 10 7 7 7 8 8 10 11 12 12
22 21 19 20 22 23 24 26 27 29 34 29 37 44 42 39 33 31 33 31 30 30 32 38 36 35 31 24 21 18 17 16 14 13 8 9 9 10 11 11 12 13 12
21 21 21 23 25 25 25 26 27 32 39 35 37 32 40 42 39 34 30 30 31 29 34 38 33 30 25 25 22 21 19 17 14 11 11 10 10 11 12 13 12 13 12
21 21 24 26 26 28 27 26 28 33 38 37 39 30 30 39 27 45 40 33 31 30 33 35 34 31 27 24 25 20 18 16 14 14 13 13 12 13 15 15 13 12 13
19 21 23 27 27 28 28 28 30 31 29 36 38 37 39 19 26 30 27 38 36 32 34 32 30 28 27 27 25 20 19 16 17 15 15 14 14 14 13 14 16 14 12
21 22 25 30 30 29 27 28 30 29 29 26 35 31 25 22 32 35 31 36 36 32 40 33 30 29 28 26 23 22 19 18 16 16 16 16 14 13 17 16 16 15 14
23 24 25 27 27 23 23 25 32 22 20 16 24 29 30 28 33 28 31 27 33 36 39 32 33 32 31 27 22 21 20 20 15 14 17 19 17 16 16 16 17 17 17
21 20 22 26 27 20 21 23 26 19 16 21 24 17 19 17 28 30 38 33 31 30 36 37 37 33 30 28 24 22 23 19 14 15 19 20 17 19 20 19 19 19 18
19 22 23 24 26 23 23 21 20 18 24 26 28 22 21 20 23 33 34 30 31 33 37 37 38 36 33 31 27 25 24 19 17 18 19 21 22 22 23 20 19 19 19
20 24 20 22 23 21 20 20 18 22 19 21 20 17 17 16 29 29 32 33 30 31 36 39 38 38 36 35 30 30 25 19 22 21 24 23 22 24 25 23 22 20 19
19 25 24 22 21 21 21 21 18 18 19 24 19 22 21 18 20 21 30 31 32 33 38 36 39 43 40 37 33 31 24 23 22 25 24 22 25 24 25 23 24 23 17
19 23 25 23 20 21 21 22 19 19 20 20 23 25 25 20 17 23 35 32 34 31 38 32 44 43 41 40 35 31 27 28 27 25 25 26 26 26 22 22 23 21 18
21 19 22 23 21 21 20 22 19 21 14 23 23 29 32 24 22 27 34 41 31 29 32 42 32 34 43 43 36 32 31 30 28 29 30 26 26 22 18 19 20 17 17
22 19 22 23 23 21 21 20 20 22 20 17 18 21 24 24 29 29 37 41 41 34 31 30 32 32 35 44 37 32 32 32 32 32 26 23 20 17 14 14 14 14 14
22 20 22 22 23 22 19 21 19 22 24 17 14 19 21 24 28 28 37 36 40 44 39 37 34 31 34 38 40 34 34 34 31 26 21 18 18 14 14 15 15 17 18
18 19 20 21 22 24 20 20 18 20 23 20 17 18 22 26 25 29 33 32 36 47 41 37 38 34 32 36 38 26 28 26 24 20 17 17 14 14 14 15 17 18 21
17 18 17 19 21 23 19 17 18 19 22 22 21 20 19 28 29 27 33 32 39 45 53 43 40 29 33 31 27 24 21 18 17 17 15 13 12 12 14 15 15 15 19
17 16 15 16 20 21 17 13 15 20 17 18 22 25 24 26 26 28 29 22 30 43 53 36 28 25 29 25 23 21 17 15 17 15 13 13 13 13 16 14 18 20 21
15 14 13 13 14 18 13 12 14 17 18 23 18 20 12 19 24 21 25 33 38 48 45 38 25 25 25 23 21 17 16 14 15 14 11 12 13 16 19 21 22 21 21
14 14 12 13 12 14 11 9 12 16 21 16 14 13 14 20 33 34 30 32 32 30 30 22 20 20 17 17 16 17 17 14 11 10 11 14 15 18 20 20 20 23 26
14 14 13 13 10 9 11 10 13 19 19 15 10 14 14 10 18 25 25 22 19 18 17 17 16 13 14 16 18 18 17 19 18 19 21 21 23 23 22 25 24 25 29
10 13 12 10 9 12 12 13 9 16 19 14 11 11 8 9 16 19 22 19 15 12 14 16 17 16 14 19 16 14 15 15 18 20 22 25 23 22 23 25 27 32 35

GFSSE_500_spd_093.txt.gz
Wind_Speed
32 32 33 34 33 29 29 30 33 34 35 36 36 36 35 34 33 29 28 31 29 28 28 26 28 26 25 25 25 25 24 21 19 18 16 14 12 9 8 7 6 5 5
32 33 34 34 33 33 30 29 31 33 32 33 34 34 33 33 31 31 27 28 31 31 28 29 28 29 26 27 26 23 21 21 20 19 17 14 11 9 8 7 6 6 6
35 35 33 29 29 30 28 25 25 27 31 34 34 34 34 34 32 31 29 29 27 27 31 27 26 28 30 30 27 24 22 23 20 16 15 12 11 9 9 6 7 8 8
34 31 30 29 26 21 18 20 20 21 23 27 32 36 36 37 35 35 35 32 32 28 28 25 27 29 31 29 26 29 24 20 16 15 13 13 12 11 9 9 8 7 8
29 28 27 26 22 18 17 19 21 22 23 26 28 31 36 40 39 37 35 35 32 28 28 26 29 31 33 35 36 31 25 19 16 13 13 11 9 9 9 10 9 9 10
28 26 24 23 20 21 20 21 22 22 25 28 30 33 32 36 36 41 36 35 35 30 28 30 34 35 36 35 31 26 22 21 18 16 14 14 12 10 11 11 11 12 11
27 22 25 24 21 23 25 23 24 25 29 27 32 38 32 41 40 30 33 37 33 35 36 34 35 36 34 38 32 30 24 20 18 17 15 16 13 12 11 11 12 12 11
27 22 23 25 23 24 23 24 26 27 29 29 34 40 34 41 35 39 44 37 31 35 35 35 36 37 37 39 38 26 21 19 20 19 16 14 12 12 12 12 14 14 14
26 20 21 22 23 26 27 29 27 26 31 32 32 34 34 38 41 42 34 33 35 30 31 36 40 41 42 36 30 24 22 22 20 19 13 12 13 12 12 12 11 13 15
25 23 23 25 25 25 24 27 28 27 29 33 32 32 34 31 27 41 38 34 37 34 33 35 38 39 40 37 32 28 26 22 22 15 13 12 12 12 10 11 13 13 14
27 26 22 22 21 22 22 20 22 23 29 28 29 23 25 28 33 24 33 26 24 34 36 32 33 32 34 32 29 25 23 22 19 15 14 13 13 11 13 13 14 15 16
27 30 25 24 21 21 20 20 22 25 26 23 22 23 17 35 25 19 31 37 32 33 34 33 33 38 32 29 27 25 26 22 19 16 14 12 10 13 14 17 17 19 19
25 32 27 26 23 22 16 16 18 22 22 21 25 23 19 21 27 32 41 34 35 28 30 32 30 32 28 29 29 25 24 24 21 17 13 12 13 17 17 20 21 22 20
24 27 30 27 24 25 21 18 16 18 18 17 24 20 21 18 21 23 47 35 34 26 26 30 34 34 32 34 34 28 28 26 21 17 15 15 16 17 17 19 21 20 19
28 27 28 25 24 25 25 21 21 18 17 15 18 17 20 16 26 32 36 37 34 30 30 28 31 32 34 36 35 29 33 25 23 20 16 17 18 19 20 20 22 21 20
30 25 30 24 23 22 22 22 21 18 18 15 16 27 17 20 27 26 32 31 35 32 29 28 36 30 36 41 40 35 36 28 25 22 18 21 21 21 21 20 20 18 19
30 24 26 22 20 21 21 21 21 20 20 17 15 16 18 22 22 24 23 27 30 30 30 30 34 33 34 37 42 38 39 31 28 24 24 24 25 21 19 18 17 17 18
29 24 23 22 22 21 22 21 21 21 20 20 19 17 20 21 24 24 22 28 33 33 30 31 35 37 36 34 36 39 40 33 31 30 28 29 26 19 16 16 13 14 17
24 22 21 22 21 19 20 23 23 21 22 23 21 18 15 20 23 22 24 27 36 34 31 32 27 38 37 34 30 34 36 38 34 32 28 27 20 14 14 13 12 13 16
20 20 19 19 18 18 21 21 23 22 22 25 23 20 20 24 21 22 23 25 35 33 38 36 32 32 34 32 28 29 33 39 32 31 25 21 14 13 12 11 11 15 17
17 18 19 17 16 19 22 23 21 22 23 25 21 23 19 22 23 23 24 26 28 31 32 35 37 39 36 30 27 28 29 32 24 23 20 16 14 13 13 13 14 17 20
16 17 16 14 14 17 19 20 16 18 20 22 18 22 24 26 19 23 24 26 30 23 24 26 32 36 35 30 30 29 32 29 22 20 17 15 15 15 15 16 15 15 17
15 16 13 13 13 15 18 20 15 15 18 20 20 20 25 24 19 23 23 25 23 22 21 22 28 39 43 35 28 23 25 23 19 19 17 17 18 18 17 16 17 20 22
15 15 13 14 14 13 14 13 14 16 18 20 19 26 23 20 22 26 28 23 26 26 25 33 38 41 45 35 23 24 22 20 19 20 18 17 14 13 14 15 16 18 19
14 15 14 12 14 14 14 14 13 16 18 19 16 17 20 21 13 20 27 27 24 31 37 38 38 42 32 23 21 20 20 21 20 18 17 15 14 16 17 18 19 21 22
14 14 12 10 12 14 12 12 14 16 18 19 15 10 13 14 12 18 28 28 30 31 32 34 32 25 21 20 21 19 19 19 22 19 16 17 18 20 21 22 23 22 22

GFSSE_500_spd_096.txt.gz
Wind_Speed
30 29 30 31 32 33 33 29 32 33 35 36 37 38 38 38 37 36 33 29 30 26 26 26 27 25 25 25 24 22 23 24 25 24 23 21 19 17 17 14 12 11 9
29 30 32 35 35 32 32 29 29 31 33 34 35 37 38 39 38 38 35 29 28 29 28 27 28 26 26 26 24 23 24 25 24 25 22 20 20 19 16 14 12 10 9
28 30 32 35 31 30 29 29 24 22 26 30 33 36 39 39 37 35 33 30 27 24 29 29 24 25 27 28 25 25 27 28 26 23 21 21 19 17 15 12 13 11 9
28 31 33 33 28 27 27 24 23 21 21 26 28 28 30 33 36 39 37 33 28 26 27 28 29 27 27 27 28 29 27 24 25 22 20 18 17 16 15 14 11 9 8
27 30 31 30 27 27 24 21 21 21 22 22 23 25 26 26 27 33 37 41 33 30 29 28 28 27 27 29 30 29 26 23 23 24 20 18 16 15 12 12 10 10 11
25 28 28 26 25 25 23 23 23 24 24 24 24 27 29 30 31 33 35 38 40 35 31 30 28 29 30 29 30 27 29 32 29 22 21 17 14 17 16 13 11 10 11
26 29 29 25 23 23 23 23 26 27 27 27 23 27 29 32 30 38 44 29 36 34 33 31 30 31 31 31 33 29 35 38 33 26 18 15 14 14 15 12 11 11 12
26 27 27 24 22 23 25 25 26 28 28 30 29 27 31 33 37 40 33 45 42 33 36 36 32 33 32 33 34 36 38 39 26 16 19 16 14 13 13 12 11 12 12
28 26 25 26 24 23 24 26 28 31 33 33 32 33 34 36 37 36 28 38 41 40 28 35 37 35 33 34 36 38 42 34 26 23 15 13 14 14 13 11 10 9 10
26 26 26 25 26 28 28 26 25 29 31 30 32 33 36 40 35 34 35 43 41 39 26 30 36 35 36 34 35 36 40 29 19 14 15 16 13 13 13 10 8 10 11
26 27 27 26 27 26 26 25 25 27 24 26 30 33 37 36 33 32 32 39 32 30 27 28 32 32 33 35 38 43 34 26 17 17 18 15 14 14 12 13 12 11 11
23 28 30 29 28 27 28 23 23 25 24 28 29 30 30 27 25 26 28 35 41 31 32 30 35 29 35 35 37 42 34 24 20 20 18 14 13 11 10 12 13 14 15
20 27 33 32 31 28 27 25 23 21 21 25 27 27 21 24 23 21 35 30 33 30 27 26 32 28 28 29 44 33 22 25 22 21 18 14 14 12 12 13 13 16 18
21 23 31 33 32 30 26 29 26 23 23 24 24 20 19 22 27 31 31 31 35 34 28 27 29 33 27 29 33 26 28 25 24 23 18 16 16 15 13 13 15 17 18
19 23 30 32 30 28 27 27 25 21 22 23 21 18 17 16 21 30 33 39 41 34 32 24 28 32 28 26 29 30 29 28 28 25 20 21 20 17 15 13 18 20 19
23 25 28 29 27 24 25 24 23 20 20 23 21 17 15 18 20 23 34 41 42 34 30 22 25 31 29 31 31 29 30 31 31 26 24 24 22 20 18 20 20 19 19
26 28 29 27 24 24 23 23 23 21 20 22 22 17 11 19 19 27 32 34 40 32 33 27 26 28 28 32 31 32 35 36 35 33 26 27 27 23 22 23 21 19 18
26 29 28 25 24 25 25 23 23 21 21 22 23 20 15 16 22 31 29 33 35 31 31 32 27 28 31 29 29 35 38 40 40 37 31 31 30 27 25 24 22 19 20
27 26 26 21 21 24 25 22 22 23 23 23 24 22 17 17 18 25 33 31 26 32 31 29 27 28 28 30 32 33 36 38 41 40 39 36 33 29 25 23 19 18 18
25 23 22 18 23 23 21 22 22 24 27 26 25 23 22 18 18 20 31 22 21 26 34 32 31 30 31 34 35 37 33 27 38 42 41 41 33 26 23 21 19 18 19
22 21 19 19 21 19 18 20 21 24 27 26 26 23 24 21 24 23 20 25 23 24 35 34 33 32 32 29 38 36 27 28 26 32 34 36 29 26 23 21 20 20 19
20 20 18 18 18 18 19 20 21 21 23 25 23 23 23 23 23 25 27 25 24 25 32 36 33 36 34 31 32 36 25 27 26 26 29 29 27 23 23 23 21 21 20
19 19 18 17 17 18 19 21 21 20 19 19 19 21 20 23 26 24 25 27 27 29 29 34 31 30 21 22 25 27 30 31 31 28 29 26 24 24 23 23 23 22 21
18 17 17 17 17 18 19 21 21 19 16 18 19 24 23 20 25 27 29 31 29 38 35 22 20 20 25 26 28 32 34 30 23 27 27 28 24 24 23 20 19 18 19
20 18 17 17 16 16 18 19 21 20 19 14 17 23 23 26 30 33 32 32 31 35 34 29 25 25 35 32 31 34 33 28 27 28 27 24 22 20 18 17 19 22 24
22 17 17 15 15 15 17 17 20 19 19 17 19 19 17 20 27 29 35 35 30 27 33 23 33 38 37 39 36 35 30 28 27 23 24 26 25 23 22 22 23 25 25

GFSSE_500_spd_099.txt.gz
Wind_Speed
28 28 28 27 28 29 31 31 30 29 31 32 33 34 36 38 38 36 34 34 34 34 31 27 25 24 22 24 22 22 21 20 22 21 22 24 23 22 20 18 17 15 13
28 29 29 29 29 32 34 33 30 29 28 28 30 33 34 35 37 36 36 33 31 32 30 30 27 24 24 23 22 23 22 21 21 21 23 24 22 21 21 19 17 15 14
28 28 28 30 30 33 34 30 28 28 27 26 27 28 29 32 35 35 33 31 30 30 30 28 28 27 26 25 23 24 23 23 21 22 25 26 24 20 19 18 17 14 12
28 27 27 28 29 31 30 29 27 24 22 23 23 24 24 26 28 29 30 28 27 28 30 28 29 29 27 27 25 25 25 23 23 24 24 22 21 20 19 17 13 11 10
29 28 27 27 30 29 27 28 25 23 21 21 22 24 25 27 28 27 23 22 24 27 29 31 27 27 28 26 23 25 26 26 25 24 22 21 20 19 16 16 13 11 9
27 27 26 26 28 27 26 24 24 24 24 25 26 25 26 27 28 31 26 24 22 25 30 34 31 26 27 25 22 25 28 29 27 26 24 22 20 17 19 13 14 12 12
26 24 23 24 26 25 24 24 25 26 26 27 27 27 27 28 28 26 26 27 32 24 37 37 35 30 24 23 24 28 30 29 28 26 23 26 23 26 14 8 9 14 10
28 22 23 23 24 24 23 23 26 28 29 30 29 30 30 30 29 29 28 34 30 35 39 45 35 33 26 26 28 28 28 33 31 31 31 31 27 9 10 13 13 11 11
29 24 24 23 22 22 25 25 27 29 32 33 31 33 35 34 32 33 36 37 38 35 33 45 31 32 27 27 28 30 32 31 33 36 35 36 13 9 12 11 11 10 10
30 25 26 24 23 22 24 27 28 29 30 30 31 31 33 34 34 35 41 39 38 32 35 30 25 31 29 28 31 32 31 36 37 37 41 18 8 10 10 10 12 10 11
28 25 26 24 22 23 25 27 29 29 26 28 29 28 29 34 36 38 42 42 34 32 37 42 32 29 30 32 34 36 37 37 36 37 16 9 13 11 11 13 12 12 12
24 26 28 27 23 24 28 28 28 29 26 26 25 28 32 33 33 36 40 39 31 32 33 40 39 25 30 35 36 37 39 37 34 26 13 15 14 12 14 12 11 12 15
22 26 29 31 28 27 29 30 29 28 30 29 27 29 29 28 33 34 33 29 31 30 36 44 29 25 29 31 33 35 38 38 35 23 19 17 15 14 14 12 13 12 15
21 25 28 32 31 30 30 29 28 27 29 30 30 30 30 29 31 26 28 28 33 36 37 27 21 25 31 31 31 45 43 42 36 23 19 19 17 17 16 15 13 15 16
21 24 27 31 30 33 31 27 27 28 29 28 28 28 26 30 20 17 28 31 35 41 34 27 22 24 28 28 25 28 32 33 23 21 22 23 21 19 18 16 14 15 18
22 25 26 31 30 32 27 26 26 26 27 25 27 26 25 26 17 21 25 34 32 34 37 32 24 26 26 27 23 24 27 24 24 23 27 27 25 23 22 21 22 21 22
23 28 28 30 31 29 24 24 26 26 27 26 26 24 21 24 16 24 21 35 26 34 37 32 28 22 26 29 28 27 27 26 27 30 29 29 27 26 24 24 26 23 23
26 29 31 30 32 27 23 23 22 23 26 24 26 24 21 20 21 20 21 29 30 37 36 30 23 18 26 28 32 31 28 29 31 32 31 33 31 30 29 28 28 27 26
29 31 31 29 30 24 21 20 22 22 24 26 27 27 22 20 20 19 25 19 36 45 42 32 29 24 22 26 31 34 31 32 32 34 37 37 37 34 34 32 32 30 28
30 31 29 28 25 22 22 22 22 20 22 25 30 32 24 21 19 18 21 31 30 35 38 31 27 28 26 30 36 37 34 32 35 37 34 39 39 39 40 35 30 30 28
29 31 27 28 21 22 23 21 21 21 23 28 29 31 27 22 22 18 23 33 35 29 25 30 32 29 29 32 33 34 33 35 35 31 30 31 37 45 37 31 32 31 28
26 28 27 26 20 22 23 21 22 22 24 25 25 25 25 23 24 22 27 29 26 22 26 27 35 33 30 30 30 32 30 34 34 25 23 24 23 31 35 33 32 30 28
22 27 28 23 20 21 23 23 24 22 23 22 24 21 23 22 25 32 28 29 30 29 25 27 33 36 32 32 32 29 27 27 25 26 27 29 29 29 33 33 32 30 30
21 26 28 21 19 22 24 23 24 23 24 21 20 18 21 23 26 24 24 26 31 28 32 30 31 35 36 34 32 19 19 25 27 27 32 30 29 31 34 33 31 30 29
25 26 28 23 20 22 22 22 22 21 21 21 25 20 21 24 24 23 27 30 30 28 31 36 30 31 31 23 21 27 30 29 30 30 30 32 31 35 35 33 29 26 27
28 27 29 23 21 21 20 20 21 20 20 23 24 22 24 27 25 29 33 32 35 34 33 37 28 33 28 26 27 33 33 32 31 32 33 31 34 36 32 24 23 23 24

GFSSE_500_spd_102.txt.gz
Wind_Speed
21 21 23 25 26 25 24 23 22 25 24 23 25 26 28 27 26 26 28 29 29 31 31 27 26 26 24 22 20 20 20 17 17 16 15 17 17 20 19 19 19 17 15
23 23 25 26 27 27 26 25 27 28 25 24 22 21 21 22 23 23 26 27 26 27 28 29 26 25 26 24 22 21 20 19 18 16 17 16 19 20 21 20 18 17 16
24 26 26 27 28 26 24 25 27 25 25 23 20 19 18 20 22 25 25 25 24 23 25 27 27 26 25 24 22 20 19 19 18 19 19 21 21 21 21 18 16 17 13
25 25 27 28 27 25 23 25 24 23 21 20 19 19 18 19 21 23 21 20 20 24 24 24 27 28 25 25 24 21 19 19 20 20 20 21 22 21 18 16 17 16 10
24 25 28 29 27 24 23 24 23 22 20 19 20 19 22 22 22 24 21 20 15 17 25 24 25 27 27 25 23 22 21 21 21 21 21 22 20 20 18 16 14 12 14
24 25 27 28 25 20 22 21 21 21 20 22 22 22 23 25 25 24 23 26 18 17 17 20 23 25 28 27 23 23 23 23 23 22 22 24 19 20 19 18 14 15 9
24 22 26 25 23 21 20 20 19 20 21 24 25 25 26 27 26 25 24 30 24 22 23 22 22 25 27 27 25 25 25 24 23 24 23 23 22 22 24 24 22 10 9
26 24 26 24 22 22 20 20 19 21 22 25 26 28 29 31 30 29 29 29 28 24 26 26 21 23 28 28 28 27 25 23 23 24 24 23 24 26 27 24 7 9 10
26 24 25 25 22 20 20 19 20 22 25 28 29 29 28 30 33 34 32 31 30 30 28 29 29 27 35 33 32 28 25 22 25 26 25 26 29 32 30 6 10 11 10
24 24 27 26 24 21 20 20 20 21 23 26 27 28 30 32 31 29 29 30 29 31 31 31 28 29 33 34 33 28 27 25 25 26 24 25 31 34 13 13 12 10 10
25 24 27 26 24 22 23 23 24 24 24 26 25 26 28 30 28 29 30 32 32 33 34 31 23 29 32 36 33 28 27 27 28 29 31 33 37 30 14 13 12 10 11
22 23 28 28 25 21 22 25 27 28 25 24 24 25 26 27 28 29 31 32 32 31 30 32 25 26 29 34 30 29 27 27 27 28 31 31 16 14 15 14 12 11 13
22 22 27 30 28 25 23 25 30 31 26 23 24 25 28 28 31 33 32 32 33 29 29 29 29 32 19 27 32 30 29 30 31 32 31 21 17 15 17 14 13 13 14
24 22 26 30 30 28 27 28 32 32 25 23 25 26 28 28 30 33 31 37 32 29 32 33 32 40 23 27 33 34 32 31 29 34 33 26 21 18 17 16 15 14 15
24 22 27 29 30 29 28 31 34 33 26 22 24 26 25 27 27 30 33 24 28 29 34 31 30 37 33 32 31 31 32 35 33 33 31 27 21 21 20 19 18 16 17
26 25 26 29 29 28 29 30 34 32 27 24 25 27 27 28 28 24 29 21 21 27 31 31 26 27 35 28 29 31 25 23 31 37 30 30 24 22 23 21 20 19 21
26 26 27 30 27 29 29 31 32 29 24 24 24 27 27 27 27 24 25 17 23 32 36 42 30 28 28 27 34 33 25 22 28 24 30 29 23 24 26 24 23 25 25
29 25 31 31 28 30 29 30 29 22 21 22 21 25 27 26 26 22 24 18 20 27 31 36 32 28 27 34 31 26 21 21 22 23 24 24 23 27 30 30 28 28 28
32 29 32 30 31 30 28 28 25 22 20 22 21 22 27 28 28 24 24 17 25 28 34 36 33 29 27 29 28 29 26 25 27 25 26 26 29 33 35 36 35 33 33
33 31 33 31 30 30 27 27 22 20 20 21 23 24 28 31 27 24 23 20 25 34 37 32 40 30 32 31 30 30 30 29 28 29 30 32 35 40 37 37 38 37 34
33 31 35 34 31 29 27 26 20 19 20 21 23 23 28 27 25 25 24 23 22 29 33 33 39 33 29 25 26 29 29 30 30 29 30 36 35 26 35 36 38 39 35
33 30 40 40 33 28 27 26 20 20 21 22 23 22 28 23 22 24 24 20 15 24 30 36 40 29 27 28 29 31 30 30 32 30 37 40 21 20 22 24 33 39 37
31 28 38 38 35 27 28 27 21 21 21 23 24 23 25 21 22 24 23 22 24 27 26 30 37 32 31 28 29 32 29 30 35 35 37 33 33 26 26 28 33 37 38
30 28 40 40 34 27 29 25 21 20 20 23 23 23 24 20 21 26 22 29 17 24 24 25 26 28 32 32 31 28 28 29 19 26 23 24 27 29 32 33 34 35 37
35 32 38 39 33 26 30 23 20 19 21 22 24 22 26 21 20 23 26 24 25 30 30 27 27 24 25 28 31 29 29 20 19 20 24 27 29 31 33 34 34 36 37
35 33 38 37 34 27 29 22 19 19 19 20 24 24 26 19 21 24 28 25 25 24 27 23 21 26 25 25 30 27 29 27 25 30 28 29 31 35 37 37 35 37 39

GFSSE_500_spd_108.txt.gz
Wind_Speed
17 17 18 18 16 14 14 14 15 14 13 14 13 12 12 12 14 16 17 19 22 22 22 23 23 21 18 17 19 22 21 19 19 18 16 17 15 15 13 14 14 15 17
19 18 19 19 19 18 17 16 16 14 15 14 14 13 11 10 12 14 15 15 17 21 22 23 23 22 21 19 21 22 22 22 20 19 17 16 16 14 14 15 14 15 17
18 18 19 20 20 21 20 18 16 15 15 14 13 12 9 10 9 10 12 10 12 15 18 21 22 23 22 21 23 24 24 21 20 20 19 16 16 16 15 15 15 16 16
19 18 18 19 21 21 21 19 16 15 16 13 12 11 10 10 11 12 12 12 14 14 14 18 21 22 23 23 24 25 26 23 22 21 20 19 17 15 15 15 14 15 15
21 20 19 21 21 22 22 21 19 14 14 13 12 12 13 13 14 15 15 15 14 15 15 17 20 21 23 24 25 26 25 24 23 22 22 21 17 16 13 13 15 16 16
21 22 22 21 20 22 21 19 18 16 15 15 12 13 15 15 16 16 16 18 17 15 17 19 15 16 20 23 25 26 26 24 24 25 23 21 18 17 16 14 16 17 18
22 23 22 21 20 19 19 18 15 16 16 16 15 15 17 18 19 18 18 19 18 20 23 16 12 11 13 21 24 25 26 28 27 25 22 21 19 17 16 17 16 19 18
22 23 24 20 20 20 18 17 16 16 17 18 17 18 20 21 20 19 17 19 18 21 20 21 16 14 17 19 24 27 28 27 29 27 25 23 21 20 17 18 18 19 20
23 22 24 23 21 19 17 16 16 18 18 20 21 21 22 23 21 18 17 19 19 19 22 21 14 15 20 18 21 27 28 30 30 30 26 23 23 23 20 18 22 23 21
26 23 23 25 24 21 17 15 16 19 20 22 22 23 24 26 22 19 16 16 17 18 17 18 19 18 21 22 21 23 30 32 32 29 24 24 23 22 22 19 21 22 19
26 26 24 24 26 25 19 16 17 20 21 22 24 24 26 24 23 21 18 16 17 18 19 20 23 25 25 26 28 22 31 35 34 30 26 25 24 19 24 23 24 26 29
27 26 25 25 27 27 26 17 17 20 21 22 24 26 27 24 22 23 23 21 21 22 24 22 23 26 27 27 27 27 33 38 37 33 26 26 24 23 24 24 22 22 20
27 26 26 25 26 29 27 21 21 20 21 22 22 26 27 23 21 22 23 22 23 25 25 23 25 25 28 28 23 26 33 38 36 34 28 27 26 26 27 26 27 28 24
26 28 27 26 27 29 27 25 24 21 23 24 22 25 25 23 23 21 24 22 24 25 26 23 22 25 24 23 22 21 32 36 36 34 31 29 29 28 26 27 33 30 27
29 31 29 27 28 29 28 26 24 23 25 25 24 24 23 22 23 22 23 23 23 23 27 24 30 30 28 27 28 24 41 34 37 35 31 30 29 28 28 26 24 29 26
32 32 30 28 29 29 29 27 25 24 26 27 27 25 23 21 22 23 23 24 24 24 26 26 29 27 30 33 33 28 41 35 37 35 32 33 32 31 31 28 27 27 26
34 36 29 31 33 31 30 27 26 25 26 27 28 25 24 23 22 21 23 23 25 26 26 28 26 21 32 35 24 29 36 37 36 35 35 35 34 34 35 28 31 30 28
37 36 33 32 34 33 32 27 25 25 27 27 28 25 25 24 23 22 23 25 26 28 25 22 23 25 32 36 38 34 37 40 35 35 34 36 36 39 38 30 36 33 29
40 36 33 32 36 36 33 27 27 26 26 27 29 26 25 24 23 24 25 26 26 27 24 18 18 30 27 43 32 38 39 37 38 37 36 38 33 33 31 36 38 34 32
39 37 35 34 36 37 33 27 28 27 27 28 29 28 26 24 25 25 26 26 27 26 20 19 26 29 34 36 35 38 39 37 34 36 36 35 34 34 31 38 38 36 34
42 41 38 38 37 38 35 30 31 29 30 29 30 29 27 25 26 27 28 28 26 23 21 17 16 21 31 40 36 35 43 45 36 37 37 33 29 34 39 42 38 38 36
44 43 41 39 38 39 37 34 33 32 33 30 32 29 28 27 27 28 29 28 26 25 19 22 19 25 26 32 34 35 37 43 37 37 34 32 30 30 35 37 39 41 39
45 45 43 41 39 39 41 39 36 33 30 30 33 30 30 28 28 28 28 28 27 23 21 21 23 24 33 36 37 35 35 35 37 32 35 32 32 33 35 36 38 33 32
47 46 45 43 41 39 41 42 38 35 31 31 32 30 30 28 29 28 29 27 28 22 21 24 23 22 28 34 31 35 33 34 36 37 39 37 36 37 38 36 36 29 29
45 44 46 45 42 40 42 43 40 36 31 31 32 30 29 29 30 30 31 30 27 26 25 23 14 21 29 32 28 39 31 33 34 37 39 39 40 41 40 37 34 27 32
43 43 44 43 44 42 42 44 41 37 34 32 30 30 29 29 31 29 30 32 28 26 26 26 21 19 24 23 26 29 24 27 32 34 33 39 42 41 39 36 30 27 27

GFSSE_500_spd_111.txt.gz
Wind_Speed
14 14 13 13 15 16 18 17 16 16 15 14 14 15 15 14 13 14 15 16 18 21 21 21 21 20 21 20 19 20 22 23 21 21 19 19 19 17 16 16 15 13 13
16 15 13 13 14 15 17 17 18 18 17 16 15 14 13 13 13 14 16 17 17 17 19 21 22 22 22 22 21 21 22 24 24 23 21 19 19 18 17 17 15 14 13
16 16 14 13 14 14 15 17 18 18 18 16 15 15 13 12 14 16 14 13 14 15 15 17 21 23 24 24 24 23 24 25 25 24 23 21 18 18 16 14 14 14 12
16 14 13 11 14 15 16 17 18 19 18 15 15 14 14 14 13 12 14 15 14 14 14 16 16 17 23 24 24 25 25 25 26 25 23 23 20 18 16 16 14 13 12
17 15 14 13 16 17 16 16 17 19 18 15 14 15 14 14 15 14 16 16 16 16 14 15 16 18 18 24 25 25 27 27 27 25 26 25 21 18 17 16 14 12 14
19 15 16 14 16 17 17 17 17 17 17 15 15 15 15 17 17 16 17 17 16 16 16 14 15 20 18 22 26 27 27 27 28 27 28 24 22 19 18 17 14 12 15
21 18 17 15 16 18 19 17 17 16 15 15 15 17 18 20 20 18 19 20 19 17 16 19 21 20 13 15 24 25 28 29 30 26 28 25 23 20 16 16 15 15 16
23 21 19 18 15 17 20 18 18 16 16 15 16 19 20 21 21 21 21 20 19 17 18 20 19 20 16 14 17 25 27 30 32 29 28 26 23 21 19 17 17 17 17
25 24 20 22 19 17 18 18 19 18 17 17 17 20 22 21 20 22 24 23 19 19 18 20 22 17 19 21 16 21 25 27 32 30 30 27 24 23 21 19 18 19 19
27 28 22 24 25 20 18 18 19 19 19 20 19 21 23 22 22 22 22 22 21 17 17 18 17 19 21 20 18 16 21 24 31 32 31 30 28 25 23 21 20 19 21
28 30 27 25 28 26 21 18 17 20 20 21 21 22 24 23 24 22 23 24 21 19 17 17 17 18 20 23 20 18 20 27 31 33 31 32 31 25 24 22 22 21 22
28 30 29 28 29 29 28 20 17 19 21 22 22 23 24 25 23 24 23 24 25 24 21 19 20 21 22 24 26 24 28 30 30 33 33 33 30 27 24 24 24 23 24
29 28 31 31 29 30 30 24 21 18 21 21 22 22 24 24 24 24 23 23 23 21 23 24 24 23 24 25 26 28 29 30 25 33 34 35 31 28 26 25 25 24 23
28 29 32 34 32 30 31 30 24 20 22 22 22 23 24 24 25 23 23 24 22 22 24 23 23 25 26 27 27 29 28 22 24 30 35 35 34 31 27 27 25 23 27
29 32 34 35 34 30 31 32 30 23 23 24 23 24 25 25 26 23 23 25 24 24 25 23 24 25 28 26 31 26 25 21 37 39 36 39 37 32 28 27 25 27 29
31 34 34 35 35 30 33 32 33 28 25 25 24 24 23 26 25 23 23 24 25 26 27 26 26 24 28 29 24 25 25 24 30 33 36 36 35 33 29 28 26 26 26
33 34 35 35 34 32 33 34 36 31 29 25 26 25 23 25 25 25 24 21 22 23 25 26 28 30 30 25 27 31 29 32 32 37 30 35 36 34 31 29 27 24 24
36 36 34 35 34 33 35 37 35 34 31 28 27 25 24 25 26 26 25 22 22 22 24 29 31 30 28 24 29 29 31 34 30 33 33 35 35 33 32 30 30 26 28
39 36 36 35 31 32 35 38 35 36 33 31 30 26 26 25 27 28 26 24 24 23 25 29 29 29 30 27 30 36 33 27 25 31 34 35 34 33 34 32 32 28 30
40 38 37 35 33 32 36 38 36 36 33 34 34 28 27 27 28 28 29 27 28 26 26 29 28 32 28 33 29 34 38 36 29 34 33 35 35 35 33 30 34 34 35
42 41 40 38 35 34 36 38 36 36 35 36 36 32 28 29 30 29 30 30 30 29 26 29 27 25 33 29 37 38 38 40 35 35 37 38 39 36 34 36 34 33 33
45 44 43 41 38 36 37 38 38 38 37 36 36 34 31 29 31 31 31 31 32 31 28 30 27 26 18 21 36 34 40 40 35 35 37 35 38 37 34 34 35 35 37
45 45 43 43 40 40 38 36 39 39 37 38 35 38 31 29 32 31 32 32 33 32 28 28 24 23 25 23 32 24 38 38 35 35 39 36 34 34 34 33 33 39 41
44 45 45 43 41 41 40 37 38 38 37 38 38 39 31 30 31 31 31 33 35 32 30 29 24 26 24 23 30 28 28 34 40 36 39 40 37 36 34 33 31 37 41
46 47 46 44 44 44 41 38 38 40 39 40 40 38 31 27 30 31 32 33 37 33 32 30 31 26 24 23 27 36 37 35 37 30 33 41 38 37 36 36 37 37 40
48 46 44 44 43 44 42 40 39 41 42 42 40 38 32 27 29 30 32 34 35 34 34 34 30 28 29 27 29 28 40 32 31 27 32 39 37 38 41 43 40 41 41

GFSSE_500_spd_114.txt.gz
Wind_Speed
12 13 13 12 11 12 15 17 19 17 17 18 19 19 19 17 16 16 16 16 18 20 20 20 21 22 23 24 24 23 23 23 24 23 21 22 18 19 18 18 16 15 12
15 13 13 13 13 12 13 14 15 15 16 16 17 18 18 18 16 15 16 17 18 19 17 19 18 20 23 25 25 25 25 24 24 24 24 21 21 20 20 19 16 13 14
17 15 14 13 13 12 12 13 14 15 16 16 17 16 16 16 16 16 18 18 18 17 17 16 14 16 19 22 25 26 25 24 23 22 24 24 22 21 20 18 14 15 15
17 17 15 12 13 11 11 12 13 13 15 15 16 15 15 15 16 17 18 19 19 19 17 17 17 17 16 19 24 26 27 25 24 24 25 23 23 21 19 19 14 13 14
19 17 14 12 11 10 11 13 15 14 14 15 16 15 15 16 16 16 18 19 21 22 19 18 17 16 19 16 21 25 28 28 27 26 26 25 24 23 19 16 14 13 12
20 17 13 12 11 11 11 12 14 15 15 16 15 16 16 15 16 17 18 19 21 21 21 20 16 11 11 16 19 24 27 28 27 27 27 26 25 24 20 17 14 12 10
21 20 15 14 13 12 12 13 14 14 16 16 14 14 15 17 17 19 20 21 22 20 23 23 22 21 21 19 18 23 26 27 28 27 27 26 25 23 20 18 16 14 12
23 21 19 16 17 13 15 14 14 16 16 17 17 17 17 18 18 19 20 20 21 21 21 23 25 22 19 19 16 19 25 26 25 16 21 29 27 24 22 20 17 16 14
24 24 20 19 20 18 16 15 16 16 16 17 19 19 19 18 19 19 21 20 20 22 20 24 23 21 21 21 20 17 17 20 22 29 30 28 27 25 23 21 18 15 14
25 26 24 22 23 21 19 18 18 19 17 17 19 21 20 19 20 20 21 21 21 21 21 23 21 20 18 19 17 17 18 19 20 27 28 29 29 27 24 21 20 17 16
26 29 27 27 27 25 23 19 19 21 18 19 19 22 22 22 21 20 21 21 21 22 23 22 18 19 18 20 20 21 18 15 14 21 26 29 31 30 27 24 22 20 17
27 29 30 29 29 28 26 24 21 23 19 20 22 23 22 22 22 22 21 22 21 19 23 25 22 21 20 21 21 21 24 18 18 26 28 28 33 32 30 27 25 22 20
28 30 31 32 29 31 29 27 26 25 23 21 21 23 23 23 24 23 21 23 22 20 20 21 24 24 24 25 24 22 23 21 25 27 22 23 33 32 32 30 26 23 23
29 30 31 31 30 32 31 28 29 29 24 23 22 23 23 24 25 23 22 22 21 21 20 21 24 24 24 25 28 26 24 26 31 28 36 36 39 32 31 29 25 24 23
36 32 31 32 30 33 32 29 30 28 29 24 24 24 23 25 25 23 22 21 21 21 23 21 23 22 22 24 26 25 25 27 30 23 24 29 30 30 29 29 27 26 22
35 36 35 30 31 33 33 30 30 31 30 27 25 25 25 25 25 25 23 22 21 21 21 20 22 23 24 26 24 27 29 31 30 21 22 28 28 31 30 29 29 27 25
33 33 42 31 32 33 35 31 30 33 31 30 28 27 27 26 26 25 24 24 23 22 20 18 21 23 25 27 30 29 27 24 30 25 24 29 30 30 32 33 31 30 26
34 36 39 38 30 32 36 31 31 33 32 29 28 30 29 27 27 25 25 26 24 23 22 22 24 26 26 29 28 23 26 28 26 31 27 28 31 29 31 33 32 29 28
37 40 36 39 29 29 35 34 31 32 34 32 28 30 32 29 29 26 24 25 26 25 24 25 27 28 29 27 24 24 25 30 32 34 27 30 32 24 31 33 33 31 31
41 42 38 37 35 29 31 34 33 32 31 35 32 31 33 31 30 30 25 25 27 28 27 26 28 28 31 31 26 27 27 31 34 31 23 22 24 24 31 32 32 30 30
48 42 39 39 35 32 29 32 34 35 30 36 35 33 33 32 33 32 27 26 28 30 30 29 29 32 32 30 29 31 32 30 39 34 31 19 23 30 32 34 32 31 26
52 45 42 43 39 36 32 32 36 36 33 36 37 34 32 31 34 32 28 26 28 31 32 30 29 32 31 30 33 29 36 35 37 39 35 27 29 31 34 35 34 33 33
49 45 46 44 42 39 36 33 36 33 35 36 35 36 34 34 32 32 30 28 28 31 32 32 29 32 31 28 23 22 30 40 33 36 35 31 28 34 34 36 35 35 34
44 46 47 44 40 40 37 37 35 34 36 37 37 36 36 36 31 33 31 28 29 30 32 34 30 29 29 28 26 30 19 30 32 34 34 31 28 32 32 35 35 37 33
49 48 48 43 41 42 42 40 37 36 37 37 38 36 35 38 33 33 30 28 28 30 32 35 33 29 31 29 30 25 24 28 26 30 27 30 32 34 39 34 35 34 31
51 52 48 45 43 42 42 42 39 37 35 36 39 37 35 37 35 33 30 30 28 29 32 36 35 33 33 30 29 25 25 26 30 29 28 31 33 34 36 38 35 35 33

GFSSE_500_spd_120.txt.gz
Wind_Speed
10 18 17 14 14 15 14 15 13 13 14 15 16 16 16 17 16 16 15 15 15 15 15 17 18 20 21 22 23 23 23 20 21 21 20 21 20 22 18 19 17 16 15
14 18 20 16 14 14 13 15 15 14 14 14 15 15 15 16 17 17 16 15 15 17 18 18 17 16 17 18 22 25 24 24 26 26 25 24 23 20 20 22 17 16 15
19 21 22 19 15 13 12 15 14 13 14 13 14 14 12 13 15 15 16 16 16 17 19 19 19 18 17 16 16 20 26 28 28 29 29 28 28 27 22 19 19 17 17
21 23 22 19 15 13 13 13 13 12 13 12 12 13 12 12 14 15 17 18 17 18 19 20 20 19 19 17 16 16 20 25 29 30 31 29 29 28 25 22 19 18 17
23 25 24 21 15 15 14 14 13 11 12 11 11 12 13 12 13 15 16 18 19 21 21 21 19 19 18 18 16 14 14 19 26 30 32 31 28 26 23 22 18 18 16
27 25 25 22 17 15 15 15 14 12 12 11 11 11 13 13 13 14 16 18 20 21 21 20 19 18 19 18 19 18 20 20 22 26 29 27 27 26 22 20 19 17 15
30 28 26 25 20 17 17 15 14 13 12 13 11 12 12 13 14 15 16 17 20 20 20 20 18 19 19 19 19 20 20 19 20 21 28 26 25 23 23 21 20 18 13
28 29 28 27 25 21 18 17 16 16 15 16 14 13 13 13 14 15 16 17 19 18 18 20 19 18 18 18 19 22 20 20 16 21 26 22 25 23 23 23 20 18 16
27 29 29 28 28 25 20 18 17 18 18 18 17 17 16 14 14 14 16 17 18 18 17 19 20 20 19 18 18 19 18 17 13 17 22 25 21 24 25 24 22 18 17
25 28 26 29 30 26 23 20 18 18 19 20 19 18 19 17 15 14 15 17 18 18 18 18 20 20 20 19 18 20 16 12 18 17 19 23 27 26 22 22 23 21 19
26 26 26 29 30 28 25 22 18 18 19 20 21 19 19 18 17 16 16 17 18 19 19 19 19 18 19 20 19 18 15 16 19 19 19 19 28 27 23 21 23 23 22
27 30 27 26 30 28 27 25 22 19 20 21 21 20 19 19 19 18 18 18 17 18 19 19 18 17 18 19 19 19 18 18 20 20 21 20 25 17 20 22 24 24 24
32 34 31 27 30 28 28 28 25 22 22 22 23 21 19 19 20 19 19 19 19 18 19 19 17 16 17 18 20 21 20 22 22 22 19 19 19 21 23 26 27 27 26
33 34 37 29 30 29 29 30 27 24 23 22 23 24 20 19 20 20 19 18 18 18 19 19 17 16 17 19 21 19 18 20 19 22 21 19 25 25 25 30 27 27 27
29 33 34 33 31 31 30 31 29 28 26 22 23 25 21 20 21 21 20 18 17 17 19 18 17 15 16 18 19 20 20 21 22 21 23 23 24 25 23 26 29 32 33
31 30 30 35 32 33 32 32 31 30 28 26 23 25 24 23 23 23 20 19 18 16 18 18 16 13 14 16 17 19 21 22 23 24 24 23 26 26 25 25 28 35 33
37 33 32 33 35 33 32 34 32 30 30 28 25 25 26 25 25 24 21 19 19 18 18 19 17 13 15 17 19 20 22 23 27 29 30 30 30 29 27 30 36 25 30
43 39 33 31 30 33 34 35 34 33 29 28 27 27 28 28 26 26 24 21 20 19 19 20 19 16 16 19 21 21 23 24 26 26 29 23 23 23 30 29 27 26 32
39 41 36 31 32 30 32 33 33 36 29 28 27 29 31 30 28 27 27 23 22 21 21 22 21 19 18 21 22 22 24 26 28 26 26 21 19 28 23 30 28 30 32
35 40 38 35 35 31 31 30 32 30 31 30 28 30 32 32 31 28 27 27 25 25 22 22 24 22 20 22 22 23 25 25 26 28 27 27 22 26 30 30 30 32 32
39 39 40 37 37 33 28 28 33 33 35 31 29 32 32 32 31 30 29 29 29 26 27 23 24 24 22 23 23 24 25 26 28 29 23 30 27 27 28 29 30 30 31
45 42 41 39 40 37 34 31 34 37 35 33 30 30 30 33 34 32 32 30 30 27 28 25 24 25 25 25 25 26 25 26 27 23 23 33 33 28 31 31 27 28 29
48 48 47 45 45 42 40 37 35 35 33 35 34 32 34 38 37 33 33 32 30 27 29 28 25 26 27 26 27 27 27 25 27 24 23 23 26 25 28 32 27 28 28
51 52 48 47 45 44 44 41 38 37 37 35 37 37 37 37 38 35 33 33 31 28 29 28 26 26 28 28 28 28 30 25 27 25 25 26 26 32 32 34 32 25 27
56 55 56 46 41 50 44 45 39 36 37 34 34 38 38 38 39 39 34 33 32 31 30 28 25 26 29 29 29 30 31 32 29 28 26 30 25 32 32 34 32 17 32
53 55 57 53 47 48 45 45 42 41 38 36 36 37 38 39 41 40 37 33 34 33 31 29 26 26 29 29 30 31 30 32 30 29 25 26 22 29 35 31 28 25 21

GFSSE_500_spd_126.txt.gz
Wind_Speed
13 15 16 22 22 17 19 17 14 13 12 10 9 10 10 10 10 10 10 10 10 11 13 13 14 14 15 15 15 14 15 15 15 17 18 21 22 17 18 22 22 20 13
16 17 20 22 25 19 19 18 15 12 10 11 11 11 11 10 9 10 10 9 11 12 12 12 12 14 15 15 15 13 13 13 15 16 20 19 15 12 15 21 20 15 15
20 21 21 22 22 20 19 19 15 10 9 9 11 12 11 10 10 10 9 10 10 12 12 13 14 15 15 14 14 14 12 12 13 15 19 20 20 19 20 26 26 12 14
24 24 25 24 24 23 19 19 15 11 11 10 11 12 11 10 10 10 10 10 12 13 13 12 13 14 14 14 13 12 13 12 13 13 15 21 25 26 26 27 23 21 18
27 27 25 26 27 26 20 19 16 13 13 12 12 12 12 11 10 11 11 12 13 13 14 13 13 12 13 13 13 13 13 9 10 14 19 19 21 24 25 26 24 23 20
31 32 28 27 28 28 23 19 17 15 14 13 14 13 12 13 14 13 12 12 13 13 13 14 14 14 13 12 13 13 12 15 15 17 18 18 18 19 23 24 24 22 19
34 35 30 29 29 29 26 22 18 17 15 15 14 15 14 14 14 15 15 13 14 14 14 15 15 14 12 14 13 14 14 14 16 17 17 18 18 16 19 20 20 19 18
34 32 30 31 31 30 29 25 21 19 17 16 15 15 15 16 17 16 16 15 15 15 15 15 16 15 14 15 15 14 14 14 15 14 14 12 15 14 15 16 18 18 18
34 31 30 30 31 31 29 27 24 20 19 18 17 16 16 17 17 16 17 16 16 15 15 16 16 16 16 15 14 13 14 15 16 13 9 12 14 13 15 17 18 17 17
34 33 26 26 29 31 32 29 24 22 20 19 17 16 16 18 18 17 17 17 17 16 15 16 16 17 17 15 12 12 14 14 13 13 13 11 12 13 15 19 21 23 19
37 32 26 26 28 30 29 31 26 23 20 19 18 16 16 17 20 19 17 16 17 17 16 15 16 15 17 16 13 12 14 14 15 14 14 12 14 14 16 14 21 25 22
35 32 26 24 26 27 26 27 28 26 22 20 18 17 16 16 20 20 18 17 17 17 17 16 16 15 17 17 14 12 13 15 15 16 17 15 17 15 15 20 14 14 15
41 33 29 26 28 28 28 27 27 25 23 21 18 18 17 16 19 19 19 17 17 17 18 17 16 16 17 17 15 14 15 16 15 14 14 14 15 16 15 17 16 18 20
46 36 32 30 28 30 27 26 28 26 23 24 21 19 18 18 20 19 18 18 17 17 17 18 17 16 16 17 17 15 15 15 15 14 15 14 15 17 14 15 16 15 14
48 39 33 30 30 29 27 26 27 27 25 24 22 20 20 21 21 20 18 18 18 17 17 17 17 18 16 17 17 17 17 16 16 14 15 14 15 17 16 19 23 19 18
50 45 37 33 30 27 28 28 28 28 28 26 23 21 22 23 22 21 19 19 18 17 17 17 17 19 18 17 18 18 19 18 17 16 17 17 17 19 20 21 22 24 16
53 50 42 36 35 32 29 28 29 30 29 28 26 24 24 24 24 23 21 18 18 17 18 19 18 19 20 18 19 20 21 20 19 18 17 19 19 21 19 23 24 23 22
59 56 47 40 37 34 30 30 29 31 30 29 28 28 26 25 26 25 24 21 19 18 18 20 20 20 22 21 21 21 22 22 21 20 21 21 21 21 21 24 26 26 23
64 60 51 43 37 36 36 31 32 32 32 31 32 31 30 27 27 26 27 26 22 20 19 21 22 21 23 23 22 23 22 24 23 22 23 24 23 25 24 24 23 25 23
67 64 56 45 40 35 38 36 34 35 36 34 35 34 32 29 29 30 30 28 26 23 21 23 24 23 24 24 24 23 24 24 24 24 24 25 25 26 28 23 20 22 26
69 66 59 46 39 39 40 39 37 35 37 36 35 36 36 34 34 33 31 30 30 27 26 25 26 25 26 25 24 24 25 25 26 27 25 25 26 26 25 21 26 20 25
70 67 62 48 42 40 40 39 39 38 38 38 38 39 39 36 38 38 34 33 33 32 28 28 29 27 26 26 26 25 26 25 27 28 28 26 26 26 22 20 23 27 25
72 68 62 54 47 44 41 43 40 41 39 39 40 37 38 40 45 43 37 35 35 34 30 29 30 31 30 28 27 29 27 25 27 27 28 29 29 26 24 25 21 27 25
71 69 66 61 53 48 46 45 42 39 40 40 43 44 47 48 47 45 41 38 34 36 34 34 33 32 32 30 30 31 29 28 27 25 28 32 31 27 28 27 27 22 22
72 70 68 64 59 52 47 44 43 44 44 46 49 48 49 54 50 49 41 39 36 38 38 38 34 34 32 34 33 32 31 30 28 29 27 29 31 29 28 29 27 21 26
72 67 66 65 61 57 49 48 49 50 52 52 52 59 56 51 39 40 39 38 38 39 39 40 38 35 34 36 35 35 32 31 29 30 28 29 29 30 27 30 27 22 32

GFSSE_500_spd_129.txt.gz
Wind_Speed
16 12 13 16 19 17 14 15 15 12 9 6 6 8 9 9 9 8 7 8 9 9 9 10 11 10 11 12 11 11 11 10 11 13 15 17 19 21 19 17 20 23 18
21 18 14 18 22 21 15 15 16 13 8 6 6 7 7 9 9 10 10 8 9 9 9 10 11 12 12 12 11 11 11 10 9 13 16 17 19 16 14 16 15 21 13
20 20 16 18 22 22 19 18 16 13 9 7 7 6 7 8 9 10 10 10 11 10 10 10 9 10 11 11 11 11 11 11 11 10 12 15 18 20 16 16 19 16 14
20 20 21 22 23 22 21 18 17 14 12 10 9 7 7 9 10 9 10 10 13 13 11 10 10 10 10 10 11 10 10 10 10 10 10 11 13 19 22 23 24 18 15
22 21 23 25 25 23 22 21 18 15 14 13 11 10 9 9 9 10 11 10 11 14 14 12 12 11 11 11 11 11 11 10 8 11 13 15 16 16 19 22 23 20 16
25 26 26 26 25 25 23 23 21 15 15 14 13 12 11 10 9 10 11 12 11 13 15 14 12 12 12 12 13 13 12 11 12 13 16 17 16 15 18 20 21 19 15
26 28 29 29 28 26 25 25 22 19 16 16 14 13 14 12 11 11 13 13 12 13 14 15 13 13 12 12 14 14 13 12 11 13 14 15 14 12 16 18 20 18 14
30 32 30 31 30 28 27 25 24 22 18 17 16 14 15 14 12 12 13 15 14 13 13 14 14 13 13 14 15 15 13 12 12 13 12 12 11 10 12 15 17 16 16
34 31 29 31 30 29 27 24 23 22 20 19 18 16 16 15 13 12 13 15 15 14 13 13 15 14 14 15 14 13 13 12 12 10 8 10 10 9 11 13 15 15 15
40 35 33 31 30 29 29 24 22 20 20 20 19 17 15 13 13 13 14 15 15 15 13 14 14 14 14 15 15 14 13 13 12 11 10 10 11 11 12 13 15 17 17
40 37 36 34 30 30 30 27 23 22 17 20 19 17 16 14 13 14 14 16 15 15 14 12 13 12 13 14 14 15 13 13 13 12 12 11 11 13 12 15 13 16 18
39 37 38 34 30 27 29 27 25 23 20 18 19 17 16 15 15 14 14 16 15 14 14 12 12 12 12 13 14 15 16 14 14 14 12 12 12 14 13 15 18 11 16
44 43 39 37 30 28 28 31 26 23 19 18 17 16 16 16 16 15 14 16 17 16 14 13 11 12 12 12 13 14 15 16 14 14 13 12 10 13 13 14 14 13 17
47 46 43 35 30 30 28 30 29 26 23 20 19 18 17 16 16 16 16 16 17 17 15 15 12 11 12 12 13 13 14 15 15 15 15 14 14 14 15 12 13 12 13
53 47 45 39 32 31 29 30 30 29 26 24 21 20 19 18 17 17 18 17 18 17 16 16 14 11 13 12 13 13 13 15 16 16 15 15 15 16 14 15 15 16 10
55 52 46 42 37 33 29 28 30 30 30 28 24 23 22 20 20 19 19 19 19 18 18 17 17 13 14 13 13 14 14 15 17 17 17 18 17 18 19 15 18 18 17
58 52 52 46 41 37 34 30 31 32 33 32 29 26 24 23 23 22 22 22 21 18 18 18 18 17 15 15 15 15 15 15 17 19 19 19 19 19 21 21 18 21 22
62 62 54 52 44 43 37 32 35 35 35 34 34 29 26 26 26 25 25 25 24 19 19 20 20 19 17 17 17 16 17 16 17 20 21 20 20 20 23 22 21 21 24
67 64 62 58 49 46 41 36 37 36 36 34 33 31 32 30 30 29 28 29 27 22 20 21 21 22 19 18 19 18 18 18 18 20 23 22 21 22 23 25 24 26 28
69 69 66 62 56 49 47 40 41 40 36 35 35 35 34 34 32 31 31 32 31 26 23 23 24 24 23 21 20 19 20 19 19 21 24 23 22 23 24 25 25 29 28
73 72 71 68 61 54 46 42 41 40 36 36 37 37 38 36 35 36 35 35 33 30 28 25 26 25 26 24 21 21 21 20 20 22 25 25 24 23 24 26 25 23 26
73 74 75 71 65 57 48 44 41 40 41 38 40 39 39 39 39 41 37 37 38 36 33 29 28 27 27 27 25 23 21 23 24 23 26 28 27 24 25 26 24 22 26
81 76 76 73 68 60 49 46 44 45 44 38 36 37 39 41 42 42 40 43 42 39 37 34 29 28 29 29 29 26 22 24 25 25 26 29 29 27 26 28 26 25 25
86 84 81 75 72 63 52 48 46 47 43 37 38 40 41 45 48 45 48 49 47 45 39 38 34 30 30 29 31 29 25 25 27 26 28 31 31 31 29 29 27 28 27
86 86 84 78 71 65 58 49 47 49 46 41 40 43 46 49 51 49 52 59 56 45 43 38 36 35 31 31 31 30 31 27 28 29 28 30 30 34 33 28 27 27 27
83 83 82 77 73 67 60 52 51 49 49 45 44 47 49 51 51 51 55 47 38 45 42 40 39 35 31 31 31 31 33 33 29 31 29 29 29 30 35 30 26 26 29